GFSWCAN_sfc_rhum_000.txt.gz
RH
99 99 98 97 97 97 97 97 97 97 97 96 96 96 95 93 92 92 94 93 92 97 91 78 71 74 81 86 91 77 80 89 100 98 99 97 95 90 97 77 76 74 89 97 98 99 95 63 61 80 74 80 68 67
98 99 99 98 98 98 98 98 98 98 97 97 97 97 96 94 92 94 93 96 95 95 83 89 85 82 74 67 85 86 81 80 95 98 100 99 100 100 99 91 74 84 78 84 82 83 67 64 62 65 71 63 74 86
98 98 99 99 99 99 99 99 99 99 98 98 98 98 97 96 94 94 97 97 98 100 98 92 80 78 69 74 75 92 96 81 90 87 98 100 100 99 100 98 97 75 66 86 82 66 60 60 54 53 63 80 85 88
97 97 98 99 99 99 99 99 99 99 99 98 99 99 98 97 95 93 96 98 97 100 100 95 75 77 69 69 77 79 76 82 83 97 100 100 100 95 100 90 94 84 86 89 87 74 66 61 62 69 73 81 76 75
93 95 96 96 98 99 99 99 99 99 99 98 99 99 98 97 96 96 99 98 97 96 100 99 88 74 67 68 72 76 86 92 100 100 100 100 100 99 100 100 99 82 75 93 89 64 72 68 76 69 73 80 82 81
92 93 94 94 94 94 96 98 99 99 99 99 98 98 98 97 96 99 99 98 97 97 100 100 93 88 81 78 79 84 89 94 97 100 100 99 89 94 100 99 74 69 64 61 76 68 74 80 78 79 78 83 73 64
92 94 95 95 95 94 92 92 94 98 99 98 98 98 98 98 98 99 98 94 96 97 100 100 100 92 87 81 92 94 92 96 96 99 100 100 99 97 100 98 66 64 65 61 60 75 88 81 82 70 58 54 52 48
93 94 94 94 94 96 96 93 94 95 98 98 98 99 99 99 98 99 99 98 99 99 100 100 100 99 86 99 99 98 100 99 98 100 100 100 98 100 100 75 76 72 69 71 78 76 78 72 58 49 48 50 59 64
94 95 94 93 93 94 96 94 97 96 97 98 99 98 97 98 100 99 97 96 99 98 100 100 100 100 92 99 99 99 98 100 97 100 100 98 100 99 93 87 83 76 73 70 67 70 67 65 58 58 56 59 71 77
94 95 95 93 93 93 95 96 94 97 98 97 91 93 100 100 96 96 94 100 100 100 99 100 98 100 89 100 100 100 100 100 99 98 95 100 92 69 61 63 64 69 71 74 80 86 84 73 66 66 70 75 80 84
94 93 88 92 92 93 94 93 88 85 85 93 99 100 100 97 98 97 100 100 99 100 100 99 99 100 94 99 100 100 100 100 99 92 95 97 93 87 64 69 73 77 77 72 62 56 59 61 65 77 85 86 90 93
95 95 94 92 93 94 94 92 86 92 95 91 93 95 98 98 100 99 99 99 99 98 100 99 98 96 100 97 99 100 98 99 97 90 99 90 87 71 72 71 70 64 60 57 58 60 64 64 71 85 90 92 94 97
94 96 94 93 93 93 93 84 85 87 87 88 93 100 93 99 99 99 96 99 97 100 100 100 100 100 100 99 99 98 95 95 96 95 86 91 78 73 69 68 65 60 64 72 66 67 72 72 78 97 95 95 98 98
94 96 95 94 92 90 80 83 83 81 86 94 95 99 97 99 98 98 98 98 99 100 100 100 100 99 99 96 94 94 92 94 99 97 95 90 78 76 74 76 69 66 77 82 80 79 84 87 88 94 94 94 98 98
96 97 95 93 90 86 83 80 77 87 94 95 92 91 99 95 99 99 100 100 100 99 100 99 99 96 100 95 98 97 99 90 90 93 94 92 76 76 72 74 76 83 82 85 84 89 88 89 92 91 93 94 96 98
96 90 96 92 88 85 81 80 83 84 92 93 96 97 99 97 99 98 99 100 98 98 98 96 97 95 94 94 97 99 97 95 89 96 94 90 75 75 78 83 83 83 84 85 87 88 87 88 84 88 96 95 97 98
84 99 96 93 89 82 76 83 92 97 96 89 96 98 99 98 99 97 99 98 96 96 96 96 97 86 90 97 99 94 93 90 94 94 93 84 75 76 80 81 82 81 80 82 81 82 82 80 96 98 99 94 94 97
99 96 89 88 85 80 84 93 96 92 96 98 96 96 100 99 97 99 97 99 97 97 95 84 90 85 90 91 91 91 95 96 94 92 93 88 78 78 75 79 76 78 80 79 82 82 85 90 94 93 95 93 97 98
92 86 84 82 83 90 91 90 90 97 94 96 97 99 98 97 98 98 98 98 98 96 93 95 87 95 92 93 90 90 94 96 94 80 73 78 83 82 78 78 82 85 84 83 82 81 81 86 84 84 92 99 99 98
88 84 79 84 84 93 94 94 90 95 96 93 96 96 96 95 98 100 98 97 97 97 98 98 96 92 93 85 94 94 92 92 96 91 74 71 86 83 85 85 82 79 82 84 89 96 93 90 94 96 97 99 99 98
89 94 93 93 93 94 94 97 96 95 96 94 96 95 94 99 100 97 96 99 94 97 98 95 91 81 79 83 92 88 84 88 79 90 79 81 77 94 87 86 91 94 94 93 96 91 94 96 93 95 99 99 99 100
96 89 99 98 96 92 95 95 91 96 94 95 92 96 96 96 99 99 99 98 97 92 87 80 66 70 75 75 69 78 77 80 82 88 91 93 87 85 89 95 99 97 94 92 93 96 97 96 98 99 100 100 99 99
89 91 98 93 91 93 84 96 92 94 97 96 95 93 95 97 95 96 100 97 94 90 72 71 70 77 74 71 82 82 82 81 80 85 89 91 94 98 98 97 99 98 96 93 95 96 98 96 99 100 99 99 99 99
90 98 98 93 93 97 95 95 95 97 97 97 100 99 95 96 96 98 97 97 86 89 94 77 78 79 88 88 90 79 74 90 90 93 96 99 99 97 98 86 87 94 96 97 98 98 99 99 99 99 99 99 98 98
93 96 89 91 89 98 94 100 98 99 98 98 98 95 88 95 92 98 93 74 83 83 82 80 92 84 83 81 95 90 91 93 92 92 97 98 98 97 90 86 88 83 90 98 97 99 99 99 99 99 99 99 98 98
99 97 94 91 98 97 97 99 100 97 99 98 94 91 97 94 95 89 90 91 90 91 90 88 90 96 94 94 91 93 90 98 98 98 97 97 97 98 96 97 95 90 94 99 99 98 98 94 97 100 99 98 98 97
100 100 98 93 92 94 95 96 94 94 95 91 92 92 91 94 97 86 88 89 86 90 93 94 94 94 93 91 94 94 97 96 94 95 95 94 92 93 93 95 95 92 97 99 98 98 98 96 94 97 97 98 96 96
94 98 94 96 96 94 90 98 96 95 91 92 93 87 86 89 83 84 83 88 91 94 95 95 94 92 90 91 95 99 99 98 97 96 98 97 96 96 96 99 98 98 96 98 99 98 98 99 99 98 98 97 95 94
97 96 93 95 97 96 92 90 90 89 88 91 87 88 83 85 89 89 88 91 99 98 94 79 86 99 98 99 99 99 99 98 99 99 97 90 94 97 98 96 95 95 95 96 98 99 99 99 99 99 98 98 96 97
97 94 95 98 95 97 88 90 91 91 94 79 82 87 86 86 83 90 93 89 96 87 89 94 99 99 97 98 98 97 97 99 99 99 98 98 98 97 96 98 96 96 97 96 97 98 96 97 96 98 99 98 98 98
96 97 96 95 90 86 82 92 95 96 97 94 86 88 82 79 91 100 100 98 98 98 98 99 98 98 98 98 98 98 98 98 97 97 98 98 98 97 97 97 98 98 98 100 100 99 98 98 98 98 98 97 97 97
100 97 95 95 82 85 99 99 95 91 88 96 82 94 92 98 96 98 96 97 95 96 96 96 96 97 97 98 98 98 96 97 98 98 97 98 98 98 98 97 97 97 98 99 99 98 98 98 98 98 98 98 97 97
95 98 98 99 96 95 91 94 95 96 97 92 83 82 86 93 95 97 97 96 97 96 96 96 96 97 96 97 97 97 97 97 97 97 97 97 95 96 96 96 96 97 98 98 98 97 96 94 96 96 95 96 96 96

GFSWCAN_sfc_rhum_003.txt.gz
RH
99 99 98 97 97 96 97 97 98 98 97 96 95 96 96 93 92 93 95 95 90 96 89 80 73 77 84 84 90 78 82 90 99 98 98 99 96 91 96 80 81 77 88 96 98 99 95 65 69 84 78 76 75 78
99 99 99 98 98 97 97 97 98 98 98 96 95 96 96 93 91 90 94 97 95 92 77 93 86 80 69 67 83 88 81 80 94 99 100 100 99 100 94 91 77 87 76 85 76 83 68 62 64 63 69 79 84 90
99 99 99 99 98 98 98 97 98 98 98 98 97 97 97 95 94 93 97 98 97 100 92 88 81 77 78 74 73 90 96 80 90 88 98 100 100 100 100 98 98 88 76 92 82 68 61 64 60 55 67 82 90 79
99 98 99 99 99 99 99 99 99 99 99 99 99 98 98 96 94 92 96 98 97 99 100 93 78 78 75 77 80 79 78 86 90 98 100 100 100 94 100 93 98 84 89 89 83 75 73 67 68 84 82 85 84 82
97 98 98 99 99 99 99 99 98 99 99 98 98 99 99 96 95 96 98 97 96 94 100 99 90 78 73 79 80 86 88 92 100 100 100 100 100 99 100 100 100 86 78 94 96 70 75 71 88 89 87 84 81 79
94 97 97 97 98 99 99 99 99 99 99 99 98 98 98 97 95 98 99 96 96 96 100 100 94 88 82 83 86 86 90 94 96 99 100 99 89 96 100 100 77 73 68 76 80 67 89 91 72 65 73 72 71 78
93 95 96 97 97 97 97 98 98 99 99 99 99 99 99 97 97 99 98 95 96 95 100 100 100 93 88 89 96 95 94 97 97 99 100 100 98 96 100 99 79 73 74 68 69 82 92 82 84 66 62 58 53 51
94 94 94 95 96 96 95 96 96 98 99 99 99 99 99 98 96 98 98 96 98 98 100 100 100 97 90 99 100 98 100 99 99 100 100 100 99 100 100 84 78 80 77 79 83 87 86 81 76 58 51 56 63 70
95 94 93 93 95 94 92 95 96 96 97 98 99 98 98 98 100 99 98 97 99 99 100 100 100 100 92 99 100 99 98 100 98 100 100 99 100 99 93 88 85 83 84 78 78 80 79 69 64 59 61 66 76 82
96 95 94 93 93 95 95 97 97 98 99 96 91 96 100 100 98 97 96 100 100 100 99 100 99 100 92 100 100 100 100 100 99 99 96 100 99 82 74 66 70 79 80 81 85 84 67 58 62 66 68 76 84 89
95 93 92 92 93 94 91 89 97 96 89 90 99 100 100 96 94 98 100 100 99 99 99 99 99 100 94 99 100 100 100 100 99 93 95 96 96 84 74 84 83 82 72 64 62 60 58 59 61 67 74 81 90 92
94 92 92 92 93 93 92 85 84 91 92 89 95 96 97 96 99 99 99 99 99 97 99 99 99 97 100 97 99 100 98 99 97 90 99 97 86 73 75 68 67 64 60 58 62 63 63 65 69 76 83 87 91 95
95 94 93 93 94 93 88 86 89 86 87 86 94 100 94 100 99 99 92 99 99 99 100 100 100 100 99 99 99 99 99 97 96 98 96 92 77 75 79 76 71 67 72 76 69 73 76 79 79 86 85 88 97 97
96 96 93 92 92 84 84 84 80 82 84 92 93 99 95 100 98 95 97 97 96 100 100 100 99 99 99 97 97 92 93 96 88 98 92 90 76 69 67 73 75 76 81 78 74 78 84 87 86 86 92 88 94 97
96 96 94 92 90 84 81 76 79 86 92 97 85 86 99 96 98 99 100 100 100 100 99 99 99 93 100 97 98 97 99 93 82 92 94 91 74 74 75 77 80 85 82 82 79 86 86 86 89 87 84 90 94 94
95 95 95 91 87 83 79 80 84 84 93 94 96 98 99 95 99 98 100 100 98 99 97 94 98 95 96 94 98 99 99 97 88 96 93 91 77 76 78 82 83 85 86 82 81 84 83 87 86 82 86 94 95 95
87 100 93 88 85 82 79 85 91 96 94 85 97 97 100 96 98 97 98 98 96 95 94 96 97 81 91 99 100 95 94 91 93 94 96 84 80 78 80 84 87 84 81 85 85 85 85 84 89 95 94 82 91 95
99 96 91 88 84 79 85 91 96 92 91 98 98 96 99 100 94 99 99 100 98 96 90 88 91 94 96 96 95 92 95 96 94 93 93 88 85 83 80 83 79 82 85 86 89 87 89 92 91 90 89 86 93 96
94 92 90 84 79 86 91 94 88 94 94 98 98 100 98 98 99 99 99 99 99 97 92 93 93 95 92 94 90 92 95 95 94 78 87 78 82 82 79 80 83 84 87 88 87 88 88 89 91 91 92 94 98 96
92 88 88 84 79 94 92 96 91 95 95 93 97 97 97 97 99 100 98 99 98 99 99 98 95 93 92 88 88 90 92 93 96 92 77 78 85 82 82 84 86 87 89 93 95 98 95 90 90 94 95 98 98 98
90 96 91 91 97 92 93 98 97 96 97 94 97 96 95 100 99 100 95 96 99 98 97 96 96 88 83 82 93 89 84 90 82 90 82 81 84 93 92 90 92 96 98 98 99 95 95 91 89 93 99 99 99 99
99 93 100 93 96 93 94 96 92 96 95 96 93 97 96 97 100 99 100 96 98 92 88 87 70 69 72 77 70 79 75 77 83 88 90 92 94 90 95 97 99 100 92 90 94 91 94 92 94 95 99 99 99 99
88 90 97 91 92 88 85 97 94 94 97 96 96 94 96 98 97 98 99 95 96 89 79 83 76 73 74 69 78 80 80 80 86 88 90 91 92 94 98 98 99 98 94 90 89 92 97 95 98 98 97 99 99 99
85 96 97 96 93 95 96 87 97 98 98 98 99 100 96 98 97 100 99 98 92 96 96 82 83 87 92 90 92 81 78 94 92 93 93 96 95 96 98 96 96 95 94 91 92 92 97 98 98 99 98 99 98 98
91 94 90 89 84 93 87 99 98 98 99 99 100 98 91 97 95 100 97 90 93 90 81 87 96 92 92 91 94 88 90 91 92 92 88 96 99 99 98 97 96 95 95 93 94 96 98 96 98 98 97 99 99 98
99 100 88 83 93 98 96 100 100 100 99 100 99 96 98 96 95 87 89 90 90 90 88 84 89 92 94 92 94 93 89 94 95 96 94 97 97 97 97 94 90 93 96 96 99 98 96 95 98 98 94 95 99 98
100 100 97 95 94 93 97 99 97 97 100 96 93 95 94 95 96 86 90 92 86 89 88 91 88 89 89 84 88 90 92 96 92 92 95 95 95 96 96 95 96 96 98 97 97 97 97 97 97 98 98 96 96 97
96 98 97 99 100 96 92 99 97 95 90 92 94 95 88 88 84 85 83 86 86 92 92 93 94 91 90 90 95 97 100 100 99 98 98 97 97 98 100 98 97 93 95 95 96 97 98 97 98 98 98 98 96 95
97 96 94 99 97 96 94 90 91 89 89 92 90 91 84 84 90 88 81 87 96 98 98 90 91 98 100 94 99 96 100 99 99 100 99 100 98 98 96 97 96 97 96 89 90 95 98 98 98 97 96 97 98 98
98 95 96 95 96 96 92 91 92 92 95 90 89 87 85 91 91 96 97 97 98 97 96 96 96 100 99 98 98 98 98 98 99 99 98 98 98 98 98 97 97 96 96 96 97 98 99 97 97 96 96 97 98 98
98 98 97 99 95 90 89 95 98 99 97 93 93 87 79 88 99 100 98 99 100 95 95 96 97 96 96 97 98 98 98 97 97 96 97 98 98 98 99 99 97 97 97 98 99 100 99 98 99 98 97 97 97 97
100 97 98 98 91 88 100 99 98 96 92 100 84 97 97 98 100 99 96 96 94 94 96 96 96 96 96 97 97 98 96 97 97 97 96 97 97 98 98 97 97 98 99 97 97 98 98 98 97 96 98 97 97 96
96 100 100 100 99 96 95 87 93 98 99 98 81 92 94 94 96 97 97 96 97 96 96 96 96 96 96 97 97 97 96 97 96 96 96 97 95 97 98 97 97 98 98 98 97 97 96 96 97 97 97 96 96 96

GFSWCAN_sfc_rhum_006.txt.gz
RH
96 98 99 97 96 96 97 97 98 98 96 96 96 97 96 94 94 93 98 97 88 95 87 82 73 80 85 85 89 82 84 90 98 99 99 99 97 91 94 82 81 75 86 96 98 99 95 67 72 82 74 80 73 75
99 100 99 98 97 96 96 97 98 98 98 97 95 97 97 94 94 89 96 97 96 90 75 95 90 83 72 66 82 89 80 85 95 99 99 99 100 100 92 95 83 88 78 84 86 87 69 58 70 62 67 79 85 94
99 99 100 99 98 97 97 97 97 98 98 98 97 97 97 94 95 92 98 98 96 100 91 87 83 80 80 76 73 88 97 81 90 88 98 100 96 98 99 98 95 88 84 93 86 78 80 72 64 74 88 93 90 91
97 99 99 99 99 98 98 97 98 98 99 98 98 98 98 94 94 90 96 97 97 100 100 89 82 80 76 83 82 79 78 92 93 98 99 99 100 90 100 92 97 91 86 92 93 78 78 77 94 93 90 90 89 83
97 98 98 99 99 99 99 99 100 99 99 99 97 98 98 95 94 95 98 98 94 92 100 99 90 84 81 83 85 87 87 93 99 100 100 100 100 99 100 100 99 92 92 96 84 71 91 88 90 90 86 83 79 79
96 97 98 98 99 99 99 99 99 99 99 99 99 99 98 95 94 97 99 96 97 94 100 100 94 89 86 84 86 90 94 96 99 99 100 99 88 94 100 100 78 71 70 66 79 77 80 91 86 76 76 75 69 75
95 96 97 97 98 99 99 99 99 99 99 99 99 99 99 96 97 97 98 93 97 95 100 100 99 93 90 92 98 96 95 97 98 100 100 100 99 95 100 97 75 75 79 76 71 80 95 87 84 69 65 62 64 65
95 94 96 98 97 97 98 99 99 99 99 99 99 99 99 98 97 99 99 98 97 98 100 100 100 94 90 99 100 99 100 99 99 99 100 100 99 100 99 89 83 76 73 79 86 91 91 81 67 58 55 58 63 68
94 93 93 94 96 95 96 98 98 99 99 99 99 98 97 98 100 100 98 96 98 97 100 100 100 100 95 99 99 99 99 100 98 100 100 99 100 99 95 86 81 80 86 87 90 86 71 56 60 59 60 64 68 74
95 94 93 92 95 96 97 96 98 99 99 98 96 98 100 100 98 96 95 99 100 100 99 100 99 100 95 100 100 100 100 99 99 99 96 100 99 80 72 85 94 92 85 79 82 67 63 66 68 67 66 65 73 83
95 93 92 92 94 92 98 98 98 98 94 97 100 100 100 98 96 98 100 100 100 100 100 99 99 100 96 99 100 100 100 100 100 94 95 98 96 83 79 75 73 70 66 64 64 64 60 63 69 76 77 73 80 85
95 92 91 92 94 94 92 96 92 91 92 91 96 97 98 97 100 100 100 100 100 98 100 99 99 98 100 98 99 100 99 99 98 94 99 99 90 80 83 82 76 74 70 65 65 66 71 75 80 85 85 83 85 87
94 92 92 93 92 89 88 90 90 88 85 86 95 99 96 99 99 99 99 99 99 99 100 100 100 100 99 99 99 99 98 97 98 98 97 95 77 71 67 72 70 72 71 72 66 68 74 77 80 88 86 86 88 90
95 93 93 94 91 85 86 83 80 82 79 91 96 99 97 99 99 96 94 96 96 100 100 100 99 98 99 98 99 95 96 97 98 100 93 90 72 64 72 76 77 71 80 81 76 78 83 86 87 85 89 89 91 90
96 94 93 92 84 82 79 81 79 83 92 93 86 96 99 96 98 100 100 100 100 99 100 99 99 95 99 98 97 97 98 92 88 91 94 89 74 75 74 70 72 83 85 86 82 87 87 88 89 88 85 90 92 92
96 94 94 91 85 81 80 79 82 78 92 92 94 98 99 98 100 99 100 100 99 99 98 96 97 98 98 95 97 98 98 98 89 96 94 90 76 77 76 78 80 83 86 85 84 88 88 91 90 88 88 89 90 92
93 100 92 88 85 84 79 83 92 95 87 88 99 96 100 98 96 98 98 99 96 95 95 94 92 83 92 99 100 95 94 90 92 94 94 86 78 76 78 82 86 87 85 88 88 89 89 89 92 95 95 88 90 92
99 96 88 85 80 81 88 91 92 88 87 99 99 99 99 100 98 97 100 99 98 94 91 88 90 96 96 94 95 92 96 97 95 94 90 83 80 81 80 84 79 82 85 87 91 91 92 95 95 93 93 92 94 94
96 91 86 79 77 88 95 96 88 89 91 98 98 100 99 100 97 100 100 100 99 96 91 95 97 95 92 94 91 95 97 94 89 86 88 78 81 82 80 81 83 84 88 91 91 92 93 94 94 91 93 95 96 95
93 90 84 79 75 92 93 97 90 93 95 94 98 99 98 98 99 99 99 100 99 100 100 99 96 95 91 87 86 89 89 88 95 91 78 89 85 81 82 84 85 89 92 94 96 99 97 96 95 94 96 89 96 98
93 95 88 88 96 90 93 99 96 97 98 95 98 97 97 99 99 98 98 98 99 98 100 97 97 91 86 92 91 88 87 90 85 90 86 78 85 93 89 88 93 96 99 100 96 87 83 91 91 93 91 91 88 95
99 94 100 93 94 91 94 97 95 97 94 96 95 97 98 99 100 98 96 92 92 96 92 83 69 84 82 79 78 83 78 79 82 88 90 90 90 95 95 94 99 99 99 97 96 94 89 84 86 94 95 89 91 96
87 88 96 93 88 86 93 97 94 96 94 95 96 94 97 99 98 94 98 88 96 91 92 90 78 75 76 74 82 79 79 79 83 86 89 91 92 94 97 96 98 100 98 94 96 96 92 85 84 98 98 95 96 98
84 93 94 95 92 98 95 94 97 99 100 99 100 100 96 99 98 100 99 99 94 98 97 82 92 94 94 90 95 85 82 93 92 94 94 97 96 91 95 95 98 97 96 94 96 91 88 92 97 98 98 98 96 97
88 96 88 92 87 98 88 100 99 96 88 100 100 100 95 98 99 100 100 94 95 93 86 89 96 94 93 96 95 92 92 93 94 93 86 95 95 98 98 97 96 96 97 100 98 97 95 95 94 94 96 97 97 95
99 96 88 90 95 96 98 100 100 100 100 100 100 98 99 98 98 89 89 90 92 91 90 87 88 91 95 90 93 93 82 96 97 98 85 94 93 94 96 98 97 96 97 96 99 97 96 94 93 93 91 90 97 98
100 98 95 96 94 95 100 99 98 99 100 100 97 99 97 98 97 87 91 92 88 89 86 88 84 84 82 83 91 91 94 97 92 90 97 98 97 97 97 98 96 96 98 98 99 98 97 96 96 95 96 89 92 95
96 98 97 99 100 97 95 100 99 98 94 94 94 96 88 88 83 87 84 86 87 91 92 91 94 93 93 91 94 98 99 100 100 100 100 97 98 99 98 99 98 94 97 98 96 96 96 97 97 96 96 96 93 90
98 98 95 100 100 100 96 90 92 91 89 91 90 92 87 86 91 91 92 93 99 100 98 96 94 98 98 99 98 98 99 99 99 99 98 95 99 98 97 98 98 98 98 97 94 95 98 99 100 99 99 98 94 94
96 96 98 99 97 96 92 92 94 94 97 94 93 90 91 92 99 98 96 97 98 99 98 99 98 98 98 98 97 98 97 97 98 98 98 98 98 98 97 97 98 96 96 97 97 94 95 99 99 97 97 96 97 97
99 98 97 99 98 94 92 99 99 100 98 96 98 91 79 95 99 100 95 99 97 96 94 95 94 97 97 96 96 97 98 97 96 97 97 97 97 97 97 97 98 98 97 97 97 97 98 100 100 99 97 98 96 97
100 100 97 100 95 93 100 100 100 100 98 99 86 99 96 100 100 98 96 96 92 93 94 96 96 95 95 96 97 97 96 97 97 97 96 97 97 97 96 96 97 98 100 98 100 100 99 100 99 99 100 98 96 96
98 100 100 100 100 96 96 87 95 98 99 100 97 100 100 99 97 97 96 95 96 96 95 95 96 96 96 96 96 96 96 96 96 96 96 96 94 97 96 98 99 99 99 99 99 100 99 100 100 99 98 97 97 97

GFSWCAN_sfc_rhum_009.txt.gz
RH
97 96 98 99 97 97 97 96 97 97 96 96 96 98 96 94 93 92 98 96 84 91 82 79 70 75 78 78 88 82 84 91 99 100 100 98 98 86 83 71 74 72 88 94 96 96 95 55 59 82 77 84 76 75
99 99 100 99 98 97 97 97 98 98 98 96 95 97 96 94 95 90 94 96 94 88 76 93 89 76 68 63 80 87 76 82 91 98 99 100 100 98 92 92 72 85 76 84 84 81 62 56 60 70 77 84 92 95
96 98 100 99 99 98 97 97 98 98 99 98 96 97 96 93 93 92 96 97 93 100 90 84 81 77 78 73 70 84 94 78 85 82 97 99 100 92 100 97 98 79 72 93 89 74 64 64 67 84 88 93 85 82
96 96 98 99 99 99 97 96 97 98 98 99 98 98 96 93 94 90 94 95 96 99 100 87 80 78 74 80 77 76 81 89 90 96 100 100 100 85 100 87 93 78 84 90 91 72 69 73 82 91 88 85 82 74
96 96 96 98 99 99 98 97 97 98 99 99 100 100 97 93 93 95 98 98 94 90 99 99 87 82 81 80 84 84 85 96 99 100 100 100 99 98 100 100 98 85 85 95 89 67 84 83 88 90 84 77 67 69
95 96 96 97 98 99 99 98 99 99 99 99 99 99 98 94 93 96 97 94 96 93 100 100 91 91 82 84 86 92 90 95 98 100 100 99 88 94 100 100 82 69 68 68 76 83 87 88 81 69 66 65 54 52
94 95 95 96 97 98 99 99 99 99 99 99 99 99 99 96 96 96 96 89 96 94 100 100 99 90 88 90 96 92 94 96 96 99 100 100 99 94 100 98 74 72 69 73 73 79 87 74 73 59 47 44 49 46
94 93 95 96 96 97 98 99 99 99 99 99 99 99 99 96 96 98 98 96 96 98 99 100 100 97 87 99 100 96 100 98 99 99 100 100 98 100 100 86 76 68 67 83 86 83 78 57 47 47 46 48 52 51
94 93 92 94 96 96 97 99 99 99 98 99 99 99 98 98 100 99 97 94 97 95 100 100 100 100 94 99 99 99 99 100 97 100 100 99 100 99 89 83 87 87 81 88 69 51 50 54 52 51 53 55 56 52
96 94 92 94 93 94 96 98 99 99 98 98 97 98 100 100 98 98 96 100 100 100 99 100 99 100 93 100 100 100 100 100 99 98 90 100 99 73 71 78 82 79 72 65 65 64 59 60 60 62 62 62 63 61
95 94 92 94 93 96 96 98 99 96 95 98 100 100 100 98 97 98 100 99 100 100 100 99 100 100 96 99 100 100 100 100 99 89 95 96 91 76 68 66 66 66 62 60 56 56 61 65 67 71 75 76 81 80
95 92 92 95 94 94 98 98 94 96 99 98 98 98 99 97 100 100 100 100 100 98 100 100 99 98 100 98 99 100 99 98 98 91 98 93 80 74 72 67 66 63 56 52 52 57 62 63 68 76 77 77 80 81
95 91 91 92 92 90 94 94 93 96 92 94 97 99 97 100 100 98 99 99 100 100 99 100 100 100 99 99 100 97 96 96 94 97 91 86 69 60 59 64 62 60 60 68 61 63 69 69 73 80 84 83 87 86
95 92 93 92 89 94 94 91 86 82 88 94 99 99 97 99 98 97 93 95 95 100 100 100 99 97 99 98 97 93 94 94 97 100 93 80 62 56 65 70 62 58 77 78 72 75 84 87 86 86 91 90 92 91
95 93 94 88 86 83 87 85 83 89 91 87 87 99 98 95 98 100 100 100 100 99 100 99 97 92 98 96 94 94 96 94 89 87 84 79 70 69 69 65 63 78 86 83 76 85 88 89 90 89 87 91 90 93
95 94 94 86 83 84 83 81 84 80 92 90 92 95 99 98 100 100 100 100 98 100 99 96 95 97 96 94 96 96 92 90 84 90 85 74 72 74 74 76 75 77 80 78 79 83 85 91 92 87 90 92 92 94
94 99 92 88 85 82 80 81 91 90 85 89 99 98 99 96 96 98 100 100 98 100 97 92 88 88 91 95 97 88 92 86 87 82 76 78 73 71 72 76 84 84 80 83 81 85 86 88 93 95 95 84 87 91
100 96 89 84 80 82 89 88 87 85 89 98 98 99 98 98 99 99 99 99 97 89 88 87 85 92 92 88 87 88 88 87 82 80 72 73 73 74 72 74 72 76 78 82 89 89 90 95 94 89 90 87 89 85
96 91 86 81 77 90 95 96 88 88 91 97 98 97 98 99 98 99 99 99 98 93 90 90 94 91 89 87 88 88 90 88 75 68 73 72 76 76 75 76 78 78 82 85 86 84 87 91 89 89 90 89 90 90
94 91 86 80 76 91 94 96 88 90 93 93 98 99 98 99 99 100 99 98 97 98 99 99 96 90 87 81 80 81 78 74 78 83 77 77 74 75 75 75 76 79 82 86 89 97 89 84 80 79 90 93 97 94
94 95 87 86 92 88 93 98 95 95 96 94 97 95 100 98 99 98 97 95 98 97 99 94 95 87 82 80 78 78 78 79 79 85 80 76 74 79 76 77 82 87 90 89 95 92 96 90 87 86 91 95 96 93
99 92 100 88 89 90 94 96 94 96 92 95 94 94 99 100 99 96 94 97 90 92 90 90 81 80 80 77 75 80 78 79 80 82 88 85 85 85 86 86 89 90 90 93 92 95 92 90 89 88 92 94 96 91
86 89 94 89 84 90 96 94 95 95 92 94 95 92 96 98 97 92 94 81 89 86 87 84 77 73 75 74 80 78 79 80 83 84 88 88 87 89 92 90 93 95 97 91 90 92 94 88 85 88 93 99 99 99
80 94 95 94 92 100 94 95 97 99 100 99 99 100 95 98 95 97 97 99 92 92 92 81 85 86 86 86 87 82 79 85 86 89 90 92 92 86 87 87 89 92 90 90 93 95 95 95 96 95 91 84 87 93
86 94 90 96 95 96 94 99 98 92 88 93 100 100 98 97 99 100 99 95 93 91 86 77 81 88 86 86 85 81 88 85 86 84 79 89 88 91 86 85 90 92 92 96 96 95 96 96 95 93 88 90 92 94
100 95 89 95 98 92 99 100 99 98 96 100 100 98 99 98 98 93 86 88 90 87 88 85 85 82 79 83 81 81 78 87 90 90 81 87 89 92 91 91 92 92 90 94 97 96 95 95 94 94 94 92 91 93
100 94 98 95 93 94 100 98 97 99 100 100 100 100 98 99 97 85 85 88 83 88 82 83 79 78 76 73 85 88 89 90 89 84 90 92 92 92 94 97 97 95 96 97 97 97 96 96 96 95 96 89 90 92
96 99 97 99 100 97 97 100 100 99 96 92 93 95 90 90 81 84 87 91 94 91 89 90 90 90 92 90 92 94 93 98 98 99 99 95 95 96 96 96 96 97 97 97 97 97 97 96 96 96 96 95 94 89
98 99 98 99 100 100 97 92 92 91 87 91 90 92 88 84 96 97 95 95 96 98 98 97 94 96 96 95 96 98 98 99 100 99 98 97 96 96 95 95 95 96 96 95 94 98 97 96 96 96 96 96 96 95
95 96 98 100 100 98 92 92 94 96 96 95 93 91 91 98 96 96 94 94 95 97 97 96 95 96 96 96 96 94 96 96 96 97 96 97 96 95 96 96 95 95 96 96 95 92 89 95 94 92 93 95 94 94
99 97 98 98 99 96 96 100 99 100 99 98 100 93 89 99 98 98 94 98 97 97 93 93 93 94 96 95 96 96 96 96 96 95 95 95 95 95 95 95 95 96 97 96 94 94 96 96 95 94 94 95 95 94
98 98 100 100 97 96 100 100 100 100 100 100 95 100 98 98 100 98 95 94 90 92 93 95 95 95 95 96 96 96 95 95 95 95 95 95 95 95 94 93 95 96 96 96 97 96 96 95 96 96 95 95 95 95
98 97 96 100 100 96 97 84 96 97 99 100 99 100 100 99 100 98 94 92 97 96 95 95 95 96 96 95 95 96 95 95 95 95 95 95 94 94 92 95 96 96 94 95 96 95 95 94 96 96 96 96 96 96

GFSWCAN_sfc_rhum_015.txt.gz
RH
98 99 98 96 96 95 95 95 95 94 95 96 95 95 94 93 92 68 63 66 56 62 51 46 42 47 45 40 71 56 59 66 79 100 100 89 100 61 56 37 60 74 93 97 88 98 88 36 38 76 57 56 57 73
99 99 99 99 98 96 96 95 95 95 95 95 94 96 94 92 92 89 47 56 56 51 59 60 57 54 51 43 40 58 48 56 56 77 94 97 100 99 88 71 33 55 52 60 57 58 34 37 46 48 49 60 73 82
98 99 99 99 99 99 98 97 96 96 97 96 95 96 94 92 91 84 51 57 49 92 60 54 55 55 46 50 47 57 64 41 52 52 82 98 100 78 100 76 70 40 32 62 64 41 38 40 46 54 60 69 70 72
97 98 98 97 99 99 99 98 98 98 98 98 96 96 94 92 91 89 53 58 52 75 100 71 50 56 52 52 50 50 49 58 55 60 100 100 100 54 96 60 58 49 42 55 64 44 43 42 58 62 62 69 74 48
93 94 96 96 96 98 99 99 98 98 98 99 98 98 95 89 90 66 59 61 59 61 93 82 58 55 51 53 54 51 53 58 73 99 100 98 77 75 80 85 74 43 48 69 79 50 68 72 73 63 67 68 43 42
93 93 94 94 95 95 98 99 99 98 99 99 98 99 97 91 91 56 59 60 59 60 95 100 63 60 54 53 58 58 54 59 59 77 94 69 51 68 100 96 51 38 38 38 54 54 65 75 68 56 47 43 36 35
92 93 94 94 94 95 95 98 99 98 98 100 99 98 97 94 73 63 58 72 80 59 100 100 90 67 60 59 60 60 67 74 74 84 97 88 74 68 100 92 46 42 46 49 56 64 83 71 64 44 39 35 37 28
91 91 91 94 94 94 95 96 98 99 98 99 99 100 97 97 93 79 72 84 79 63 85 100 98 94 62 90 98 64 89 85 81 77 96 92 74 94 100 66 52 49 52 61 66 70 71 59 40 36 31 26 24 24
92 92 91 93 93 93 94 95 96 99 99 99 99 98 96 97 98 81 93 86 71 75 93 100 100 100 66 85 90 93 84 100 81 100 99 87 100 96 69 56 56 57 66 63 52 43 40 38 32 25 23 25 28 31
88 89 91 93 93 94 94 97 96 98 99 99 98 100 100 100 97 94 87 93 98 98 89 100 81 98 66 98 100 99 99 100 100 98 86 100 98 73 56 57 55 56 52 47 54 49 38 32 27 28 30 31 33 36
88 90 90 93 93 95 96 97 98 98 97 99 100 100 100 98 95 97 100 100 100 100 99 95 97 95 79 96 100 100 100 100 100 92 96 98 85 67 58 60 55 50 44 35 29 27 26 28 31 35 41 47 52 52
87 90 90 92 92 95 95 95 93 95 99 99 98 97 97 96 100 100 100 100 100 99 99 100 99 84 98 88 99 100 100 100 100 70 98 89 58 54 57 50 44 36 30 27 26 28 30 31 37 48 53 53 54 70
88 92 90 91 90 96 94 95 96 96 95 95 96 100 99 100 100 100 100 100 100 100 99 100 100 100 99 97 100 100 100 100 75 95 78 60 50 49 47 44 39 32 37 40 28 29 35 41 50 65 75 73 96 75
87 91 89 90 91 96 95 95 89 89 88 98 100 100 100 100 100 100 100 100 100 100 100 100 100 100 100 100 100 100 98 81 95 88 92 58 53 47 44 43 38 37 81 56 44 46 54 83 83 98 100 100 100 92
81 92 88 88 95 94 94 94 88 65 82 98 99 100 100 100 100 100 100 100 99 98 100 100 100 89 100 100 99 95 99 93 78 77 69 55 52 46 46 49 44 53 96 79 47 64 100 100 96 83 84 88 85 100
87 91 80 87 90 92 91 90 92 81 80 82 98 100 100 100 100 100 100 100 93 98 99 96 100 100 100 100 99 100 96 79 76 79 66 48 50 50 51 51 50 45 46 47 47 52 67 94 100 76 80 92 100 100
95 82 89 90 89 83 86 95 90 72 84 99 98 100 100 100 100 100 100 100 91 100 100 97 100 99 92 95 93 71 89 83 76 69 51 48 50 50 44 46 80 66 58 53 52 55 60 71 93 94 94 64 66 79
75 81 90 86 77 89 92 70 76 74 90 77 92 100 98 99 100 100 100 99 99 99 86 88 69 92 92 87 78 79 68 65 56 53 45 46 47 47 47 51 49 50 50 51 70 68 69 92 82 67 52 52 63 72
77 89 88 84 82 86 97 91 67 78 84 79 84 85 89 98 94 90 97 98 90 86 83 83 96 79 77 68 82 89 83 69 56 47 45 48 51 54 56 54 55 55 54 55 56 56 52 53 58 56 60 60 68 72
94 92 80 76 74 82 94 86 67 63 72 73 83 82 85 88 96 100 100 100 91 90 96 94 78 71 68 56 52 60 51 52 52 60 56 46 42 47 53 55 53 52 51 51 53 69 58 63 58 56 61 66 86 89
92 96 90 82 75 64 68 69 75 67 66 66 73 70 89 89 96 96 94 90 100 90 70 62 86 70 60 58 55 54 56 55 51 56 59 55 48 49 51 50 52 54 59 64 87 77 85 83 71 68 100 100 100 100
98 94 100 93 98 93 76 69 67 67 69 77 78 69 91 98 96 92 85 93 82 65 54 58 53 52 54 60 55 54 54 55 55 57 72 66 62 59 55 52 58 79 77 95 80 99 97 80 85 96 100 100 100 100
95 98 100 100 100 98 97 70 91 68 90 88 80 87 90 90 83 71 89 66 64 52 49 48 49 56 58 50 49 52 51 53 52 49 53 58 56 63 70 67 76 97 98 80 69 83 95 91 94 100 100 100 99 100
89 100 99 96 91 94 97 93 71 75 82 82 82 85 79 84 78 87 85 74 56 50 55 53 52 47 46 53 46 38 41 42 50 53 58 62 62 58 56 59 68 83 78 76 86 96 100 100 99 98 100 100 100 100
97 96 94 93 88 87 88 89 87 81 83 85 89 85 90 84 89 83 85 62 77 89 80 62 51 47 49 53 47 47 49 53 58 59 61 61 74 80 77 66 66 70 86 100 100 100 100 100 100 100 96 100 95 94
87 93 86 87 89 81 80 86 85 84 81 87 89 82 94 90 86 78 52 84 97 88 99 98 91 68 56 52 59 60 62 66 71 75 65 64 73 94 96 91 88 87 88 98 100 100 99 99 99 96 96 97 96 96
84 89 80 64 66 72 87 87 76 84 86 83 84 90 89 80 72 59 68 77 76 82 75 76 79 74 74 70 69 72 74 78 87 90 86 83 82 83 95 98 98 94 94 100 100 100 100 99 95 96 96 96 98 99
85 81 86 92 85 76 83 81 85 82 83 62 74 86 78 70 68 81 76 73 78 73 71 71 70 71 73 75 75 79 80 80 78 80 74 74 80 97 94 95 95 95 97 100 100 100 100 100 98 94 94 94 93 92
90 85 84 90 88 90 87 81 80 63 54 71 87 75 80 78 85 81 77 76 76 79 80 81 82 81 77 74 76 83 82 85 86 86 85 86 88 87 89 91 92 93 94 94 94 97 97 93 92 92 88 88 89 86
92 87 89 87 88 83 97 86 99 100 71 78 75 68 73 85 85 77 79 80 84 89 87 85 84 85 86 86 84 83 88 86 88 91 92 90 90 88 88 91 92 92 93 94 94 93 94 92 84 83 81 83 85 83
86 90 87 86 88 97 98 100 100 99 100 94 98 98 90 89 88 82 80 82 81 82 84 84 83 83 85 85 87 87 86 82 83 82 85 88 88 88 88 89 91 92 93 93 93 93 92 92 87 83 83 84 84 84
92 84 86 86 87 96 100 100 99 99 95 98 93 91 89 87 86 85 84 83 82 85 84 84 86 87 85 85 87 87 87 86 84 85 84 88 88 88 88 87 89 91 92 92 93 92 92 91 86 85 83 84 85 85
90 88 87 89 90 86 96 91 74 75 84 84 88 85 88 88 87 86 74 79 84 86 86 86 85 84 86 84 83 83 81 81 82 82 84 83 85 87 89 89 90 91 91 92 92 91 90 87 85 84 84 85 85 84

GFSWCAN_sfc_rhum_018.txt.gz
RH
97 96 96 95 94 94 95 95 95 95 95 94 95 95 93 91 91 77 68 67 67 73 51 44 40 42 40 46 80 56 64 72 95 100 100 94 100 79 65 42 77 83 93 96 90 95 88 35 36 72 64 63 64 66
99 98 96 96 95 95 95 95 95 95 94 93 91 96 94 92 90 90 53 56 63 64 65 58 57 53 50 48 46 60 49 60 68 84 93 98 100 100 96 80 30 63 68 74 68 72 46 40 46 52 60 64 76 66
99 99 99 98 97 96 96 95 95 95 96 94 91 94 94 91 90 89 55 62 55 92 64 59 57 54 50 53 52 68 77 42 54 58 88 97 100 89 99 84 69 36 29 74 69 45 37 41 46 58 60 65 61 65
98 98 99 99 99 99 98 98 97 97 98 97 95 91 94 91 91 95 58 62 59 82 100 76 48 54 49 50 48 54 56 63 64 72 100 100 100 60 97 71 74 55 43 51 59 43 44 43 56 61 61 66 67 58
97 97 97 97 98 98 99 99 98 98 98 98 98 97 98 90 91 72 61 60 59 71 96 85 53 51 48 51 49 50 59 64 79 98 100 99 86 86 96 90 89 47 51 74 80 53 62 65 67 64 79 74 59 40
95 95 96 97 96 96 98 99 99 99 100 98 99 99 97 94 93 66 64 62 59 63 96 100 63 57 51 51 54 56 56 62 62 86 97 77 53 81 100 98 54 36 35 36 52 55 66 68 66 63 64 50 37 36
92 94 94 94 96 96 95 98 100 99 100 99 99 98 98 94 76 70 69 77 84 71 100 100 94 66 58 55 63 61 69 80 71 83 97 92 82 67 100 97 49 40 36 45 52 62 71 66 65 46 39 36 38 26
92 92 93 93 93 94 94 95 98 99 99 99 99 99 97 99 91 78 77 82 85 68 88 100 100 96 61 94 98 68 96 82 88 79 94 92 79 100 100 64 48 41 41 56 58 58 66 67 61 41 33 26 25 27
92 92 93 93 94 94 94 95 94 97 99 100 99 98 95 88 88 80 91 90 75 78 96 100 100 100 65 90 95 93 85 100 84 100 97 88 100 98 75 57 52 51 56 60 58 50 57 48 36 28 25 28 32 33
93 92 93 94 95 95 95 97 96 96 99 99 97 100 100 100 95 90 79 88 93 93 92 100 77 98 68 100 100 100 100 100 100 97 90 100 98 69 50 53 50 53 52 54 60 55 42 36 30 30 32 34 36 40
89 91 92 93 94 95 95 96 98 98 95 98 100 100 99 96 94 97 100 100 100 100 98 94 92 94 81 96 100 100 100 100 100 91 98 99 95 70 61 56 55 53 51 48 42 36 29 29 32 37 47 61 66 66
89 90 91 92 94 91 96 93 92 93 98 99 98 97 96 96 99 100 100 100 100 92 100 100 99 90 99 84 94 99 100 100 99 85 100 93 66 53 59 60 55 48 37 30 28 28 31 31 36 58 66 68 68 81
89 89 91 92 94 93 94 94 95 94 94 95 96 100 99 100 100 100 99 99 100 100 100 100 100 100 98 95 100 100 100 100 96 100 88 71 60 55 54 50 43 34 48 50 29 30 36 43 55 75 82 79 91 83
88 89 91 94 96 94 94 88 85 83 86 98 100 100 100 100 100 100 100 100 100 100 100 100 100 100 100 100 100 100 100 100 98 97 88 74 56 49 47 51 41 46 70 62 61 60 64 85 90 93 99 96 97 95
81 86 87 94 93 95 91 87 84 64 81 98 100 100 100 100 100 100 100 100 100 99 100 100 100 100 100 100 100 100 99 96 94 96 90 80 72 60 62 54 56 70 92 85 64 69 95 92 94 89 88 90 90 98
87 90 85 93 92 90 90 87 91 80 77 88 97 100 100 100 100 100 100 100 98 100 100 100 100 100 100 100 100 100 96 94 100 97 88 67 70 71 69 65 64 61 64 65 64 64 69 91 92 81 84 96 94 100
92 81 90 87 82 82 80 93 98 80 84 99 98 100 100 100 100 100 100 100 95 100 100 100 99 98 96 97 95 92 99 97 92 81 75 71 68 68 62 60 78 73 72 69 68 68 69 75 90 94 92 81 80 92
72 85 92 89 80 88 91 76 90 82 88 77 92 99 95 100 100 100 100 100 100 95 91 95 84 93 92 90 84 90 80 81 80 80 70 67 61 61 58 69 60 68 69 67 76 74 75 88 84 81 80 76 76 80
89 83 91 88 76 84 96 95 74 80 82 80 88 86 91 98 95 95 100 99 95 95 96 94 99 92 87 82 95 100 99 93 79 67 63 63 63 67 68 69 72 71 70 69 70 68 66 70 71 68 68 68 76 79
92 92 90 88 83 87 91 84 67 66 75 74 82 82 91 92 96 100 100 100 98 100 99 94 88 88 85 80 79 86 81 78 74 76 69 63 65 63 68 73 70 70 67 68 70 78 70 69 66 67 71 72 83 96
91 96 91 93 77 64 67 70 72 68 68 72 73 74 87 89 94 97 100 95 100 94 72 68 93 79 75 79 78 78 75 71 66 74 71 67 69 74 68 66 66 66 71 75 91 81 88 86 77 78 99 100 100 97
98 90 100 99 100 92 76 69 72 66 75 80 77 76 87 90 89 90 87 92 74 66 60 66 61 59 66 71 64 65 68 68 69 67 74 70 69 68 68 68 73 85 83 91 79 89 91 84 89 96 100 100 98 100
95 98 100 100 100 100 95 73 92 68 85 82 74 84 82 84 79 72 83 69 66 55 55 52 53 65 66 66 60 63 63 64 60 61 69 66 66 75 80 74 78 88 85 80 76 82 89 96 98 100 100 100 100 100
98 100 100 99 100 96 99 86 66 70 76 78 77 81 73 78 75 81 79 70 57 56 55 55 56 54 60 61 52 55 62 59 60 62 66 68 71 69 67 68 71 77 74 75 87 97 98 100 97 98 100 100 100 98
99 98 99 96 93 86 83 84 81 78 80 80 82 80 85 81 84 76 79 74 94 96 96 86 68 54 55 65 65 66 71 79 83 83 75 74 82 86 84 80 79 78 82 95 99 100 100 100 99 100 100 98 94 94
96 96 96 93 91 84 81 83 81 79 78 81 80 81 86 82 80 74 61 94 96 89 90 91 89 77 69 69 71 78 79 77 81 82 75 80 84 91 92 92 90 87 95 98 100 100 99 97 98 98 96 92 96 97
84 85 78 65 68 73 86 82 73 79 81 79 79 84 84 82 73 78 77 82 87 84 75 81 77 76 76 73 71 72 78 82 84 79 74 73 87 93 94 96 94 94 90 94 96 98 98 97 97 96 97 96 96 97
79 78 85 88 81 71 80 77 81 78 75 59 72 80 76 68 84 87 83 75 77 74 74 75 74 72 75 75 79 83 81 80 79 74 72 84 81 80 83 85 84 85 88 91 96 96 97 97 96 96 96 96 97 96
83 80 80 91 83 84 79 75 74 59 53 69 80 72 85 82 90 87 83 80 80 81 82 82 84 85 82 76 83 87 82 85 88 89 86 89 88 86 84 86 86 87 88 90 86 88 95 97 94 95 96 96 96 97
90 89 82 83 88 80 92 93 97 97 74 88 80 71 76 85 87 80 82 82 85 90 89 88 88 86 88 86 87 82 93 88 88 90 92 93 94 90 89 90 90 89 90 90 91 89 87 90 93 96 95 95 93 94
80 82 82 81 82 95 98 96 95 94 96 89 97 92 92 90 89 83 83 88 84 85 84 84 84 87 86 87 88 87 87 83 88 85 85 89 90 90 90 90 90 91 91 92 92 93 94 94 95 95 94 94 93 90
84 81 82 78 85 94 90 90 86 88 92 84 87 90 92 92 90 88 84 87 85 84 87 83 86 87 84 84 88 87 89 88 88 89 85 90 90 88 88 88 89 92 92 92 93 94 94 94 94 94 94 93 91 89
82 82 80 81 78 78 85 86 67 69 76 74 85 83 90 92 92 90 78 80 85 86 86 85 83 84 89 87 79 89 78 79 78 86 86 90 87 88 88 88 90 90 91 94 94 94 92 92 93 94 94 93 88 88

GFSWCAN_sfc_rhum_021.txt.gz
RH
94 94 94 94 94 94 95 95 96 96 95 94 95 95 92 90 90 92 90 86 88 94 80 75 75 70 67 82 88 78 78 84 100 98 100 99 98 90 79 71 88 87 96 97 91 90 94 52 49 64 70 80 81 80
94 95 95 95 94 94 95 95 96 95 94 90 94 95 92 91 92 93 87 78 85 92 90 78 73 71 73 76 78 76 67 83 93 98 100 100 100 100 96 86 63 79 83 92 81 83 62 54 58 69 71 84 83 83
96 95 95 95 94 94 95 95 95 96 95 94 91 95 94 91 91 94 90 90 92 99 91 85 82 72 65 70 69 82 90 69 80 90 97 98 98 96 96 94 75 57 58 85 78 63 56 68 76 76 78 79 77 73
98 98 96 96 96 96 95 96 96 97 97 96 96 99 98 94 92 93 93 93 94 99 100 92 59 73 60 65 62 69 73 82 90 95 99 100 98 85 99 80 88 68 61 62 76 64 61 74 75 74 80 77 73 67
98 98 99 99 98 98 98 98 98 99 99 98 98 98 98 94 92 92 91 91 87 93 99 98 72 65 59 64 66 68 80 88 97 100 100 99 98 91 99 96 98 69 66 84 87 70 75 89 82 78 82 77 70 65
97 97 97 97 98 98 98 99 99 99 98 99 98 98 98 96 95 95 96 94 88 95 99 100 84 74 66 66 71 77 76 84 94 98 100 98 80 88 99 98 74 57 53 52 74 81 84 83 78 75 80 71 56 44
96 96 96 95 95 96 97 99 100 100 98 98 98 96 97 96 93 93 91 92 94 95 100 100 96 87 72 76 92 91 91 95 94 98 100 99 97 88 100 99 73 63 51 73 72 77 86 78 84 71 56 46 48 35
94 94 94 95 94 94 94 95 98 99 99 99 96 99 94 98 97 95 96 91 97 95 98 98 97 98 77 100 100 96 100 97 95 98 99 98 96 99 99 87 70 58 58 70 75 74 80 78 67 49 42 36 41 43
93 94 95 95 94 95 96 94 94 98 99 99 99 95 95 97 99 99 93 97 95 94 99 100 98 94 89 99 100 97 99 100 98 100 100 97 99 99 90 83 69 62 71 74 70 73 76 76 70 38 41 44 46 51
92 94 94 95 95 95 95 96 94 98 99 98 95 99 100 100 96 96 92 99 99 100 98 100 98 98 91 100 100 100 100 100 100 98 98 100 99 92 80 67 67 72 65 67 73 77 64 48 46 45 48 53 56 62
91 93 93 94 93 96 98 98 98 98 93 98 100 100 98 94 96 99 100 100 99 100 100 99 98 97 93 98 100 100 100 100 98 96 96 98 98 90 74 72 68 66 61 53 42 42 42 43 48 55 67 71 69 75
91 92 92 94 92 94 95 93 90 96 100 99 98 97 96 95 99 100 100 100 100 99 100 100 100 98 100 96 99 100 98 100 96 95 100 96 88 80 75 67 61 41 38 38 38 41 45 50 60 67 70 71 75 84
91 92 93 93 93 90 91 93 92 94 92 94 95 99 99 100 100 99 99 99 100 100 100 100 100 100 99 99 100 100 100 98 99 100 97 95 74 75 73 52 46 46 55 55 47 55 56 60 68 73 79 78 92 89
91 93 94 95 95 92 87 86 85 84 91 99 100 99 100 99 99 99 99 100 100 100 100 100 100 100 100 100 100 99 99 99 99 99 96 97 76 65 66 58 51 54 66 56 56 61 64 77 85 90 98 95 97 98
89 89 90 92 93 90 86 85 85 85 96 98 99 99 99 100 100 100 100 100 99 100 100 100 100 100 100 99 100 99 99 98 99 99 100 98 84 71 71 64 65 69 86 79 71 71 84 88 92 88 90 91 91 97
85 88 94 91 91 88 86 86 91 92 97 95 93 97 100 100 100 100 100 100 99 100 100 100 100 100 99 99 99 99 99 98 99 100 97 84 78 77 76 74 74 72 69 69 71 71 75 86 90 82 85 96 96 96
86 96 90 82 82 82 80 92 96 85 97 93 98 100 99 96 98 99 100 100 98 100 99 100 99 98 100 99 98 100 99 100 97 96 96 77 75 74 69 65 75 70 72 76 76 76 76 80 89 95 91 82 89 91
91 96 87 84 88 86 92 93 98 94 90 90 99 99 99 100 99 100 100 100 100 99 99 99 97 99 98 98 99 100 98 96 95 92 85 73 71 71 67 71 71 76 76 75 84 76 78 91 88 88 89 89 90 91
95 94 92 88 89 94 93 94 90 91 97 98 98 97 96 99 99 99 100 100 98 98 98 98 97 99 97 96 98 100 100 97 93 78 74 67 66 67 70 73 72 74 76 78 79 89 90 82 87 90 88 90 91 90
90 91 93 92 87 97 94 95 88 91 84 98 91 97 98 97 99 100 100 100 99 99 98 97 97 97 96 96 96 97 97 94 94 93 93 83 79 72 76 83 92 84 86 81 84 89 92 92 93 92 92 96 99 97
92 94 91 93 97 87 93 91 92 94 94 94 96 94 96 97 88 88 92 98 100 99 97 96 98 96 88 91 93 93 87 80 86 94 94 93 91 91 91 87 84 93 93 94 96 93 95 93 90 94 99 99 99 98
98 89 99 98 99 99 96 94 95 94 95 92 94 95 95 94 91 95 95 94 96 94 88 92 86 91 90 84 83 81 78 71 72 87 86 91 92 94 94 95 94 93 94 93 92 90 90 92 97 99 99 97 98 99
93 98 100 100 99 98 95 96 86 85 87 94 93 93 88 90 89 94 86 85 94 85 83 83 79 75 78 71 66 72 74 74 92 91 88 91 92 91 91 91 93 92 92 91 94 94 94 99 99 99 96 92 93 98
96 99 99 99 99 98 99 87 92 91 92 90 87 83 93 85 94 93 95 95 98 96 95 94 90 91 89 77 94 95 91 90 92 91 90 92 95 91 91 90 90 88 91 94 94 93 92 92 94 98 93 92 96 98
99 100 98 98 99 98 97 91 82 94 93 93 87 94 97 96 97 95 91 99 93 95 95 93 91 88 91 95 94 92 85 87 93 94 91 90 92 92 90 90 92 97 89 94 93 94 94 94 95 95 93 94 98 98
97 98 98 97 97 98 94 97 96 93 92 87 92 98 95 96 95 92 96 98 99 97 98 98 96 92 89 88 92 93 95 89 86 95 92 90 96 96 96 95 94 90 90 93 95 94 93 91 92 94 96 98 98 98
97 97 95 86 96 97 98 98 97 95 93 92 97 96 96 98 93 98 94 94 95 96 94 90 85 86 90 86 88 95 88 90 93 85 88 94 89 87 93 96 95 94 88 92 93 94 95 95 94 95 94 95 98 98
92 94 97 98 98 95 92 93 92 90 90 93 92 94 92 90 98 97 94 94 94 95 96 88 89 95 94 96 98 96 97 94 90 86 86 88 87 92 86 90 90 86 87 89 90 91 93 94 95 96 96 96 97 97
97 94 92 95 93 93 91 89 90 93 95 93 92 94 99 91 98 97 96 96 96 95 96 95 97 97 96 95 96 97 96 97 93 96 99 98 93 92 88 89 89 88 89 90 88 87 88 93 95 95 95 97 96 96
94 96 94 93 94 96 100 100 99 96 97 96 95 92 92 96 98 96 97 97 97 98 98 98 98 97 99 99 98 94 98 98 99 100 100 100 96 96 91 90 91 90 91 92 90 88 87 89 90 95 96 96 96 96
92 86 82 85 91 99 99 97 91 91 92 90 95 96 97 98 99 97 96 97 97 96 96 98 98 98 99 99 99 100 99 98 98 98 98 99 99 99 97 93 90 91 93 92 91 92 94 94 95 96 95 95 96 96
90 97 81 86 99 98 90 88 89 86 97 87 91 96 98 98 100 99 97 98 98 98 100 99 100 99 98 98 98 99 96 97 96 96 97 98 99 98 96 94 90 92 95 98 91 93 95 96 96 96 96 96 96 96
86 89 87 92 93 94 92 95 91 88 91 94 98 98 98 98 99 99 96 96 96 98 99 99 99 99 98 95 98 95 94 96 96 93 88 97 92 97 96 94 94 95 99 96 94 95 95 96 96 96 96 97 98 98

GFSWCAN_sfc_rhum_024.txt.gz
RH
94 94 94 94 96 98 96 96 97 97 96 96 95 94 92 94 94 82 90 91 80 94 89 85 80 74 79 81 87 78 75 83 99 88 92 98 98 86 85 76 84 88 95 98 98 98 81 58 58 64 67 84 83 87
94 94 94 94 95 95 95 96 96 96 94 95 96 95 93 93 93 92 77 89 90 88 87 81 82 83 81 71 83 81 63 84 88 97 98 99 98 100 90 88 70 67 71 84 78 80 60 60 60 64 78 85 84 84
95 94 94 94 95 95 95 96 96 96 96 95 98 99 96 93 92 90 92 96 92 97 88 85 85 72 66 76 73 78 93 78 89 86 99 98 87 98 98 96 84 63 68 90 79 62 65 62 86 83 84 85 80 76
95 95 94 94 95 95 95 96 97 98 98 99 98 98 99 94 93 89 92 97 92 99 100 92 69 74 63 69 68 72 78 92 93 94 100 100 94 84 95 77 87 66 68 70 82 70 82 82 85 82 82 80 75 68
97 96 96 96 95 95 95 97 99 100 98 99 99 99 98 94 94 94 97 97 94 79 97 98 79 69 66 70 76 80 83 89 97 100 100 97 98 95 99 98 98 75 64 84 86 63 66 83 85 82 84 78 70 68
98 99 99 98 98 98 98 98 99 98 98 98 97 97 97 94 97 95 94 96 92 95 94 90 91 81 73 74 82 80 87 94 96 97 100 99 90 87 99 98 84 74 63 62 72 79 83 87 86 81 79 74 66 49
96 97 97 98 99 99 99 99 98 99 98 98 96 99 99 96 91 91 82 93 95 93 98 99 99 90 81 87 95 94 93 96 95 100 99 100 98 94 100 98 76 67 61 76 80 81 89 86 88 77 68 58 47 44
97 96 96 96 95 96 98 99 99 99 98 97 97 97 97 98 94 97 98 95 99 95 95 99 98 94 82 100 100 99 99 98 96 97 100 99 98 99 100 92 78 65 66 85 83 81 81 77 69 51 43 42 47 50
97 97 96 96 95 95 94 97 99 99 99 96 97 93 94 98 99 99 98 99 97 90 100 100 94 90 91 99 100 98 99 100 98 100 100 98 100 98 89 87 81 78 78 86 83 81 74 69 45 43 45 50 53 59
95 96 96 95 95 96 94 96 99 99 100 94 94 97 99 100 93 96 94 98 99 100 98 100 99 99 94 100 100 100 100 100 100 99 97 100 99 92 88 83 74 75 75 76 88 89 70 55 51 53 55 56 57 60
94 95 93 93 98 98 98 99 99 97 88 96 100 100 98 90 95 99 99 99 99 100 100 100 99 99 95 98 100 99 100 100 94 93 97 98 97 91 79 82 76 70 58 55 57 52 50 52 61 68 68 70 69 70
94 93 93 93 92 92 93 91 90 97 99 96 97 95 93 94 98 100 100 100 100 99 99 100 100 98 100 96 99 100 99 99 97 96 100 99 88 88 67 52 48 45 43 46 49 55 58 59 60 68 71 72 72 81
95 96 94 92 89 89 91 92 93 94 92 95 95 98 97 99 100 100 99 99 100 100 100 100 100 100 99 99 100 100 100 98 99 100 99 96 81 64 50 48 48 48 59 58 52 58 64 63 64 65 72 72 89 85
93 94 96 95 92 89 88 87 88 88 92 99 100 99 100 99 99 99 99 100 100 100 100 100 100 100 100 100 100 99 99 100 99 99 97 98 96 80 58 58 50 54 68 61 62 60 62 76 82 87 93 93 95 94
90 90 90 92 90 88 86 83 88 87 94 98 94 99 99 98 98 99 100 100 100 100 100 100 100 100 100 99 99 99 98 98 99 99 100 99 87 76 72 66 64 72 85 78 69 72 81 86 90 84 87 90 91 94
84 88 96 89 85 85 84 88 90 91 96 91 91 94 99 95 99 100 100 100 99 100 100 100 100 99 99 99 98 98 98 98 99 100 99 86 78 78 77 77 78 72 66 67 70 71 76 88 89 79 82 92 93 95
85 99 86 82 89 85 86 92 94 92 98 83 99 100 100 98 99 100 100 100 99 100 99 99 98 97 99 98 98 99 99 99 99 97 96 84 80 78 72 71 82 77 76 77 77 78 78 81 91 97 92 80 84 88
100 97 89 90 89 89 90 94 97 93 97 99 99 100 99 100 100 100 100 100 99 99 98 98 97 98 98 98 98 99 99 98 97 93 86 77 76 73 71 69 71 73 74 75 86 79 79 92 86 87 84 85 91 92
98 97 92 90 90 95 93 92 91 91 97 98 98 98 99 99 99 99 100 100 99 99 97 98 95 99 98 98 98 100 100 96 90 80 77 71 72 73 74 77 77 75 76 78 79 90 90 84 90 92 92 95 95 96
89 91 91 89 85 96 91 92 91 89 92 95 96 98 98 97 98 100 100 100 99 99 96 97 97 97 96 96 98 98 99 97 94 94 94 86 84 76 77 82 93 85 89 85 88 94 92 93 92 92 93 95 99 97
94 95 90 93 97 92 95 95 90 94 93 96 98 94 96 93 93 97 96 98 99 100 98 98 99 97 90 93 96 97 90 83 90 94 94 94 90 96 92 90 90 95 96 95 96 92 95 95 90 90 99 98 98 98
98 88 99 99 98 96 94 94 95 94 93 94 97 94 96 91 90 90 96 90 92 95 94 96 92 96 92 86 89 87 81 80 85 91 93 94 96 97 97 98 96 97 97 98 97 95 95 95 94 97 96 94 93 92
94 98 99 98 98 96 94 96 85 85 92 96 97 95 94 96 97 92 86 83 95 94 93 91 82 81 87 92 87 88 91 93 95 95 95 98 99 96 95 94 95 97 94 86 87 86 93 92 89 92 88 95 99 95
91 97 100 100 98 98 98 98 95 94 94 92 95 91 92 90 93 90 99 96 98 97 96 96 95 94 95 90 91 91 90 88 91 94 93 91 94 93 95 96 95 92 91 90 90 92 91 92 90 89 91 92 92 92
96 90 93 100 99 97 98 98 97 95 99 97 95 100 97 97 100 100 97 98 98 98 98 94 90 92 94 95 94 90 86 82 90 95 91 95 99 95 91 87 89 95 90 92 92 93 92 90 90 91 92 93 93 94
100 95 97 94 98 98 96 98 97 96 96 97 96 98 99 98 98 97 96 98 99 99 99 97 98 96 91 89 88 86 88 90 95 97 94 91 91 96 98 98 95 93 89 92 95 94 93 91 91 91 92 89 92 95
100 97 97 95 99 98 98 98 98 98 97 97 97 98 97 100 100 96 96 95 95 98 91 91 88 91 90 96 92 90 90 89 94 89 95 87 87 86 93 98 96 94 90 92 94 95 95 94 92 92 92 90 90 95
95 96 95 97 98 98 98 98 97 96 96 95 93 98 96 93 97 97 94 96 98 92 88 91 93 95 97 95 96 96 94 92 89 90 89 91 91 97 97 98 97 94 95 93 94 93 92 94 94 93 93 93 94 96
98 98 96 97 96 96 95 94 94 97 98 95 93 99 96 90 98 96 96 97 94 93 95 96 96 95 94 95 99 98 98 96 90 99 100 100 100 96 99 99 99 91 90 94 94 90 88 92 94 94 95 96 96 96
95 98 96 97 96 97 98 99 99 98 97 99 95 94 92 97 97 97 97 96 95 97 97 96 98 97 100 100 100 98 99 100 100 100 100 100 99 98 100 98 92 91 94 95 95 91 94 90 93 92 94 95 96 96
98 97 86 86 95 100 100 96 94 89 91 90 97 96 94 98 98 98 97 98 98 97 97 100 100 100 100 100 100 100 100 98 99 98 100 100 99 100 100 98 98 97 97 96 98 96 95 95 97 96 96 96 96 96
92 95 86 93 98 98 91 87 91 91 97 90 97 99 98 98 100 98 98 98 97 100 100 100 100 100 99 99 100 100 100 100 100 100 100 99 100 100 100 99 100 100 98 100 99 99 96 98 98 98 99 98 97 98
94 99 98 98 96 97 97 94 97 94 99 99 98 99 98 96 98 98 99 99 97 100 100 100 100 100 100 99 98 99 100 100 100 100 100 100 97 100 100 100 100 100 100 100 100 100 100 100 100 98 99 99 98 99

GFSWCAN_sfc_rhum_027.txt.gz
RH
93 93 96 98 98 98 96 96 96 96 96 96 96 95 94 95 94 83 94 94 79 96 92 87 83 78 81 81 84 77 77 82 92 83 87 95 96 88 86 76 90 94 97 98 98 97 73 55 60 65 64 80 83 84
94 94 97 98 98 96 96 96 96 95 96 97 98 97 94 95 95 83 87 95 93 89 89 85 83 84 85 65 85 83 69 79 84 93 98 99 100 99 90 84 74 76 70 83 77 77 58 60 68 66 75 83 87 86
94 94 96 96 95 96 96 96 96 96 99 98 98 98 94 95 93 87 96 97 89 96 90 86 87 77 69 79 75 77 94 80 87 86 97 99 84 97 97 96 86 72 67 86 75 57 65 62 71 83 82 83 85 81
94 94 95 95 96 96 96 96 97 99 98 98 99 97 94 94 92 89 97 98 88 94 99 91 76 77 67 75 79 73 85 92 93 95 99 100 88 84 94 79 90 73 75 74 84 71 81 78 81 83 86 83 81 78
95 95 95 96 96 96 97 99 99 99 98 98 98 97 93 93 90 88 95 98 95 73 97 99 82 74 72 79 84 82 82 89 96 99 100 96 96 96 99 98 98 76 72 85 81 65 72 67 82 84 87 83 78 70
95 96 96 96 96 96 99 98 99 99 99 97 98 99 98 95 94 80 82 92 96 91 92 93 92 86 79 86 89 92 93 94 94 97 100 98 89 89 99 98 83 75 72 61 66 68 75 86 89 84 82 80 63 47
98 98 98 98 98 99 99 99 99 99 99 99 99 99 94 89 92 83 71 95 98 91 96 100 99 89 89 90 96 95 94 98 96 99 99 99 99 95 100 99 73 71 69 70 79 86 92 90 92 84 77 57 50 44
96 97 98 99 99 99 99 99 99 98 98 97 98 99 97 94 94 94 98 98 98 90 92 96 97 94 87 100 100 98 100 97 98 98 100 99 99 100 99 89 85 76 76 85 89 85 84 85 85 68 44 43 48 53
97 96 96 96 97 99 99 99 99 98 97 95 93 91 92 98 100 98 96 98 97 88 100 99 90 90 94 99 100 99 98 100 98 100 100 98 100 99 92 87 84 84 85 85 88 86 82 76 53 45 49 54 57 61
97 98 98 96 95 96 99 99 99 99 95 91 92 93 100 100 90 92 91 94 97 98 100 98 98 99 96 100 100 99 99 100 99 99 98 100 99 92 86 83 85 81 78 88 92 92 63 59 63 67 67 57 57 62
95 95 95 96 97 98 98 99 98 91 90 96 99 100 98 89 94 99 98 97 99 98 99 100 99 98 97 99 100 99 98 100 94 93 99 95 96 91 74 64 70 67 70 63 63 64 71 85 94 82 71 73 72 69
91 91 91 92 94 94 94 94 90 96 99 94 96 94 93 94 98 99 98 100 99 99 99 100 100 99 100 96 99 100 99 99 97 94 100 91 94 70 61 61 63 69 76 82 82 88 89 78 70 72 76 76 71 77
97 95 93 91 91 91 93 96 96 95 91 92 92 98 97 100 99 100 98 99 99 100 100 100 100 100 98 98 100 99 100 99 98 99 99 99 76 72 75 76 81 84 89 90 86 81 77 70 70 68 72 69 87 80
92 91 90 88 89 89 88 89 90 91 94 98 100 98 99 99 99 99 99 99 100 100 100 100 100 100 100 99 100 99 99 99 99 99 98 100 99 94 66 66 53 63 77 69 66 64 68 80 82 88 91 94 93 92
91 91 89 88 88 87 86 86 88 84 93 97 95 98 99 99 99 100 100 100 100 100 100 100 100 99 99 99 99 99 98 98 98 98 99 100 96 79 71 75 81 75 86 77 67 72 83 86 89 84 86 89 88 95
86 87 92 90 91 86 87 87 89 85 93 91 94 99 100 99 100 100 100 100 99 100 100 100 99 99 99 99 98 98 97 98 98 99 99 92 88 91 94 94 78 74 74 76 76 75 78 89 90 79 85 91 93 95
90 99 93 89 88 85 85 90 94 93 94 86 99 100 99 98 99 100 100 100 99 100 99 99 97 96 99 98 98 99 98 99 100 98 98 86 83 81 78 79 87 78 75 75 75 74 76 81 94 94 89 78 84 88
98 99 93 90 90 86 89 94 94 90 98 100 99 100 99 100 100 100 100 100 99 98 98 96 95 98 98 97 98 100 99 97 97 98 94 81 79 76 73 75 74 75 73 75 87 80 81 94 87 88 84 85 90 92
94 96 92 90 89 93 94 92 90 95 99 99 99 99 99 99 98 100 100 100 99 99 96 97 95 99 98 98 98 100 100 97 92 83 80 79 77 76 77 78 78 80 82 83 86 93 93 89 93 95 93 93 94 93
87 90 91 89 84 94 85 92 90 89 96 97 97 98 98 98 99 99 100 100 99 98 95 97 97 97 96 96 98 98 98 98 95 96 95 89 92 89 93 95 96 95 94 93 94 97 94 94 91 92 92 97 98 97
92 94 91 94 96 92 94 96 89 92 93 97 97 94 98 96 96 97 95 98 95 100 98 98 98 98 94 96 98 97 90 86 92 95 96 97 98 97 97 96 95 94 98 98 93 87 84 90 89 90 90 89 87 84
96 92 99 95 96 92 92 93 93 95 93 98 96 93 97 98 97 96 96 89 92 97 96 94 90 93 90 94 98 97 93 91 92 94 96 96 95 95 94 97 96 96 91 87 86 91 92 91 91 90 91 90 86 88
94 95 97 95 94 92 96 96 87 83 92 98 98 96 96 97 98 92 91 80 94 96 98 97 92 89 91 84 81 83 87 87 93 93 94 97 96 98 99 90 94 97 96 91 90 92 94 94 91 94 92 92 88 87
86 95 98 98 95 99 97 98 98 98 95 96 98 94 92 95 95 96 99 97 96 90 92 96 96 94 91 86 88 87 83 83 91 93 96 97 96 92 91 93 95 95 89 88 92 96 94 94 94 92 92 92 91 92
89 88 92 100 98 97 99 100 98 98 100 96 92 95 98 96 100 99 100 98 98 97 95 92 93 90 92 92 88 82 79 83 92 93 90 90 96 92 89 86 92 90 90 95 95 95 94 93 92 92 92 92 94 92
98 98 98 98 97 98 98 100 99 96 97 97 97 97 97 97 96 99 95 97 98 98 98 97 96 94 89 88 89 85 82 86 91 95 88 86 89 97 99 99 96 94 90 100 99 98 96 93 93 94 93 90 91 93
100 97 97 97 98 98 98 97 98 98 97 97 98 98 97 97 98 97 95 96 97 97 94 92 89 89 89 88 82 86 90 90 94 93 88 86 85 85 94 100 98 94 90 94 99 100 99 97 96 95 95 92 90 94
97 97 96 96 98 98 97 98 97 97 98 97 97 97 96 95 96 96 96 96 97 94 92 93 94 93 92 91 94 96 90 92 95 93 94 94 94 100 99 99 98 98 97 98 100 98 99 97 97 95 95 95 96 95
98 98 98 97 97 98 97 97 98 97 97 97 95 99 97 90 98 98 96 97 96 94 96 96 97 97 96 97 98 99 99 96 92 100 100 100 100 98 99 100 100 99 99 100 100 96 94 94 96 96 95 97 98 98
98 98 96 97 96 97 99 98 98 99 98 97 94 92 91 98 97 96 97 95 96 97 97 97 99 98 100 100 100 100 99 100 100 100 100 100 99 98 100 100 100 100 100 100 100 94 100 99 100 100 96 97 96 96
98 97 87 85 98 99 99 99 97 97 98 97 97 96 94 98 98 97 97 98 97 99 98 100 100 100 100 100 100 100 100 99 100 100 100 100 100 100 100 100 100 100 100 100 100 100 100 100 100 100 100 100 100 100
95 97 98 88 97 97 97 95 98 100 94 95 98 96 100 98 100 99 98 98 99 100 100 100 100 100 100 100 100 100 100 100 100 100 100 100 100 100 100 100 100 100 100 100 100 100 100 100 100 100 100 100 100 100
98 100 99 100 98 98 98 92 97 99 97 97 98 98 99 97 98 97 98 100 98 100 100 100 100 100 100 99 97 100 100 100 100 100 100 100 100 100 100 100 100 100 100 100 100 100 100 100 100 100 100 100 100 100

GFSWCAN_sfc_rhum_030.txt.gz
RH
94 97 98 96 95 96 96 96 97 96 96 97 97 97 96 94 90 86 94 95 82 98 93 87 85 80 82 81 85 80 77 82 90 81 86 90 91 87 84 73 95 92 97 98 96 96 73 54 60 64 64 74 81 81
97 98 98 97 98 97 95 96 97 98 99 99 99 98 96 93 93 84 87 96 94 91 92 87 85 85 86 65 85 86 71 80 82 90 96 98 99 97 89 80 81 77 73 85 76 77 57 56 70 68 68 68 83 84
98 98 98 97 97 96 96 96 99 98 99 99 98 96 95 95 90 88 96 97 89 96 92 88 89 80 73 83 76 77 92 78 83 83 96 98 80 96 94 95 86 76 68 83 74 56 66 66 63 74 74 78 83 84
95 95 95 96 96 96 97 99 98 99 99 99 96 95 93 93 92 91 96 99 84 94 99 91 80 80 74 84 82 75 84 90 93 94 100 99 85 86 94 82 89 76 74 73 81 71 74 68 77 69 82 84 86 83
96 96 96 96 97 98 99 99 99 98 98 98 96 95 92 90 87 88 97 99 96 66 98 99 85 79 80 86 85 82 80 87 95 99 100 93 96 94 99 98 97 77 72 84 78 57 63 62 73 85 86 87 84 80
96 97 96 97 99 99 99 99 98 98 99 99 98 98 93 98 87 70 77 92 98 91 93 94 93 90 87 87 90 93 95 94 95 98 100 98 93 90 99 98 78 71 72 63 62 69 72 82 86 88 87 85 74 62
97 97 97 98 99 99 99 99 98 99 99 99 95 91 88 88 91 76 72 94 96 91 96 100 99 90 90 92 98 97 97 98 96 99 99 98 100 96 99 99 69 68 70 74 80 87 87 91 86 86 81 59 50 47
99 99 99 99 99 99 99 99 98 98 98 97 98 94 92 93 94 94 98 97 98 85 91 95 98 94 92 100 99 97 99 98 98 98 100 99 98 100 99 92 85 81 83 83 85 89 86 88 86 58 49 44 52 64
98 99 99 99 99 99 99 99 98 97 95 93 91 90 90 97 100 98 94 94 95 85 98 97 89 90 94 99 99 99 98 100 98 100 100 98 100 99 98 94 90 88 89 87 90 89 76 66 52 52 62 77 87 88
98 96 97 99 99 99 99 99 99 95 92 89 89 90 100 100 90 88 87 91 96 98 99 100 98 99 95 100 100 100 99 100 99 99 98 100 100 91 71 69 76 87 91 91 93 75 70 79 92 95 97 95 82 68
97 98 98 98 99 99 99 99 94 90 88 95 100 100 98 89 92 97 98 95 97 94 99 100 99 98 97 99 100 99 99 99 94 94 98 98 96 89 73 91 91 88 87 90 90 90 91 96 96 94 90 86 86 79
94 94 95 97 97 96 94 92 90 97 99 93 96 94 92 94 97 92 99 100 98 97 100 100 100 99 100 97 99 100 98 98 98 92 99 96 86 68 86 92 93 92 94 93 94 96 97 96 96 96 93 84 78 80
91 91 91 92 95 96 95 94 92 90 91 91 92 93 93 99 99 93 99 100 100 100 100 100 100 100 99 98 100 99 99 99 99 99 99 100 87 96 96 92 88 91 94 94 92 93 94 91 83 76 74 69 87 80
88 88 90 90 89 91 94 94 91 90 90 98 100 99 99 97 99 99 99 99 100 100 100 100 100 100 100 99 100 99 100 99 98 99 98 99 100 97 69 71 65 75 84 73 68 66 74 87 86 89 91 94 93 92
89 90 84 89 89 88 86 88 88 89 95 99 98 98 98 99 99 100 100 100 100 100 100 100 100 98 99 99 99 99 98 98 98 97 98 99 100 81 97 96 83 76 86 80 74 78 88 89 91 85 86 89 88 95
85 87 97 92 90 86 84 82 86 85 94 94 97 99 100 99 100 100 100 100 99 100 100 99 99 98 98 99 98 98 96 98 98 99 100 99 99 98 98 99 82 80 80 79 78 76 79 90 91 82 88 91 93 95
90 99 94 90 89 83 84 88 92 88 90 94 99 100 99 99 100 100 100 100 99 100 99 98 97 96 98 98 98 99 97 99 100 98 99 92 87 90 95 87 89 79 75 76 76 79 81 86 94 92 90 87 90 91
97 98 91 89 88 83 90 92 92 89 98 99 99 100 99 100 100 100 100 100 98 97 97 96 94 97 98 97 99 99 99 99 99 99 97 86 82 81 78 79 80 80 82 86 92 92 94 95 96 98 95 93 92 92
94 93 90 88 87 92 91 92 90 96 99 99 99 99 99 99 99 100 100 100 99 99 97 97 95 99 99 98 99 97 99 99 96 91 88 88 85 85 88 90 91 94 94 96 96 96 94 93 85 84 90 90 93 88
87 86 90 88 81 91 86 93 90 90 96 99 98 98 98 99 99 99 99 99 99 98 95 96 97 97 97 97 98 99 99 98 95 96 97 98 98 93 94 94 96 95 94 92 90 88 84 86 84 81 83 83 88 89
90 94 91 92 95 90 96 96 89 94 94 96 97 94 98 96 96 96 96 96 94 100 97 99 99 99 96 97 98 98 94 89 94 96 97 97 98 93 94 95 92 91 89 89 93 95 93 94 90 89 93 94 93 92
95 89 99 92 94 89 94 95 94 96 95 98 96 94 98 98 98 97 95 93 95 98 99 97 95 94 92 94 93 94 92 88 88 89 89 93 98 98 92 89 91 96 95 96 95 98 97 89 90 91 94 94 93 91
94 92 94 90 87 88 96 96 91 85 93 99 98 95 97 98 99 92 94 88 98 94 94 93 90 88 89 80 74 78 81 80 89 93 95 97 94 96 88 92 93 96 95 88 88 92 95 95 92 94 93 92 92 93
85 93 97 97 97 100 96 99 98 97 95 97 98 96 93 97 96 97 97 97 96 90 91 93 89 91 86 79 82 80 83 86 90 92 95 95 92 89 90 92 94 94 87 85 90 95 94 97 98 94 94 94 93 94
85 97 95 99 94 96 100 100 97 97 100 97 96 96 99 97 100 95 97 98 97 97 96 94 94 91 91 94 90 85 79 88 92 90 86 84 91 90 88 82 90 92 91 99 98 99 97 96 98 96 94 95 96 95
99 98 99 100 100 95 99 100 100 99 99 100 98 98 98 98 98 99 95 98 98 98 98 98 97 94 92 90 89 87 79 83 92 92 87 82 85 95 98 99 99 96 94 100 100 100 100 97 97 98 97 95 95 96
100 97 97 96 96 97 98 98 97 98 99 98 98 98 97 97 97 96 95 96 95 97 94 95 91 89 87 85 79 81 88 94 96 90 87 85 87 87 97 100 100 95 94 98 100 100 100 100 100 98 97 94 95 97
97 99 96 95 99 98 98 98 97 97 98 98 97 97 97 97 95 96 94 95 96 92 92 93 91 90 89 90 93 93 94 96 95 95 94 94 96 100 99 100 98 100 100 100 100 100 100 100 98 97 97 97 100 99
98 99 97 98 97 97 98 98 97 97 97 97 97 97 97 90 96 95 94 96 96 94 95 95 97 97 96 95 97 97 97 97 93 99 100 100 100 98 99 100 100 100 100 100 100 100 98 99 99 100 100 100 100 100
97 98 98 98 97 92 98 99 98 98 98 97 93 89 89 96 97 96 96 96 96 97 98 99 99 99 100 100 100 100 100 100 100 99 100 100 99 98 100 100 100 100 100 100 100 98 100 100 100 99 98 98 99 100
99 98 93 89 98 98 99 99 99 98 98 97 97 96 94 98 98 97 97 98 98 98 100 100 100 100 100 100 100 100 100 99 100 100 100 100 100 100 100 100 100 100 100 100 100 100 100 100 100 100 100 100 100 100
96 98 99 93 97 97 100 99 100 99 98 98 98 97 98 97 100 98 99 98 98 100 100 100 100 100 100 100 100 100 99 100 100 100 100 100 100 100 100 100 100 100 100 100 100 100 100 100 100 100 100 100 100 100
98 100 100 100 98 98 97 95 99 100 96 98 99 99 99 98 99 98 98 100 98 99 100 100 100 100 100 100 99 100 100 100 100 100 100 100 100 100 100 100 100 100 100 100 100 100 100 100 100 100 100 100 100 100

GFSWCAN_sfc_rhum_033.txt.gz
RH
95 97 97 96 95 95 98 96 96 96 96 97 96 95 92 88 92 90 98 95 80 96 93 86 81 77 77 76 83 80 75 80 86 90 93 81 89 74 66 60 84 78 90 94 90 83 71 46 50 62 56 55 58 65
98 97 95 97 98 97 97 97 98 98 99 98 98 96 90 85 90 89 96 97 90 89 91 86 81 82 83 64 80 83 70 76 76 86 90 93 99 98 82 75 72 71 68 74 66 67 52 47 58 54 57 57 57 68
98 96 98 98 96 97 99 98 98 98 98 98 97 96 91 86 89 90 95 95 86 97 87 84 86 78 75 82 76 76 84 74 74 75 89 93 91 88 93 84 78 68 62 72 68 50 55 54 52 55 56 61 58 65
98 97 96 96 98 98 98 98 99 99 98 96 96 94 92 92 93 87 89 97 83 92 100 90 78 81 76 84 79 75 80 84 85 83 98 98 96 78 88 73 79 66 66 67 68 60 59 54 61 59 58 67 68 69
97 97 97 98 98 99 98 98 99 99 99 94 93 94 93 92 90 91 95 98 93 68 98 98 83 78 80 84 79 76 75 81 89 96 100 96 89 91 96 90 88 70 66 78 76 54 55 54 55 66 72 71 71 74
97 98 98 99 98 99 99 98 99 99 99 98 94 94 95 94 90 80 74 89 93 88 93 100 89 87 85 84 87 90 89 88 87 91 99 92 92 88 100 90 72 64 65 60 60 61 60 62 67 71 73 75 69 62
98 98 98 98 99 98 98 99 99 98 94 92 91 91 92 91 88 71 69 89 95 89 96 98 99 86 90 89 96 94 94 94 89 96 99 97 96 86 99 91 87 79 76 76 72 74 75 75 78 75 59 52 52 50
99 98 98 99 98 98 99 99 97 96 94 93 92 92 92 92 93 93 97 94 94 79 87 95 98 96 89 100 99 96 99 94 97 98 98 99 98 100 99 82 74 75 77 77 83 81 82 68 50 47 48 59 78 88
99 99 99 99 99 99 99 99 96 94 93 91 92 92 90 96 99 95 92 92 90 80 92 94 90 93 90 99 99 99 95 100 96 100 99 94 100 99 80 77 83 85 91 90 68 56 56 68 70 74 79 84 90 97
99 99 99 99 99 99 99 99 95 93 91 88 88 88 98 100 91 87 84 89 94 97 97 100 94 100 89 100 100 100 100 100 97 98 96 100 99 73 89 94 93 93 88 80 80 83 92 96 95 97 98 99 98 96
98 99 99 99 99 99 96 94 93 87 86 94 100 100 98 88 87 93 98 95 95 95 98 99 98 97 94 99 100 99 100 100 95 88 99 97 98 76 91 96 91 92 90 92 92 94 96 95 99 99 100 98 94 91
95 97 98 97 96 95 96 96 92 94 99 93 96 92 90 91 93 96 100 100 97 97 100 100 100 97 100 94 97 99 99 94 97 86 97 96 83 91 96 96 96 95 94 95 94 94 92 90 89 93 93 91 84 80
94 94 94 96 95 93 92 91 90 90 89 89 90 94 92 98 98 89 99 98 100 100 100 100 100 100 98 96 100 100 100 99 94 99 96 97 88 99 92 84 87 86 91 91 89 88 88 88 83 80 78 74 86 80
92 93 94 94 95 96 92 88 87 87 90 97 94 97 95 97 99 99 99 100 100 100 100 100 100 100 100 100 100 100 100 99 98 97 96 99 99 78 66 70 63 68 82 72 67 67 74 79 79 87 91 90 92 84
91 87 88 94 93 92 92 92 88 89 95 99 93 98 98 99 99 99 100 100 100 100 100 100 100 98 100 99 98 98 98 96 93 94 97 98 96 77 97 78 71 76 86 80 71 77 88 88 86 82 85 85 85 92
86 86 92 93 89 84 82 83 88 90 96 98 97 97 99 99 100 100 100 100 99 100 100 100 100 98 98 97 96 96 94 93 95 97 97 97 94 98 99 97 80 81 75 74 75 76 81 90 92 84 86 91 94 94
87 99 90 90 86 81 80 86 90 86 96 98 99 100 100 100 100 100 100 100 99 100 100 96 95 95 94 97 97 94 93 91 98 98 98 98 98 99 97 96 87 81 80 82 85 88 90 90 95 92 90 80 84 85
97 97 88 86 82 80 89 88 89 91 98 98 98 99 99 100 100 100 100 99 98 98 93 94 90 95 96 97 98 96 98 98 98 99 97 85 83 85 82 82 84 86 89 92 95 90 84 84 78 78 77 73 76 78
93 92 87 84 82 87 89 91 88 96 99 99 99 99 99 99 98 99 100 99 98 95 95 92 93 97 97 93 96 94 96 95 94 88 87 90 88 88 87 86 84 84 88 81 76 75 73 75 75 72 72 72 78 78
84 85 86 82 78 89 86 93 88 90 97 98 97 97 98 98 99 98 97 96 93 94 93 95 95 94 93 94 93 95 95 88 85 93 96 91 85 82 83 82 83 80 77 76 76 77 72 71 69 71 75 77 85 86
88 93 88 88 92 90 96 94 91 94 94 95 96 94 98 96 97 96 95 91 93 98 98 95 98 96 95 94 91 89 90 83 86 87 94 90 87 82 79 80 77 75 78 83 85 82 84 81 77 75 86 90 89 89
99 88 96 87 90 91 95 96 93 94 95 97 94 91 96 98 98 98 94 91 94 95 93 96 93 90 88 89 85 82 81 80 80 82 85 87 90 86 82 77 76 85 82 84 81 88 85 77 80 83 88 90 87 86
88 89 94 88 88 92 97 92 91 86 89 99 94 92 95 97 97 90 95 88 95 93 94 92 93 92 90 85 74 75 73 76 85 89 88 88 87 86 85 83 81 86 83 75 74 77 84 89 84 91 88 88 88 91
82 94 96 98 99 100 95 98 93 94 95 95 96 96 93 97 93 94 94 96 94 93 94 94 92 90 82 75 80 83 82 75 81 85 85 83 85 84 81 83 84 83 78 78 81 88 87 92 95 89 91 93 93 94
86 97 96 95 94 97 100 100 97 92 100 97 97 98 99 96 98 90 91 94 93 95 94 94 93 90 88 91 88 87 85 86 86 86 78 75 81 77 74 69 79 79 81 91 94 96 95 93 92 93 92 94 95 94
99 98 98 100 98 97 99 100 100 100 99 98 96 95 97 96 95 95 91 95 96 95 97 97 95 91 88 85 86 86 79 82 79 83 80 72 74 83 86 87 87 82 82 97 100 99 97 94 95 96 96 92 94 96
100 99 96 91 87 93 97 96 94 97 99 98 96 97 97 96 96 93 93 92 92 94 92 92 92 90 89 83 79 88 90 89 88 83 80 77 77 76 85 91 92 84 87 94 99 100 100 100 100 97 96 93 93 94
96 98 98 96 100 98 98 99 97 97 97 96 96 96 95 95 93 92 91 92 93 90 89 89 88 86 87 87 87 91 92 92 92 91 89 87 88 93 94 93 92 100 97 97 99 100 98 100 99 96 96 97 96 94
98 99 96 99 98 98 100 99 99 99 97 96 96 95 94 89 94 93 91 92 93 92 92 92 95 94 93 92 94 94 94 91 84 92 96 96 95 91 92 97 96 95 97 100 100 99 98 97 97 99 94 96 95 94
97 98 97 97 97 91 98 98 98 98 96 96 91 89 88 93 94 93 93 94 94 97 97 97 98 97 99 97 100 98 99 100 97 94 97 99 96 94 98 100 100 99 100 100 97 94 100 98 96 92 94 94 95 95
99 98 95 92 98 97 98 100 98 98 98 96 97 96 94 96 96 95 94 96 96 97 96 100 99 100 99 100 100 99 98 96 100 100 100 100 100 100 99 100 100 100 100 100 99 98 100 99 99 99 96 96 96 97
96 97 99 97 97 97 97 98 100 98 97 97 98 97 98 96 100 97 97 96 93 94 100 100 100 100 100 100 100 100 99 100 100 100 100 100 100 100 100 99 100 100 100 100 100 98 100 100 100 99 100 99 98 98
98 99 98 100 100 99 100 94 99 100 97 98 99 99 98 97 98 97 96 97 94 94 98 99 99 100 100 100 98 98 99 99 100 100 100 100 100 100 100 100 100 100 100 100 100 100 98 100 98 100 100 100 98 96

GFSWCAN_sfc_rhum_036.txt.gz
RH
89 90 92 93 93 95 95 94 95 96 97 97 97 96 96 90 93 74 86 76 56 77 69 65 55 53 53 48 64 59 54 61 68 92 92 70 91 52 45 38 55 61 80 93 80 98 80 31 39 48 40 37 36 40
96 96 97 96 96 94 96 97 96 96 96 96 97 96 93 87 92 86 79 78 62 63 72 66 68 65 63 50 51 55 51 52 48 69 84 88 97 96 67 61 49 55 48 52 47 45 34 34 38 36 41 43 41 43
96 94 94 96 97 99 98 98 99 98 97 97 96 94 90 84 93 80 75 79 64 82 67 60 66 62 60 66 62 54 63 51 54 58 68 84 100 67 96 62 57 46 45 54 52 31 33 33 32 32 32 39 38 36
96 97 98 98 98 98 98 98 98 98 98 98 96 92 88 89 91 80 65 81 80 78 100 78 58 68 63 63 61 58 58 62 58 54 92 100 98 59 73 54 55 46 48 46 50 36 32 31 34 41 43 44 45 44
98 98 98 98 96 96 97 98 98 98 98 97 94 89 87 90 89 76 74 76 73 61 96 86 68 65 63 57 57 54 54 53 61 83 100 92 69 76 80 72 67 44 48 60 58 46 49 43 44 48 53 51 52 54
98 97 97 98 98 98 98 99 99 97 96 94 92 91 89 87 90 58 57 78 67 64 82 100 70 72 66 64 67 70 63 62 57 70 93 67 68 71 99 71 68 61 59 58 57 55 56 56 55 56 60 56 54 52
98 97 98 98 98 98 96 95 97 96 94 92 90 92 94 93 81 54 54 79 85 69 89 100 91 71 76 69 78 72 73 74 66 86 97 90 83 65 98 78 66 59 55 60 60 61 60 62 62 50 49 52 59 61
98 98 98 98 98 97 92 92 93 93 92 91 91 90 89 91 83 78 74 86 81 54 67 97 96 91 74 97 98 84 92 74 87 94 93 96 89 92 96 69 66 63 62 65 59 62 61 50 48 53 62 74 80 80
98 98 98 99 99 98 93 93 91 91 92 94 93 92 78 81 86 78 92 89 71 62 80 100 100 98 78 93 94 91 80 100 86 100 98 84 95 97 78 79 82 83 83 82 61 61 65 68 70 72 80 92 96 100
98 99 99 99 99 93 92 90 88 90 89 89 81 82 98 93 89 81 63 75 81 86 85 100 86 99 74 98 100 98 100 99 96 97 91 100 93 74 87 90 89 83 72 65 78 91 85 90 92 96 98 90 76 73
98 98 98 97 98 95 93 89 89 86 86 84 93 97 85 84 68 77 92 88 81 100 93 94 87 93 84 94 99 96 99 98 100 85 96 98 96 82 95 89 78 76 73 72 69 69 72 76 83 91 90 82 81 79
96 97 96 95 94 95 90 86 88 86 91 87 86 82 76 74 82 98 100 100 97 95 100 100 99 86 98 78 92 94 100 96 97 76 99 96 81 97 96 95 87 78 78 72 66 67 67 66 69 73 71 64 63 69
94 95 96 95 92 90 93 94 91 87 87 77 78 97 83 99 100 100 100 100 100 100 99 100 100 100 94 85 100 96 100 100 78 98 89 87 92 95 90 76 69 66 70 64 60 60 59 59 60 67 73 70 95 67
93 92 93 94 94 92 89 88 89 88 87 94 100 100 100 100 100 100 100 100 100 100 100 100 100 100 100 100 100 100 100 99 100 95 97 91 100 88 67 64 60 58 81 59 55 58 68 69 70 92 99 97 99 83
89 90 89 93 93 92 90 87 83 74 83 90 92 100 100 100 100 100 100 100 100 99 100 100 100 95 100 100 100 99 100 98 90 91 90 95 87 74 66 57 59 64 88 72 56 72 97 93 82 78 81 75 78 90
83 82 89 92 89 89 86 85 85 83 95 95 95 100 100 100 100 100 100 100 99 100 100 100 100 100 100 99 100 100 98 90 91 89 96 95 89 99 84 74 77 63 61 65 69 72 83 93 94 79 76 75 84 85
78 82 90 88 83 80 79 84 93 97 100 100 100 100 100 100 100 100 100 100 98 100 100 100 100 100 94 95 98 85 98 91 96 98 91 82 89 99 98 96 89 76 72 75 78 80 80 73 72 66 62 52 56 60
86 82 85 82 75 76 77 77 88 84 96 96 98 100 100 100 100 100 100 98 94 92 88 93 79 97 98 96 93 93 92 97 95 98 98 90 89 98 87 71 71 75 82 83 79 64 61 65 56 54 52 50 50 50
82 84 84 80 72 76 82 81 75 89 97 96 98 99 98 100 99 98 99 97 88 81 85 82 97 87 92 85 95 94 98 94 94 91 92 86 81 79 76 74 73 69 62 59 57 56 54 55 55 51 52 51 58 58
81 83 84 78 72 80 84 84 72 80 89 94 93 94 94 95 98 100 100 91 77 84 92 95 91 91 89 91 85 86 85 73 75 86 86 76 70 68 68 65 62 59 57 57 57 61 54 54 50 52 59 62 72 74
80 84 80 77 78 75 82 81 82 85 84 88 91 87 93 94 96 99 96 78 95 92 85 91 96 92 82 78 73 72 74 67 72 77 80 77 66 62 62 60 57 57 62 68 69 64 68 65 60 60 77 82 82 80
85 80 84 80 86 91 85 84 80 82 82 89 85 81 92 94 95 95 90 87 85 89 86 91 85 80 78 76 70 70 73 72 74 74 77 72 71 67 64 61 64 73 69 71 64 74 70 61 68 72 80 85 76 76
78 78 93 96 94 96 94 78 90 78 85 90 82 80 84 90 90 77 91 81 88 88 90 89 90 88 81 70 66 66 63 64 69 72 73 72 69 71 70 68 69 75 70 61 59 64 72 76 72 83 80 80 80 83
73 90 91 92 91 98 92 95 80 79 87 87 85 88 85 89 82 82 86 88 87 84 87 90 86 86 85 84 80 72 66 64 70 72 69 71 76 72 67 67 68 70 65 63 68 77 77 84 82 79 83 84 83 85
88 94 87 91 88 89 99 98 92 78 91 91 87 90 93 86 89 82 85 83 85 89 88 89 89 88 86 88 86 83 80 74 76 74 69 67 72 68 62 59 65 66 70 81 83 84 84 83 83 83 82 84 84 85
99 96 93 96 94 90 94 89 97 95 91 90 93 89 94 92 86 88 79 87 91 90 95 95 92 89 87 86 84 84 86 84 69 73 69 62 65 73 74 74 73 74 72 82 86 86 83 81 83 83 84 81 80 83
98 98 89 82 83 81 92 92 87 88 90 90 90 90 89 84 87 83 79 82 82 88 87 87 84 81 82 84 83 80 78 77 76 71 68 65 66 68 78 83 82 77 72 78 83 85 88 86 85 85 86 83 82 84
87 87 98 96 91 89 93 91 89 90 89 82 86 89 87 88 85 81 79 81 85 80 80 81 79 78 80 82 83 83 83 82 84 79 76 74 74 80 80 80 79 86 84 84 87 85 84 86 87 85 84 86 86 83
92 91 90 95 92 89 90 90 88 84 84 86 91 89 88 78 85 83 81 83 84 83 84 86 90 88 87 82 86 84 83 81 71 68 64 79 80 81 79 82 82 82 83 83 81 82 82 84 84 87 84 87 86 85
93 94 88 92 92 84 94 91 91 94 82 86 80 78 76 84 87 85 86 87 88 93 93 92 92 89 91 87 89 88 88 87 87 85 82 82 84 84 86 85 86 85 86 86 86 82 80 84 83 82 83 84 85 86
90 91 76 76 84 93 95 96 96 92 91 89 91 90 87 88 88 88 86 89 89 90 88 88 89 90 85 86 84 82 86 88 90 88 89 90 88 88 86 87 87 89 88 87 87 86 87 87 85 86 85 85 86 87
90 94 92 88 91 93 91 94 96 92 92 92 93 90 91 89 90 88 91 90 86 85 96 89 85 90 90 89 90 89 96 89 86 89 90 91 90 87 87 85 88 90 88 87 86 86 86 87 88 87 88 86 87 87
91 92 92 91 92 90 94 89 85 90 91 90 92 91 91 89 91 90 88 91 91 90 90 89 90 91 90 88 87 88 93 86 89 96 100 97 95 95 93 89 89 88 87 87 86 86 87 86 86 86 85 86 85 84

GFSWCAN_sfc_rhum_039.txt.gz
RH
78 79 81 82 83 85 85 89 92 95 95 96 94 94 94 92 93 94 73 65 42 52 50 48 32 31 38 32 57 49 51 54 58 77 84 63 82 49 43 30 52 60 76 90 73 97 80 22 26 38 40 28 29 30
81 83 84 87 86 89 92 95 95 96 96 95 94 92 93 94 96 92 74 56 49 49 61 58 59 55 53 46 36 49 39 46 43 52 77 82 96 94 62 54 33 48 40 50 42 44 29 24 25 25 28 32 31 33
90 91 93 92 92 92 96 97 98 97 95 94 93 93 93 95 93 95 61 56 50 67 60 56 58 57 51 54 53 45 52 37 44 48 58 76 100 62 95 58 46 34 35 43 39 25 24 24 25 26 29 35 33 34
95 94 94 96 97 98 98 98 97 96 96 97 98 97 97 95 89 95 57 58 52 66 100 73 50 60 53 49 48 50 49 52 49 47 87 96 97 46 67 48 45 39 37 35 39 29 30 25 33 41 43 41 39 38
98 98 98 97 97 98 98 98 98 98 96 96 98 96 94 91 91 83 74 69 58 46 89 81 59 56 48 46 46 46 49 49 51 75 97 86 57 66 69 61 58 33 40 56 56 44 53 45 48 50 49 49 48 49
98 98 98 98 98 99 99 99 98 97 98 96 96 93 90 88 88 70 70 65 59 49 75 98 63 63 55 51 50 49 47 46 43 69 86 54 54 61 98 65 54 49 49 50 53 50 50 53 46 44 49 47 44 45
98 98 98 97 98 98 99 99 99 98 97 94 91 89 87 94 70 59 52 68 79 54 81 98 90 67 62 55 62 55 56 58 52 68 92 72 63 56 96 70 56 53 49 51 51 53 61 48 51 51 60 63 68 81
98 98 96 93 93 95 96 96 95 93 92 88 84 88 90 90 86 63 68 86 72 48 57 96 96 94 63 87 94 66 80 63 76 82 83 89 76 87 85 60 57 56 52 55 50 48 48 48 54 59 57 62 78 91
98 98 98 92 89 91 91 91 91 90 89 89 90 93 70 71 72 66 92 82 68 61 74 100 100 99 66 79 84 85 67 99 74 100 91 78 94 94 70 66 67 69 72 64 62 58 60 62 60 64 66 65 72 85
98 97 97 96 94 90 90 92 91 92 92 93 63 48 86 88 88 82 64 67 66 73 73 100 78 96 66 92 97 93 96 98 94 91 75 100 85 65 71 74 71 69 63 65 75 76 71 73 72 68 62 57 55 55
96 95 96 96 95 87 90 88 89 88 91 64 82 91 75 81 56 70 86 76 68 95 82 86 76 89 74 90 99 93 98 95 99 82 91 98 91 74 82 73 68 63 58 58 56 57 59 62 65 69 65 68 65 62
93 93 93 93 94 91 83 82 79 76 82 88 78 71 63 63 80 96 100 100 91 93 98 97 91 77 93 66 85 88 97 91 96 70 98 94 84 94 83 77 72 60 56 56 53 54 56 57 55 52 51 59 65 63
94 93 91 91 91 91 92 88 88 87 82 68 71 98 83 99 100 100 100 99 98 100 98 98 100 95 87 76 99 91 100 99 71 98 86 85 93 96 83 69 58 53 54 53 50 48 47 54 60 64 67 71 89 67
91 91 93 93 90 88 88 86 88 83 68 83 100 100 100 100 100 100 100 100 100 100 100 100 100 100 100 100 100 100 100 82 100 97 96 93 98 93 64 58 54 53 82 52 48 55 64 64 76 91 99 97 96 76
89 89 89 91 91 88 86 83 78 82 92 96 92 100 100 100 100 100 100 100 100 98 99 98 98 89 100 100 99 100 100 98 86 95 91 97 90 75 69 58 53 63 86 60 56 77 100 96 73 72 71 64 73 85
79 81 85 91 85 83 80 76 71 71 83 90 97 100 100 100 100 100 100 100 98 100 97 88 99 100 100 98 100 100 96 90 96 95 94 93 80 72 60 62 57 53 57 63 68 75 86 90 90 68 63 60 83 80
71 76 88 86 82 77 79 78 93 98 100 99 100 100 100 100 100 100 100 100 98 100 100 96 100 100 90 93 98 94 100 99 98 96 91 90 96 74 77 75 87 72 69 71 72 69 64 59 63 54 52 46 45 46
76 67 83 80 65 66 71 73 92 87 97 99 98 100 100 100 100 100 100 99 100 99 100 98 76 100 100 100 97 96 97 97 93 92 97 97 99 98 88 72 65 70 76 72 62 55 54 57 48 47 44 40 40 42
78 77 82 80 66 66 73 76 70 91 98 98 99 98 99 100 94 90 96 93 82 82 90 88 98 97 98 91 97 99 98 94 88 83 86 95 97 93 79 76 71 64 58 54 52 50 49 49 47 43 45 45 54 55
79 82 84 80 68 70 78 80 64 75 88 93 93 93 92 94 95 99 100 89 75 78 93 96 96 96 96 91 91 88 84 72 74 82 87 87 90 89 77 65 60 57 52 53 55 56 49 48 44 46 55 58 69 71
70 72 75 65 68 64 73 72 77 78 78 84 86 82 93 93 98 100 98 75 94 90 87 91 94 89 80 77 77 81 84 79 75 75 77 75 65 60 57 55 54 53 59 65 65 60 62 59 53 55 73 79 78 75
70 78 81 77 82 89 77 74 70 69 77 85 80 76 94 99 99 97 86 87 83 91 90 96 89 75 71 73 75 77 83 81 79 76 72 70 70 68 64 61 62 71 66 66 60 72 67 57 64 69 76 80 71 70
74 73 92 98 98 99 97 70 90 68 85 81 72 78 85 91 83 65 87 78 86 87 88 88 90 90 82 69 63 62 59 62 67 72 73 71 67 68 66 64 66 72 68 58 55 61 69 70 68 78 75 74 74 77
71 95 100 97 94 99 97 92 66 66 76 84 76 85 82 84 68 79 87 86 86 79 86 86 80 83 84 81 78 82 79 63 66 68 66 68 72 69 63 61 63 65 61 60 65 73 72 79 74 73 77 77 76 78
83 95 94 89 91 89 91 92 91 76 83 85 86 88 87 80 86 83 86 82 83 87 86 81 80 82 83 87 86 84 86 83 83 82 78 72 72 65 60 56 61 62 66 78 80 80 79 78 78 77 75 76 74 76
92 93 89 92 88 86 85 83 88 89 83 84 88 83 88 91 80 83 72 86 89 86 92 93 92 84 82 81 80 82 85 84 78 75 67 59 62 70 70 70 69 75 68 77 81 81 77 74 76 75 77 73 72 77
92 94 83 72 76 72 86 85 79 79 80 84 82 83 88 80 82 82 76 78 80 84 79 81 76 76 76 76 76 80 80 76 76 69 61 60 62 64 74 80 78 74 67 73 77 78 81 80 79 78 79 77 76 78
82 83 88 90 83 77 84 79 82 85 84 75 82 85 87 90 88 81 78 81 84 75 75 75 74 74 76 79 81 81 77 75 77 71 68 67 66 71 72 72 73 71 78 75 79 80 80 81 82 80 80 81 81 78
86 84 82 91 84 82 82 84 85 79 76 79 91 83 84 75 85 81 78 81 82 83 84 84 87 86 81 75 79 76 78 78 71 66 64 74 75 77 72 73 74 74 76 77 72 74 74 80 81 82 80 84 81 81
85 88 81 84 84 80 89 86 92 90 78 80 73 70 73 82 86 81 82 83 85 90 89 88 87 85 83 80 82 81 82 81 81 82 81 80 82 78 78 77 78 78 79 80 80 76 73 76 76 78 79 79 80 82
79 86 77 77 82 91 92 95 96 86 85 86 88 87 85 86 87 83 81 83 82 83 83 82 81 80 80 80 81 79 80 82 80 75 80 82 80 80 80 79 80 81 81 81 81 81 81 81 81 80 79 79 78 80
85 89 83 77 86 89 88 86 88 90 90 87 88 86 87 85 85 84 86 88 83 82 89 78 81 84 80 79 80 80 91 80 76 79 78 82 82 80 79 78 80 80 81 81 82 81 80 80 83 81 81 79 77 78
80 82 84 82 81 77 86 86 78 80 82 82 85 84 87 87 86 86 80 84 87 87 86 84 83 82 81 81 80 82 82 72 73 81 82 88 90 90 89 83 81 80 80 82 82 81 79 79 81 79 77 77 78 78

GFSWCAN_sfc_rhum_042.txt.gz
RH
84 84 83 81 79 78 78 79 81 85 87 88 89 90 91 88 85 94 93 91 98 83 41 36 34 32 45 79 92 56 57 55 74 88 91 80 92 62 50 35 65 76 87 97 86 100 91 22 24 44 46 38 35 34
84 82 80 80 79 79 81 83 85 87 88 88 87 89 90 90 91 95 97 88 92 91 66 67 61 53 49 60 55 57 49 50 52 62 81 90 99 98 81 70 28 58 48 66 60 65 36 25 29 28 34 37 40 42
81 80 80 80 83 85 87 88 88 89 90 91 89 88 93 93 97 96 94 89 80 68 69 64 59 54 51 65 62 57 61 37 46 49 69 85 99 77 98 77 59 33 33 54 48 26 25 24 27 38 40 45 39 38
84 85 86 87 88 90 89 89 91 90 90 93 89 94 96 97 96 96 98 95 86 68 100 76 48 56 48 49 48 52 52 56 58 62 94 99 100 50 86 57 61 42 37 35 39 32 30 39 47 52 47 47 48 45
91 90 91 89 90 91 91 92 95 95 96 96 95 95 97 97 96 96 95 82 85 62 91 88 57 51 44 46 46 48 54 57 65 83 100 92 64 78 79 72 75 35 40 69 73 50 55 60 49 46 48 48 47 47
92 92 93 93 92 94 97 99 98 98 97 97 95 95 96 97 96 95 94 66 73 50 79 99 68 59 48 44 46 49 50 52 51 81 90 61 54 75 99 83 49 47 44 47 54 49 54 51 49 51 57 56 62 63
98 99 98 98 98 98 98 98 97 97 97 97 95 97 96 92 87 88 86 86 90 68 86 100 97 68 55 55 60 55 54 61 57 73 90 75 66 65 99 87 53 48 45 49 48 52 58 49 63 60 64 69 69 66
96 97 98 98 98 98 98 97 97 98 98 97 95 95 92 89 90 90 89 80 86 54 70 100 100 96 66 91 94 69 79 69 74 82 83 90 80 95 94 58 52 52 50 51 50 49 53 56 55 58 59 62 68 72
94 92 94 96 98 98 98 97 96 96 94 92 90 89 75 86 89 76 90 89 74 71 92 100 100 100 65 84 89 88 74 100 81 100 91 80 93 92 64 61 64 63 63 61 56 56 56 60 62 61 61 64 71 77
93 92 93 94 92 93 95 93 91 88 87 84 68 65 98 89 88 90 65 73 86 80 77 100 85 100 75 97 100 94 98 98 96 98 79 100 89 67 66 66 63 62 60 62 70 72 70 69 63 60 60 65 67 66
95 94 93 94 91 92 90 90 91 93 86 69 83 90 79 84 68 75 92 91 90 100 82 84 80 92 75 94 99 98 98 95 98 87 93 92 90 78 70 65 61 58 62 62 60 59 60 63 67 70 67 64 66 71
91 93 93 91 91 89 83 87 92 70 74 79 78 76 72 69 90 97 100 100 95 96 97 97 92 81 92 65 89 92 96 92 97 77 100 95 90 75 71 65 59 59 59 60 56 58 60 57 56 55 60 68 78 87
90 89 90 89 89 88 91 87 87 84 86 67 82 97 81 99 100 100 100 100 98 100 98 98 99 99 88 80 100 91 100 100 78 100 84 90 91 80 75 65 59 56 60 61 56 52 55 66 70 76 85 88 86 80
92 87 85 88 87 86 87 87 84 80 70 88 100 100 100 100 100 100 100 100 100 100 100 100 100 100 100 100 100 100 100 85 98 96 94 98 96 82 71 62 61 59 77 59 56 63 78 84 87 94 97 92 89 74
85 85 79 84 84 85 85 83 80 78 90 96 93 100 100 100 100 100 100 100 100 98 100 99 99 90 100 100 100 100 100 98 90 95 98 98 96 76 68 62 64 76 84 70 70 90 97 91 80 76 70 68 78 90
76 72 76 88 83 83 83 76 73 77 92 97 100 100 100 100 100 100 100 100 99 100 100 96 100 100 100 100 99 100 95 90 100 98 98 96 92 83 79 67 67 62 69 76 81 84 87 83 82 68 64 62 91 87
71 85 87 85 81 74 78 75 86 90 99 100 100 100 100 100 100 100 100 100 98 100 100 100 100 100 91 97 97 99 100 100 98 99 98 98 96 84 76 77 82 77 76 77 77 74 70 66 69 60 57 48 47 56
66 62 85 83 78 71 71 89 91 80 94 100 98 100 100 100 100 100 100 100 100 100 100 99 85 100 100 99 95 98 99 99 98 98 98 97 91 81 71 74 78 75 77 72 65 61 58 67 54 52 48 44 46 52
74 74 86 83 68 63 79 80 75 95 100 100 100 100 100 100 100 99 100 100 99 98 100 100 100 97 97 99 100 99 99 98 97 98 98 98 98 99 94 84 84 76 67 61 60 58 54 51 50 48 52 52 62 63
77 78 84 80 66 68 76 80 69 84 95 99 99 100 100 100 100 100 100 93 83 90 94 95 95 96 97 98 100 99 94 85 87 95 97 97 97 88 90 79 67 60 58 58 59 64 53 54 49 51 62 64 74 76
65 67 74 63 66 65 77 76 79 83 82 88 85 82 92 91 98 100 98 79 91 93 92 95 97 98 99 98 98 94 93 84 88 82 87 92 86 75 72 69 62 63 68 72 71 67 70 64 60 61 79 84 84 81
62 76 84 85 86 88 79 77 76 75 79 87 80 78 94 97 97 98 84 86 85 93 92 95 97 93 91 96 98 98 98 96 89 83 77 76 74 75 76 74 74 78 72 71 67 77 72 64 70 73 80 85 78 78
72 73 94 98 97 98 96 74 91 68 82 79 73 77 85 88 80 69 87 81 87 93 88 88 90 89 87 79 75 78 81 80 87 89 90 87 83 80 77 74 76 80 76 64 60 68 75 73 76 81 79 80 79 83
70 96 98 94 93 94 95 85 67 67 76 80 74 80 82 83 73 81 88 86 89 82 87 91 92 87 82 80 83 86 90 82 85 89 89 81 84 81 72 71 69 71 67 64 71 76 76 82 80 76 83 82 82 84
88 93 93 84 89 83 80 77 82 72 83 81 80 85 86 80 83 82 88 91 91 92 92 90 82 86 85 87 85 86 89 85 85 86 89 83 81 74 68 64 67 67 70 82 83 81 82 83 82 81 77 81 78 81
90 88 82 81 81 80 78 81 80 86 79 80 83 78 88 86 80 90 85 92 91 90 94 94 94 80 80 80 81 82 86 88 80 85 86 77 79 84 77 75 81 85 72 80 83 81 78 78 80 79 81 77 80 86
85 83 80 75 79 78 83 81 76 84 84 88 86 83 84 84 89 88 81 82 83 87 81 82 77 77 80 80 80 82 81 77 79 72 65 64 66 68 79 84 85 83 69 75 79 81 83 83 83 84 85 84 84 88
84 84 85 88 82 77 80 82 84 92 90 78 89 87 86 91 88 86 86 83 83 73 74 76 76 77 82 85 86 86 86 80 78 74 72 70 68 74 75 76 78 75 78 82 78 81 81 84 85 85 88 89 89 86
86 87 84 93 76 79 90 91 90 89 82 85 92 88 88 80 88 86 83 88 87 86 86 86 90 87 81 76 81 79 81 84 75 75 72 79 81 91 76 75 77 79 80 80 82 80 77 83 82 85 82 83 84 86
83 86 76 75 82 89 94 92 94 91 77 80 73 72 77 86 89 84 84 84 86 90 89 89 88 84 88 88 82 85 83 82 86 85 86 86 86 82 82 83 83 82 84 83 83 79 79 80 80 82 85 87 84 87
75 82 74 75 88 93 90 88 92 88 87 87 88 85 84 87 88 83 83 90 81 86 90 88 84 83 82 84 85 85 92 85 82 77 79 81 82 83 86 86 83 84 82 82 84 83 86 85 82 84 83 83 83 84
78 79 79 77 90 88 80 85 86 91 92 90 89 85 90 91 87 86 86 90 86 86 87 83 85 87 83 82 82 87 87 80 79 82 79 85 85 86 85 85 86 86 86 84 83 85 85 85 85 83 84 84 85 84
74 75 74 73 73 79 82 80 68 82 82 83 85 84 86 86 89 89 82 84 88 89 89 88 88 87 83 79 75 78 77 73 78 82 89 87 88 89 87 85 87 87 88 86 85 86 85 84 84 84 84 85 84 86

GFSWCAN_sfc_rhum_048.txt.gz
RH
83 79 77 79 80 80 82 82 82 82 82 82 82 84 86 85 87 85 96 95 95 96 89 91 84 60 50 60 80 90 86 89 97 91 92 92 88 78 78 65 68 68 87 93 96 91 68 50 42 46 56 64 60 60
81 81 80 80 81 82 81 82 81 82 82 84 86 90 88 84 85 86 98 93 94 99 96 90 83 74 78 49 89 94 76 87 91 92 98 99 96 95 82 91 69 72 66 78 75 78 64 67 62 64 64 68 72 77
82 82 82 81 81 82 83 81 82 89 89 89 91 90 90 87 87 86 98 97 94 94 92 93 86 80 77 71 76 87 93 80 89 93 98 99 87 91 88 88 76 64 68 77 67 75 78 76 72 71 69 70 68 68
84 84 83 82 82 83 83 81 85 91 89 84 86 88 90 87 88 86 96 96 91 96 100 90 81 89 80 83 77 73 68 81 91 95 99 100 98 78 91 74 74 67 56 67 93 82 73 73 73 68 70 75 78 77
86 86 86 85 85 84 85 86 86 86 86 87 89 91 90 90 91 94 97 95 95 96 100 97 86 81 85 83 80 84 71 88 93 92 100 97 93 90 92 85 86 62 60 76 89 75 79 80 77 72 75 80 78 81
88 88 86 85 84 85 85 86 87 88 90 91 91 91 90 89 89 96 99 90 93 96 99 100 91 93 92 92 87 90 91 96 97 92 99 90 82 82 90 94 74 75 75 74 84 72 79 84 82 78 85 85 82 83
86 86 86 85 85 86 87 88 89 92 92 91 91 90 89 89 96 95 92 95 89 95 99 99 99 97 96 94 98 96 95 98 96 98 99 91 94 92 99 94 78 76 70 72 71 74 86 84 93 82 82 82 78 78
86 85 85 85 86 87 89 87 85 88 90 91 92 91 90 90 90 95 93 97 94 96 95 100 99 100 94 99 100 98 98 97 97 97 98 99 97 97 94 83 76 74 73 75 77 75 80 78 76 79 77 79 86 92
90 88 89 87 88 88 87 86 86 88 90 89 89 92 98 97 98 95 90 98 99 98 100 100 100 100 92 98 98 98 95 100 95 100 99 93 98 98 87 80 77 74 78 82 79 78 78 81 81 82 85 86 91 88
95 94 91 92 92 90 90 90 89 91 92 94 98 98 100 99 97 92 96 100 100 96 94 100 97 100 94 100 100 99 100 100 100 99 95 98 100 89 89 87 79 76 74 76 87 91 87 86 82 86 87 82 79 80
98 98 98 97 95 94 93 93 95 95 96 98 99 100 98 97 98 98 99 97 96 100 98 99 97 99 93 98 100 99 100 100 99 96 96 100 99 90 83 80 72 67 68 72 73 73 71 73 80 84 85 87 93 95
95 96 98 98 98 98 98 97 96 96 98 95 94 97 97 95 93 89 99 96 98 99 99 100 100 96 99 93 98 98 96 95 99 92 98 99 96 89 87 83 78 73 71 71 71 73 75 73 76 82 86 93 97 95
90 90 91 95 97 97 97 94 96 92 93 90 88 94 89 97 96 91 100 96 98 100 100 100 100 100 95 91 99 98 94 98 94 93 96 99 92 86 82 75 74 74 77 78 79 80 83 86 85 87 88 85 87 87
84 85 88 90 92 95 95 95 90 84 86 97 93 98 99 99 99 99 99 100 100 100 100 100 100 100 100 100 100 94 100 97 94 95 94 99 93 82 76 74 76 83 87 86 85 87 90 91 91 90 87 86 84 74
80 81 81 87 87 87 86 85 84 86 94 98 92 99 99 100 100 100 100 100 99 100 100 99 100 98 100 98 99 97 96 91 93 94 99 98 88 80 81 79 83 86 92 94 89 90 90 85 78 80 79 73 80 90
81 74 80 88 84 85 87 86 88 92 98 96 98 99 99 99 99 99 100 100 99 100 100 98 99 95 100 96 92 94 91 94 99 100 99 92 85 83 84 86 92 97 89 88 88 84 80 81 81 78 77 75 88 89
80 89 81 88 83 85 83 89 94 98 99 97 99 100 100 99 99 99 100 100 99 100 100 99 96 100 98 97 99 100 99 99 100 99 98 90 83 93 98 97 98 92 91 92 92 81 76 68 73 78 75 69 67 77
92 91 83 84 76 79 90 88 95 96 99 99 99 99 99 99 99 99 99 99 100 100 99 99 99 96 98 98 99 99 99 99 99 98 98 97 97 98 92 96 97 93 90 82 75 74 72 73 65 70 71 71 74 76
88 87 82 82 78 86 92 93 90 98 99 100 100 99 100 100 99 99 98 99 99 98 98 98 96 97 98 98 99 99 99 99 98 99 99 98 98 98 98 97 96 94 90 78 73 72 72 69 72 75 80 80 87 92
78 81 86 83 78 90 89 94 91 97 99 99 99 98 99 99 99 95 93 92 91 92 94 96 97 97 98 98 99 99 99 99 98 98 98 98 98 97 97 94 93 87 78 70 71 74 75 79 78 85 86 85 93 98
83 88 88 86 92 89 95 97 99 99 99 99 100 99 99 85 83 86 86 83 82 97 96 97 97 97 97 98 98 99 99 98 99 98 95 95 97 95 95 96 87 79 83 85 88 90 90 91 86 88 98 99 98 99
93 86 96 87 91 88 90 91 97 98 97 99 98 97 99 98 99 93 80 88 95 97 97 96 96 95 93 95 96 96 98 94 93 94 94 90 94 94 93 94 92 95 94 96 93 95 92 82 89 93 96 97 95 97
84 87 91 86 85 87 91 93 87 87 94 96 93 93 98 98 99 91 96 87 94 95 96 95 95 94 93 94 89 93 95 92 92 93 93 93 92 94 94 94 95 95 95 94 93 93 94 90 94 96 96 93 98 100
80 92 98 96 88 91 88 88 91 91 91 92 94 97 93 98 92 93 96 95 93 89 90 94 92 88 82 80 90 91 93 91 91 92 94 91 91 92 91 92 93 94 93 91 90 93 93 96 95 92 97 100 100 100
82 91 85 88 90 86 91 89 90 92 98 96 94 96 96 94 96 97 96 95 94 95 94 89 84 86 89 92 90 91 92 88 89 91 93 93 94 93 92 91 92 92 88 93 96 96 98 97 99 100 99 100 99 100
88 97 91 95 96 95 99 93 98 97 98 99 90 94 97 93 93 98 90 97 98 96 97 97 95 90 90 89 90 91 94 93 83 91 92 91 93 95 96 95 95 94 92 96 96 99 100 100 100 100 100 100 99 100
97 98 95 96 98 95 94 96 94 96 100 99 98 98 96 99 100 96 95 97 94 97 95 94 90 90 92 92 91 94 94 88 88 87 84 83 82 81 90 96 96 95 98 98 99 100 100 100 100 100 100 100 100 100
100 97 99 94 93 96 100 99 100 99 100 94 96 99 99 99 98 96 95 96 96 93 90 90 89 88 89 90 91 94 96 97 94 91 88 89 90 91 96 97 98 99 99 99 100 99 100 100 100 100 100 100 100 100
97 96 91 90 90 96 99 99 98 99 95 96 99 99 99 91 96 96 95 96 95 92 93 94 96 95 94 92 92 92 89 92 93 100 100 100 100 98 96 96 98 98 100 100 100 98 98 98 100 99 100 100 99 100
95 97 89 92 97 99 100 99 98 99 96 97 90 86 88 97 96 95 93 94 93 96 97 96 96 94 99 100 100 98 100 97 92 96 100 100 100 99 100 100 99 98 98 100 100 99 100 100 100 100 100 100 100 100
95 93 94 99 100 98 97 98 90 92 96 97 97 97 99 99 98 95 95 97 95 96 94 96 99 100 100 100 100 100 100 99 100 100 100 100 100 100 100 100 100 100 100 100 100 100 100 100 100 100 100 100 100 100
96 98 97 100 100 98 96 97 97 99 99 100 100 100 100 100 100 99 98 98 96 99 100 100 100 100 100 100 100 100 99 100 100 100 100 100 100 100 100 100 100 100 100 100 100 100 100 100 100 100 100 100 100 100
95 96 97 96 97 98 97 98 98 97 97 100 99 99 100 98 99 98 98 99 99 100 100 100 100 100 98 100 100 100 100 100 100 100 100 100 99 100 100 100 100 100 100 100 100 100 100 100 100 100 98 99 100 100

GFSWCAN_sfc_rhum_051.txt.gz
RH
88 90 90 89 86 86 84 84 82 78 78 77 77 77 81 77 81 91 96 95 95 97 91 91 91 80 63 64 76 82 86 92 95 94 94 92 91 81 76 67 71 77 91 92 93 84 71 51 44 43 51 68 64 65
87 87 83 82 82 81 79 78 77 77 76 77 80 82 81 83 90 87 98 94 93 96 96 84 83 78 84 82 74 93 80 88 86 91 97 98 93 95 82 85 69 64 70 80 72 74 64 73 55 69 66 62 69 73
80 80 79 78 78 79 79 80 81 81 82 83 85 84 85 84 82 85 96 95 95 98 92 96 92 79 77 79 80 86 93 84 92 90 98 99 92 91 89 89 82 70 69 82 75 78 88 86 77 76 74 77 76 78
82 83 84 84 83 83 83 82 82 83 83 83 82 84 84 85 83 84 95 96 87 92 100 90 71 81 85 88 88 82 69 91 92 96 99 99 95 83 91 80 79 68 65 84 93 86 80 78 78 81 83 80 80 78
84 84 84 85 84 84 85 83 84 86 87 86 85 85 88 85 88 92 97 94 93 88 99 97 82 74 91 93 85 82 84 91 95 95 100 94 94 94 96 92 91 66 70 83 88 76 78 84 81 79 82 84 82 82
86 86 86 86 85 84 87 93 90 88 90 87 92 90 92 93 87 92 93 90 94 96 91 100 90 92 94 94 94 92 89 96 94 91 99 94 88 87 93 89 63 75 72 63 69 68 81 85 85 82 86 85 82 83
89 88 88 87 88 88 86 90 90 86 87 85 89 88 87 88 94 93 91 93 85 95 94 99 99 87 97 97 98 98 96 98 96 98 99 93 96 84 97 90 79 80 79 80 77 78 90 86 97 86 84 83 81 82
89 88 88 87 88 90 90 89 90 91 93 92 92 91 91 87 87 90 93 95 88 97 93 100 99 99 95 99 100 99 99 97 97 99 98 98 97 98 90 89 84 79 77 78 84 79 83 85 84 84 80 81 86 90
88 89 89 90 91 92 92 92 92 92 91 91 92 91 94 95 97 96 96 95 98 92 98 100 100 99 95 100 100 98 96 100 98 100 100 94 99 96 94 91 85 80 82 91 84 83 82 86 86 84 84 85 87 89
89 89 90 91 90 89 88 87 89 91 92 91 93 98 100 97 95 93 97 98 100 100 99 100 98 100 97 100 100 100 100 100 100 99 95 99 99 88 92 85 84 84 82 81 93 96 93 93 91 88 83 75 75 86
88 87 87 88 87 86 86 89 89 91 91 97 99 100 98 96 94 96 99 99 99 99 98 98 99 99 98 99 100 100 100 100 100 99 97 100 99 93 88 84 78 77 77 81 77 79 78 80 84 86 86 88 88 88
90 89 89 87 86 85 88 89 89 93 93 91 98 96 97 97 99 98 100 100 100 97 99 100 99 96 99 96 98 98 97 95 98 93 98 99 96 89 86 83 79 79 77 78 75 76 78 77 79 83 87 92 92 92
93 92 90 90 90 89 89 90 93 92 98 97 94 97 98 99 99 99 98 99 100 100 100 100 100 99 95 92 98 95 95 97 96 97 97 98 96 93 88 83 81 78 79 79 79 80 80 81 82 87 95 91 85 77
95 97 97 97 95 94 94 96 95 99 95 97 99 99 99 99 99 99 99 99 99 100 100 100 100 100 100 99 99 93 100 95 97 98 95 99 96 89 85 83 84 88 90 90 89 87 86 83 84 86 88 83 77 66
88 90 89 94 97 97 96 94 95 91 93 99 97 99 99 99 99 100 100 100 99 99 100 99 99 98 99 97 98 96 95 91 94 94 99 98 89 85 88 89 90 94 94 94 93 95 96 85 78 79 78 71 74 87
81 79 82 90 87 90 92 88 87 90 96 94 98 98 99 99 98 99 99 100 99 100 100 97 98 96 99 97 94 99 93 98 99 100 99 92 89 90 91 93 95 96 93 94 95 88 82 82 78 74 77 80 88 88
81 91 86 89 79 85 85 90 89 95 99 94 99 99 99 99 100 100 99 99 99 100 100 98 96 99 98 97 99 100 99 99 100 99 94 89 93 98 98 98 98 96 92 84 79 76 76 73 72 69 72 73 70 79
95 94 86 86 74 80 88 88 94 92 98 99 98 99 99 99 99 99 98 98 99 100 99 99 96 96 97 97 98 99 99 99 99 98 98 98 98 98 96 96 96 92 94 95 81 70 70 74 70 71 70 75 80 79
86 87 84 84 78 86 90 94 89 98 99 99 99 99 99 98 97 98 98 99 99 96 97 97 95 96 97 98 98 99 99 99 98 99 99 99 98 98 98 98 97 97 96 95 87 77 74 69 77 78 77 80 91 93
81 82 84 83 78 90 92 97 90 96 98 99 99 95 97 98 97 86 84 82 83 89 93 95 96 96 97 97 99 99 99 99 98 97 96 97 97 97 97 96 94 94 92 91 92 88 79 83 81 79 82 86 94 96
80 87 80 84 92 90 96 97 97 99 99 99 100 98 98 82 81 83 83 76 81 96 95 96 97 96 97 96 96 97 97 96 97 93 95 95 96 94 94 94 93 92 91 92 93 93 93 94 90 83 94 97 98 98
92 78 92 81 86 84 89 88 98 99 97 99 98 97 98 98 97 94 78 87 94 95 96 95 95 94 92 94 95 95 96 93 94 92 93 91 93 92 93 94 92 95 94 95 93 95 94 92 93 89 93 97 95 92
80 84 90 84 82 83 89 92 90 93 97 98 93 93 97 98 99 86 95 86 93 94 95 94 95 94 93 94 89 92 94 92 92 92 92 93 92 93 93 94 94 94 94 94 93 93 95 94 92 93 93 95 96 98
73 86 91 94 88 94 88 90 90 93 92 94 95 97 96 98 91 92 95 94 93 88 87 92 91 89 82 80 88 90 92 87 87 90 92 88 90 92 91 91 92 93 92 91 92 94 92 96 93 92 97 99 100 100
81 89 86 92 92 89 91 91 95 94 99 98 92 97 97 91 96 96 95 93 93 95 94 90 86 87 90 92 90 90 88 82 87 90 92 90 92 90 91 89 90 87 86 92 96 97 98 98 98 99 97 100 100 100
99 98 96 99 96 93 99 99 100 100 99 98 95 98 94 93 95 99 90 97 98 96 96 96 95 90 90 89 91 91 93 86 80 90 90 84 88 94 94 94 96 97 92 95 96 100 100 100 100 100 100 100 100 100
99 99 95 92 98 91 96 98 94 95 99 98 98 95 94 100 100 96 95 95 94 96 93 93 89 90 92 90 89 94 91 89 90 90 87 88 92 92 95 98 100 98 98 98 99 100 100 100 100 100 100 100 100 100
99 98 96 93 94 96 100 100 100 100 99 95 89 99 100 100 98 96 95 96 96 89 86 83 83 85 89 91 93 96 97 97 94 94 95 88 90 94 96 96 95 99 97 99 100 100 100 100 100 100 100 100 100 100
98 98 89 96 96 98 98 100 99 97 92 96 99 100 99 90 97 96 94 95 94 92 94 96 97 98 96 94 94 95 89 90 85 89 100 100 100 99 99 100 99 100 100 100 100 98 100 100 100 100 100 100 100 100
94 96 95 100 98 99 99 99 99 99 94 98 89 82 88 96 96 95 93 93 94 98 100 100 100 98 100 100 100 99 100 99 98 97 100 100 100 100 100 100 100 100 100 100 100 99 100 100 100 100 100 100 100 100
97 96 99 100 99 98 94 96 87 90 98 98 98 98 98 98 98 97 96 98 98 98 97 100 100 100 100 100 100 100 100 99 100 100 100 100 100 100 100 100 100 100 100 100 100 100 100 100 100 100 100 100 100 100
97 100 99 100 98 98 96 98 99 100 100 100 100 100 100 99 100 99 99 98 98 100 100 100 100 100 100 100 100 100 100 100 100 100 100 100 100 100 100 100 100 100 100 100 100 100 100 100 100 100 100 100 99 99
98 99 98 99 97 98 97 97 97 98 98 100 100 99 100 98 100 98 99 99 97 99 100 100 100 100 97 97 100 100 100 100 100 100 100 100 100 100 100 100 100 100 100 100 100 100 100 100 100 100 98 99 99 99

GFSWCAN_sfc_rhum_054.txt.gz
RH
89 88 87 87 90 91 90 89 89 81 81 82 81 80 79 78 76 85 96 93 97 97 90 91 91 83 75 68 85 79 86 91 97 93 95 92 92 82 81 71 79 77 85 91 90 86 73 48 42 46 50 72 64 66
91 90 90 90 90 90 90 83 81 83 84 82 81 79 80 80 79 83 97 96 92 95 94 86 86 85 82 67 70 86 75 88 84 92 96 96 91 97 80 83 68 74 70 78 72 74 62 61 52 60 61 65 66 70
87 86 89 88 87 84 82 82 84 82 82 82 81 81 82 82 80 78 93 90 95 95 90 90 88 85 87 83 80 84 93 83 89 87 96 96 90 91 90 86 82 68 67 73 70 71 79 84 78 78 77 79 79 82
82 84 86 86 88 89 88 86 85 84 79 80 79 78 82 80 79 84 96 88 94 95 100 88 81 85 81 86 87 86 77 92 93 96 98 99 93 87 93 80 79 72 69 80 82 88 82 75 80 82 84 83 78 78
86 85 84 84 83 83 83 82 81 80 79 80 81 82 82 80 77 85 95 94 95 89 96 97 82 79 81 94 97 94 90 93 96 97 99 96 94 92 96 91 88 73 76 82 79 68 67 74 82 82 82 85 81 83
85 86 85 86 86 85 84 84 85 85 85 88 83 87 83 88 88 95 99 97 94 91 93 97 88 90 89 95 98 99 93 94 94 91 98 95 89 90 93 94 68 65 69 66 57 70 87 85 88 83 87 87 84 84
86 85 83 82 86 85 87 88 87 86 86 83 85 84 86 88 93 98 95 92 92 92 92 98 98 87 96 96 99 98 96 98 94 96 98 94 95 90 96 88 63 83 82 81 79 79 90 85 94 87 86 86 83 82
88 86 82 89 90 88 89 91 86 87 91 90 87 84 87 84 88 90 97 87 92 95 88 99 95 98 92 99 100 98 99 98 98 99 98 99 98 97 91 86 91 87 84 85 89 85 84 89 87 89 84 82 87 91
89 89 90 87 87 87 90 89 90 89 92 91 91 87 92 94 95 92 93 86 95 88 97 99 99 97 94 99 100 98 98 100 98 100 100 95 100 94 85 94 93 87 86 95 88 88 87 90 91 88 87 87 90 91
90 91 91 91 91 93 93 93 93 91 88 81 86 94 100 97 90 90 98 95 89 93 99 100 97 98 96 100 100 100 100 100 100 98 98 100 97 91 90 90 85 86 84 83 95 97 95 94 92 89 86 83 83 83
91 91 92 92 93 92 92 92 89 90 87 97 98 99 97 92 94 96 99 97 98 100 99 98 98 99 97 99 100 99 100 100 99 98 99 100 98 94 91 89 84 81 78 80 79 82 82 84 86 87 86 86 87 86
92 92 91 91 90 90 90 90 87 92 97 96 96 93 96 98 99 98 99 99 99 97 99 100 99 97 100 97 99 99 99 99 99 96 100 99 97 96 92 92 89 84 81 81 78 83 83 81 78 82 85 88 88 84
88 88 88 87 86 86 88 90 89 92 94 97 99 97 97 100 99 98 100 100 99 100 99 100 100 99 99 97 100 100 99 98 98 100 99 97 99 93 93 90 93 87 85 84 84 86 90 96 97 94 95 87 80 78
91 92 92 91 89 89 91 94 92 94 98 99 100 99 99 99 99 99 99 99 100 100 100 100 100 100 100 99 99 99 99 96 96 98 96 99 99 94 88 87 86 90 92 92 93 95 97 96 93 87 87 80 79 75
93 92 91 93 93 93 94 95 96 98 99 100 99 98 99 100 100 100 100 100 99 99 100 99 99 96 99 96 98 94 93 93 94 96 99 100 95 91 92 92 94 96 97 97 92 91 94 92 84 75 70 69 77 87
92 88 96 98 97 96 97 95 96 94 94 97 98 98 99 98 98 98 99 100 99 100 100 97 99 99 99 99 96 99 92 98 99 99 100 97 97 96 96 97 98 97 95 94 93 93 92 86 80 74 74 79 88 88
90 96 93 97 96 94 90 94 91 93 96 92 98 98 99 99 99 99 99 98 98 100 100 98 97 99 99 98 97 99 99 100 99 99 99 98 98 98 96 96 97 97 96 95 91 80 81 79 78 74 75 72 69 79
96 94 93 94 86 93 97 96 94 91 97 99 98 98 97 98 97 97 98 98 99 100 98 97 96 96 97 96 97 98 99 99 99 99 99 98 98 98 97 97 97 96 95 95 93 94 92 92 81 76 71 72 76 75
91 90 85 87 84 88 92 93 90 96 98 98 96 96 97 93 95 97 97 98 98 92 94 95 93 95 96 97 97 97 99 99 98 98 98 99 98 98 98 97 96 96 95 95 93 92 91 79 76 78 81 83 92 88
78 80 81 80 76 91 92 96 91 94 98 99 97 91 91 92 86 88 85 84 82 87 91 94 96 96 96 96 97 98 99 99 96 95 96 96 96 95 96 94 93 93 92 91 92 93 91 90 80 81 87 90 94 93
78 82 75 80 91 90 96 98 98 99 99 97 98 97 97 81 80 82 80 71 80 95 94 96 96 96 96 96 96 95 95 94 95 94 94 93 95 92 92 93 92 92 91 93 93 94 94 94 92 91 95 97 97 96
90 74 90 80 84 84 88 90 98 99 98 99 98 97 98 98 98 93 76 85 93 95 95 95 94 94 93 94 95 95 96 93 93 91 92 90 92 92 92 94 91 94 93 95 92 94 94 92 93 94 96 97 95 92
76 81 89 82 79 80 87 92 92 93 97 100 93 93 98 98 97 75 94 86 93 94 94 93 95 94 94 94 88 92 94 90 90 91 91 91 91 92 91 92 92 93 93 93 91 92 94 94 94 96 94 94 94 96
69 86 91 93 85 92 89 92 89 92 93 95 96 98 96 99 91 92 94 94 93 89 89 93 92 90 86 82 89 90 92 88 87 88 91 85 88 91 89 90 89 92 92 89 91 94 94 97 94 94 96 98 98 100
83 95 87 94 93 89 94 98 96 94 100 98 95 97 99 90 96 96 96 94 94 94 94 90 87 88 91 93 92 91 86 79 85 90 92 88 90 88 88 85 87 85 83 91 96 96 98 97 97 96 97 100 100 100
97 97 96 100 98 95 100 100 99 100 99 98 98 96 94 93 95 100 91 97 97 96 96 96 95 89 90 90 91 91 93 80 78 90 92 87 88 90 94 96 97 97 95 97 98 100 100 100 100 100 100 100 100 100
97 99 96 86 94 91 99 98 93 95 99 100 98 96 94 100 100 96 93 94 92 94 88 90 85 88 90 90 89 94 90 88 91 92 89 89 91 92 96 100 100 98 96 98 100 100 100 100 100 100 100 100 100 100
98 95 92 94 98 96 100 100 100 100 99 94 86 100 100 100 99 96 95 95 93 84 86 89 88 90 91 92 94 96 97 98 96 94 92 86 92 96 98 99 98 100 99 100 100 100 100 100 100 100 100 100 100 100
99 98 93 100 97 98 98 100 100 96 91 96 100 100 99 91 98 96 94 95 94 93 96 98 98 100 97 95 97 99 95 94 87 95 100 100 100 99 100 100 100 100 100 100 100 100 98 100 100 100 100 100 99 100
96 96 99 100 98 100 100 98 100 98 93 98 91 83 90 97 96 95 94 94 96 100 100 100 100 100 100 100 100 100 100 100 100 98 100 100 100 100 100 100 100 100 100 100 100 99 100 100 100 100 99 98 100 100
98 98 99 99 98 100 98 99 95 96 99 98 99 99 99 99 99 98 98 99 99 100 100 100 100 100 100 100 100 100 100 100 100 100 100 100 100 100 100 100 100 100 100 100 100 100 100 100 100 100 100 100 98 99
99 100 99 100 98 99 98 98 100 100 100 100 100 100 99 99 100 100 99 98 98 100 100 100 100 100 100 100 100 100 100 100 100 100 100 100 100 100 100 100 100 100 100 100 100 100 100 100 100 100 100 100 100 100
98 100 99 100 98 99 97 97 98 99 100 100 100 100 100 98 99 98 99 99 97 99 100 100 100 100 100 100 100 100 100 100 100 100 100 100 100 100 100 100 100 100 100 100 100 100 100 100 100 100 100 100 100 100

GFSWCAN_sfc_rhum_060.txt.gz
RH
92 88 85 88 92 90 84 83 84 88 83 84 91 87 88 86 84 83 88 75 74 60 54 65 47 51 42 53 66 54 61 61 73 79 70 65 84 47 48 38 58 59 70 84 63 88 78 32 28 32 27 32 26 30
94 92 90 88 86 82 85 88 85 85 86 90 88 88 88 86 82 84 94 78 71 66 82 77 78 61 38 37 47 57 43 49 53 60 68 58 96 92 46 56 46 63 50 55 50 45 39 32 25 25 29 25 33 31
94 93 94 94 95 87 91 86 88 89 89 88 89 88 88 84 80 86 92 77 80 76 72 73 78 70 66 57 42 48 45 38 51 43 62 68 94 58 92 62 48 48 53 62 53 30 35 37 28 37 32 32 32 31
92 91 92 92 93 93 93 92 92 91 90 89 89 89 87 93 90 78 82 75 70 80 87 67 60 79 62 58 58 52 43 58 59 65 72 92 92 46 63 44 50 37 49 43 43 36 46 43 39 32 38 44 42 37
88 91 88 90 91 91 91 91 91 91 90 89 90 88 84 91 87 90 88 79 69 74 90 68 54 48 71 66 62 56 59 61 74 85 98 91 59 70 72 71 64 42 41 61 56 32 42 28 37 35 42 43 40 42
88 88 87 88 90 91 94 93 90 88 87 90 91 86 91 89 79 79 95 74 67 66 72 88 63 50 51 68 75 61 58 60 61 62 84 54 50 61 89 66 39 30 35 34 35 35 36 54 52 45 44 43 44 45
85 88 87 84 86 90 92 91 91 90 85 87 92 88 82 78 75 68 67 69 73 70 70 74 80 57 51 54 83 81 72 68 63 66 70 62 66 67 91 77 39 37 35 34 43 50 49 52 43 55 53 50 56 46
88 87 87 86 86 86 86 87 89 89 85 82 84 79 78 72 64 65 81 81 67 70 88 96 90 92 75 76 95 78 87 90 90 79 77 71 62 83 89 48 40 36 38 50 50 49 52 52 53 56 54 56 57 56
88 89 89 89 88 87 87 86 84 85 84 85 85 76 70 72 81 76 91 81 71 76 87 100 99 100 97 96 94 99 96 100 95 100 82 77 76 86 49 41 44 47 53 44 52 56 57 58 56 59 59 59 58 65
89 90 89 89 89 89 88 86 86 88 87 80 72 83 96 82 86 87 92 94 91 78 90 100 86 100 98 99 100 98 97 96 100 98 92 100 80 51 43 50 48 50 50 58 67 71 67 66 64 64 62 59 60 62
89 91 93 92 89 87 86 87 86 82 77 89 91 89 85 86 97 97 100 99 96 99 80 81 92 98 91 94 99 95 100 100 100 99 100 100 94 69 71 59 59 59 58 58 57 59 59 60 65 70 72 69 68 67
86 87 89 91 89 86 87 86 83 75 82 94 90 78 92 96 92 100 98 96 84 69 84 91 85 69 91 80 79 97 100 100 99 97 100 100 92 90 84 76 70 66 66 66 62 65 66 66 67 70 75 74 73 80
91 90 88 89 87 87 87 86 87 87 88 90 83 88 88 98 99 100 100 93 94 99 98 99 98 91 91 80 99 99 100 100 98 100 100 99 96 95 95 92 92 85 84 84 87 86 88 90 88 89 93 94 97 97
93 92 91 90 88 88 90 87 86 83 86 98 100 100 100 100 98 98 96 96 100 100 100 100 100 99 100 100 100 100 100 100 100 100 97 99 99 97 96 94 93 96 96 95 97 97 97 96 97 98 97 97 96 95
92 91 89 88 88 90 88 89 88 88 92 98 96 96 97 100 98 98 100 100 100 99 100 100 100 89 100 100 100 100 100 98 94 95 96 99 99 98 96 92 93 96 97 96 97 96 97 96 94 96 95 95 92 95
90 83 81 91 92 89 89 86 90 94 100 96 90 94 93 96 96 96 96 96 98 99 100 100 100 100 100 100 99 99 97 89 91 93 95 96 95 96 95 96 96 97 96 96 96 94 93 94 93 89 88 87 95 95
87 94 92 92 94 92 90 92 95 100 96 96 95 95 96 95 96 96 96 96 98 100 100 99 98 100 98 93 92 85 91 93 95 92 93 94 95 96 96 96 96 96 94 92 90 90 88 74 69 72 82 85 79 80
97 96 93 92 87 90 94 96 89 85 91 91 93 95 94 96 96 95 96 95 98 96 93 94 91 91 93 91 90 91 90 93 92 93 94 94 96 96 96 95 95 94 88 91 91 92 90 90 83 84 82 78 70 67
97 95 92 88 83 90 98 99 73 81 93 89 90 91 91 91 89 88 90 92 81 73 77 75 84 88 91 90 92 92 94 93 91 92 92 95 95 94 96 95 94 91 88 89 87 84 85 86 84 81 81 78 80 73
95 94 92 88 79 77 86 93 70 74 86 90 88 77 76 80 74 82 79 70 61 63 77 82 87 91 91 89 91 92 93 93 88 89 90 91 92 92 93 90 87 88 84 85 86 86 80 80 79 80 79 79 82 84
84 88 73 67 74 73 86 84 89 78 80 80 75 62 68 65 80 83 78 57 74 82 85 90 92 90 92 92 90 90 91 88 89 88 89 88 90 87 87 88 88 86 85 86 85 86 84 84 81 79 88 90 88 86
73 64 71 67 72 76 74 77 84 86 76 82 72 61 76 83 83 81 59 75 79 87 87 89 89 88 87 91 92 92 94 90 90 87 90 86 87 87 88 89 84 90 88 88 82 87 84 76 78 79 85 87 78 80
64 64 76 79 82 88 82 65 83 70 89 84 72 71 75 78 68 49 78 66 80 84 85 83 90 91 90 92 88 90 92 88 87 88 88 88 86 85 82 79 78 83 82 74 68 72 78 71 75 81 79 78 78 81
63 83 88 86 77 86 84 86 67 71 78 80 77 83 81 76 61 69 78 78 82 75 74 85 79 81 80 80 84 86 88 83 83 84 85 78 74 70 65 66 68 71 67 66 71 78 78 84 78 77 81 80 80 81
81 92 85 93 82 86 93 90 88 79 90 87 85 85 84 66 79 78 79 77 82 87 85 81 78 80 82 87 84 84 75 67 71 74 70 65 70 67 68 67 71 71 70 81 83 83 84 82 81 80 77 80 80 78
96 95 86 85 88 84 88 91 93 93 88 88 91 77 77 78 80 84 72 82 87 86 91 90 88 82 77 66 66 69 70 57 57 69 70 65 66 75 77 77 77 80 75 82 84 81 80 80 81 80 79 77 81 81
92 91 78 66 73 74 86 82 73 82 89 92 88 83 79 87 86 79 75 77 76 84 79 78 68 67 69 67 63 65 65 66 70 66 64 64 66 67 77 82 85 81 72 79 82 83 83 81 81 81 80 78 79 82
83 76 89 90 85 76 90 87 88 91 87 76 72 92 87 83 81 79 76 78 80 76 77 76 72 69 72 75 76 76 76 77 80 73 70 71 72 78 80 80 84 88 79 83 80 79 80 80 80 79 81 82 83 82
92 84 77 95 86 86 90 91 88 80 77 75 86 85 84 73 82 80 80 80 80 76 77 78 85 81 79 77 82 79 80 78 61 72 76 82 82 85 81 82 82 84 84 80 79 79 78 80 82 84 82 85 84 82
91 83 85 89 92 91 93 85 90 88 74 78 69 69 71 82 86 81 82 83 84 91 91 88 88 84 86 83 86 84 87 88 88 82 82 86 87 86 86 85 85 87 87 85 84 77 83 81 77 78 79 81 83 83
85 84 86 84 87 84 85 87 86 82 83 83 83 84 84 85 86 85 84 87 87 89 87 89 90 88 86 84 83 81 87 91 91 89 85 86 85 84 85 87 88 87 87 85 84 84 84 82 83 82 82 83 84 85
90 93 88 90 92 86 90 90 89 86 90 85 90 90 92 89 89 88 89 90 90 89 98 91 88 90 88 87 90 89 97 89 87 89 82 86 84 85 84 83 86 86 85 84 84 85 84 84 84 85 85 83 85 86
93 90 88 89 92 92 89 89 84 90 89 88 91 91 90 85 86 88 89 89 87 85 87 89 90 89 88 88 87 90 94 88 88 91 92 92 98 96 89 84 84 85 84 84 84 84 82 82 82 84 83 86 86 86

GFSWCAN_sfc_rhum_063.txt.gz
RH
91 92 91 88 90 90 92 92 86 85 86 87 85 84 88 89 88 92 69 62 68 59 45 43 45 40 36 35 55 42 61 56 65 74 64 48 67 33 30 26 54 64 68 85 66 77 76 27 25 32 29 22 20 19
92 92 93 92 90 87 91 88 83 84 85 86 84 84 86 86 87 87 86 74 61 75 71 49 53 37 49 26 35 46 54 44 41 46 54 47 78 80 38 54 31 65 42 55 45 44 31 30 28 26 21 24 23 23
91 92 95 90 88 92 85 84 84 84 86 84 84 85 89 90 88 85 80 77 74 90 78 61 54 53 49 47 52 49 47 34 37 33 39 54 69 43 76 50 34 36 32 50 44 32 28 28 27 25 25 27 22 24
92 93 93 94 89 89 92 90 88 88 86 84 86 89 88 93 83 70 72 68 67 71 87 64 50 52 52 52 57 52 39 37 35 39 58 75 73 27 54 34 34 28 26 36 37 28 23 28 31 32 24 28 26 26
91 92 92 92 94 93 92 92 89 88 92 92 92 91 87 90 82 83 87 74 56 52 67 63 54 52 51 47 60 50 52 44 46 62 83 73 36 34 40 46 45 23 28 48 52 31 39 32 28 31 30 28 32 29
88 91 90 91 91 91 93 93 92 92 91 92 91 91 92 87 90 87 96 77 52 41 52 72 49 66 68 69 68 58 52 55 55 58 68 39 28 41 78 58 31 23 20 23 32 27 31 40 42 36 35 30 31 32
88 89 91 90 89 90 92 92 92 91 90 91 87 89 86 87 87 77 69 56 57 40 48 62 57 47 59 67 76 66 57 56 57 64 69 51 43 48 78 69 29 24 24 24 25 30 45 38 37 40 39 36 44 34
88 87 89 89 90 90 89 92 90 93 88 92 87 85 84 82 75 64 58 69 53 42 47 64 73 69 53 69 93 72 74 65 60 58 54 58 52 70 74 39 33 30 28 30 32 36 42 39 41 41 41 42 44 41
90 88 88 88 89 90 89 89 90 90 88 84 73 67 63 62 64 63 81 74 58 51 62 100 82 92 67 64 86 87 78 88 71 83 71 58 66 75 46 37 32 32 36 34 30 31 37 47 43 42 45 47 45 48
90 90 90 89 86 89 86 86 83 80 73 65 57 54 70 76 89 80 83 73 58 60 74 87 68 92 94 94 98 99 89 88 98 93 63 78 70 39 40 58 44 42 50 42 54 55 52 53 49 49 49 48 47 50
88 89 89 88 87 88 88 86 80 76 79 66 70 92 80 89 77 82 95 82 86 91 72 64 64 78 90 100 98 90 97 98 100 93 96 95 89 80 68 64 60 56 53 50 50 52 52 52 52 56 57 56 57 58
92 87 87 88 87 86 83 84 81 71 76 91 80 69 74 76 96 100 96 82 76 63 67 78 83 86 99 100 98 99 99 100 100 97 100 100 98 95 91 85 81 70 64 58 56 58 59 57 60 67 72 82 86 84
89 87 87 85 84 85 87 85 87 82 81 78 68 84 98 93 100 100 92 85 91 82 88 96 98 96 98 94 99 98 100 100 95 100 99 98 98 96 96 97 97 95 89 86 88 86 87 91 91 92 96 95 94 95
84 86 87 88 86 87 86 86 83 79 66 92 100 100 100 100 97 97 96 100 100 100 100 91 100 97 100 100 100 100 100 100 100 99 97 90 99 99 96 97 93 96 97 97 97 97 97 96 97 98 98 97 96 96
88 89 89 89 89 88 87 86 82 65 72 95 87 96 95 97 96 98 98 100 98 99 97 98 100 97 100 100 100 100 100 98 92 94 91 96 96 94 95 94 94 94 97 97 96 95 96 96 94 96 97 96 94 96
83 78 84 91 90 87 85 78 74 70 77 79 83 90 86 94 94 95 97 97 93 96 97 99 100 100 100 100 100 98 96 91 94 93 93 91 93 94 94 95 96 98 97 95 94 90 90 90 91 91 92 91 96 95
80 75 92 90 87 86 86 83 77 88 86 92 93 93 94 92 94 96 98 95 94 100 100 96 98 99 82 88 88 85 92 92 94 93 90 93 94 96 97 96 98 97 94 91 90 90 91 89 83 75 83 88 84 87
90 94 90 88 76 81 80 82 80 84 90 92 93 95 94 95 95 92 93 93 96 89 85 92 77 83 88 89 87 88 88 93 91 91 92 94 95 97 97 96 97 95 91 92 92 92 90 91 87 88 85 82 78 73
92 93 92 89 86 89 96 94 67 84 93 91 91 91 92 94 93 94 95 95 94 91 87 90 90 90 90 89 93 93 94 92 89 91 92 95 95 95 96 95 93 93 91 91 90 89 87 85 83 80 78 72 75 72
95 95 92 84 70 74 89 88 60 73 86 89 92 87 83 88 87 89 88 82 82 85 88 88 90 92 92 91 92 92 94 92 87 88 90 90 92 92 93 90 89 90 87 87 88 82 74 75 71 71 72 73 79 82
90 91 78 68 63 65 80 78 73 68 75 77 70 60 72 69 79 82 76 56 75 80 84 89 92 90 92 92 90 89 91 86 89 87 88 87 90 86 87 88 88 86 86 86 84 82 81 80 75 74 84 88 85 84
72 62 65 61 65 67 71 70 71 77 73 72 62 58 75 82 80 77 56 71 81 86 84 84 86 82 80 87 89 89 92 89 90 84 87 84 85 85 86 88 83 89 86 87 79 82 75 69 69 72 78 80 71 74
64 60 72 74 96 94 91 56 86 64 81 75 62 68 73 75 63 47 73 63 80 82 82 81 88 86 85 91 85 89 91 87 84 85 86 86 84 86 82 76 73 76 74 66 61 68 75 66 72 77 74 73 73 76
62 91 95 91 83 93 88 85 59 63 71 73 69 77 73 70 56 65 77 78 80 70 72 83 79 79 75 74 76 80 84 78 80 82 80 75 70 66 62 63 65 66 63 61 67 73 72 78 70 71 75 74 74 75
75 89 88 84 80 82 85 87 84 72 80 73 76 76 77 62 74 72 76 77 80 84 83 75 73 76 79 85 79 70 58 55 62 64 62 59 64 63 62 60 62 62 64 76 77 77 78 76 75 74 73 77 74 71
88 87 81 81 80 79 78 83 83 83 78 80 83 73 78 74 73 80 70 83 87 84 90 90 85 78 69 60 62 64 62 52 54 63 61 58 60 70 70 71 73 75 68 75 77 75 74 72 74 70 72 69 70 72
84 86 72 56 62 65 80 77 68 77 82 84 81 79 76 79 81 77 70 73 73 80 74 74 60 58 58 57 57 59 58 60 63 58 56 56 59 61 73 79 80 77 66 71 75 75 76 74 74 73 74 73 74 75
74 70 86 82 77 67 81 77 79 82 80 70 69 86 81 78 80 79 75 74 76 70 70 65 62 60 63 65 66 68 70 70 73 66 64 64 64 70 72 76 75 75 75 78 77 76 76 75 75 74 75 76 78 74
81 74 69 86 76 77 81 80 78 72 69 69 81 78 78 66 82 79 78 74 73 72 71 74 79 76 73 70 74 72 75 74 65 66 70 77 78 81 73 74 76 77 76 73 73 75 75 76 79 79 74 77 74 72
84 73 76 80 82 84 88 79 86 83 67 70 64 65 71 79 79 75 76 78 80 86 84 80 82 80 82 80 80 79 81 82 83 80 77 81 83 79 78 78 78 79 78 77 76 70 68 70 66 72 73 75 77 78
76 76 75 74 82 87 87 85 83 78 78 81 78 80 80 83 83 78 76 79 80 82 81 84 84 80 79 77 76 77 84 84 81 80 75 77 77 78 79 79 80 80 78 76 76 76 77 76 75 73 73 74 75 77
82 78 79 83 88 86 83 86 81 81 81 82 85 81 85 83 82 83 82 83 83 82 92 82 81 84 80 79 80 85 85 79 78 78 64 77 78 76 76 75 78 78 77 77 77 77 74 75 77 76 77 74 77 78
80 80 79 81 86 84 84 82 73 81 80 80 82 80 80 79 80 87 80 83 88 84 81 80 82 83 80 75 75 82 82 79 87 88 86 85 90 87 85 78 78 78 76 78 76 76 74 73 76 76 76 78 78 79

GFSWCAN_sfc_rhum_069.txt.gz
RH
89 92 92 93 91 90 90 91 90 89 85 87 87 88 86 83 82 92 96 90 97 89 79 72 58 60 53 54 66 60 62 69 92 90 86 96 92 72 64 65 77 80 85 90 89 88 82 37 35 42 46 39 36 44
92 92 94 89 92 90 91 95 93 90 84 84 84 84 85 86 84 89 97 89 94 97 90 80 79 76 76 75 61 57 55 75 90 91 91 84 90 85 61 73 60 84 76 79 72 74 53 47 50 42 42 42 44 45
92 93 94 92 91 92 88 92 94 92 90 88 92 88 88 85 90 85 93 96 97 97 96 92 87 69 57 65 63 67 64 76 81 79 90 83 70 79 77 61 46 57 55 76 67 60 71 73 70 50 43 46 38 41
93 94 95 94 93 92 91 90 91 90 90 90 89 87 85 88 89 82 96 94 95 95 99 91 72 79 65 61 57 63 74 81 72 88 94 96 88 64 82 63 62 65 59 68 73 62 60 55 68 44 44 48 47 45
93 95 96 96 95 93 91 91 90 95 88 87 88 89 89 87 79 86 93 94 95 89 96 93 74 79 84 62 71 68 75 80 96 97 99 96 75 74 76 73 71 46 59 79 75 56 62 55 48 43 40 41 49 52
94 95 95 94 95 94 95 93 91 91 92 92 90 93 90 85 78 94 99 96 96 94 95 98 74 68 64 66 64 72 83 89 95 96 98 91 69 71 93 76 43 36 34 35 36 36 45 54 55 47 48 55 51 52
94 92 94 94 94 93 92 92 90 88 89 86 85 91 90 88 90 93 93 92 87 93 95 98 91 72 66 68 78 84 84 95 94 93 96 93 81 81 90 82 45 39 37 39 40 46 48 49 63 56 52 51 54 51
94 94 94 93 94 92 91 90 91 91 90 88 92 92 93 89 87 82 83 83 83 95 90 93 94 90 69 89 93 85 93 93 93 97 96 93 88 89 85 58 51 59 58 55 60 49 46 51 54 55 53 55 58 60
94 94 91 92 93 91 88 87 88 90 90 90 88 86 90 94 96 81 71 80 84 81 91 98 97 98 84 82 86 92 92 98 93 98 96 97 89 96 95 92 86 81 77 71 67 65 62 62 57 60 59 60 66 72
94 94 94 93 92 92 93 93 91 90 92 90 85 86 98 97 82 79 78 84 89 82 84 97 88 99 93 99 100 98 99 96 96 95 89 96 100 95 95 92 82 80 77 76 78 78 74 75 77 82 83 80 76 74
90 92 91 90 89 89 85 82 81 81 79 92 94 98 88 84 87 87 95 90 84 91 84 84 85 98 95 98 99 100 96 99 94 90 85 94 99 96 93 93 82 80 80 81 77 79 80 80 84 86 88 88 86 84
84 84 82 83 83 85 85 86 78 83 93 86 80 82 89 88 90 90 95 91 87 83 86 92 98 97 98 92 98 99 100 99 98 93 94 99 93 89 86 85 86 85 84 86 85 89 88 86 87 89 90 91 90 87
85 84 85 89 89 88 87 86 84 83 84 82 83 93 87 96 92 90 86 94 98 98 99 98 97 94 95 95 98 99 98 99 99 99 97 97 95 86 88 85 88 88 88 88 90 89 89 92 90 89 94 96 95 94
88 88 88 88 86 84 83 84 83 82 83 94 96 95 95 95 98 98 97 98 99 99 98 99 100 97 95 98 99 99 99 98 98 97 96 97 97 96 96 95 90 96 97 96 97 97 96 95 96 96 96 96 94 95
86 83 80 89 87 84 82 80 71 74 86 92 88 98 97 98 94 96 96 98 97 97 98 99 100 99 98 98 99 98 98 97 97 97 97 97 97 96 96 96 96 97 97 97 96 96 96 95 94 95 96 95 94 95
81 78 88 89 81 80 78 70 75 81 91 86 89 94 92 94 95 95 96 97 94 97 97 100 100 99 98 97 94 97 92 96 97 97 97 96 96 97 97 97 97 97 96 96 96 95 95 94 94 95 94 94 95 94
86 91 84 86 85 74 74 80 82 81 90 90 98 96 97 97 98 98 98 96 95 99 99 98 94 98 96 93 93 94 97 97 97 96 95 96 97 97 96 96 96 96 96 95 95 94 95 93 87 83 92 94 91 90
93 91 84 85 86 82 83 82 86 82 86 96 96 98 96 98 97 97 97 96 98 98 93 92 88 90 97 93 96 97 97 96 95 96 96 96 96 96 95 96 96 96 95 96 95 96 95 93 91 94 93 91 89 87
91 88 87 88 88 86 91 91 80 90 97 98 98 96 96 97 94 96 96 90 87 80 89 91 91 97 97 97 97 96 97 96 96 96 96 96 96 95 95 95 95 95 94 94 93 92 92 93 93 91 90 89 92 88
86 85 86 89 81 86 91 95 81 88 96 96 97 93 93 96 94 89 82 78 74 79 90 94 97 97 97 96 96 96 97 96 94 94 95 95 95 94 95 94 94 94 92 91 92 91 89 89 89 89 89 84 90 94
89 89 83 78 82 84 93 94 91 93 95 97 90 90 95 78 78 82 78 63 80 93 94 96 96 96 95 95 94 93 94 88 94 92 94 93 95 92 92 93 93 92 92 93 93 93 93 93 82 81 88 92 92 88
88 76 89 90 91 88 93 88 91 90 89 85 89 88 93 93 94 88 68 82 92 96 95 93 94 92 90 94 95 94 95 91 92 90 91 88 92 92 93 94 90 94 93 93 90 92 91 83 86 92 90 90 85 86
78 86 94 91 88 88 94 87 88 85 92 90 90 86 91 94 89 76 93 82 95 94 92 92 94 94 94 96 92 94 95 92 92 93 93 94 94 94 93 93 87 88 89 84 80 85 88 84 87 91 91 91 91 92
79 96 95 96 88 93 90 90 86 84 88 88 87 90 87 94 85 91 94 96 95 83 94 95 87 87 80 80 90 93 94 92 92 92 92 87 86 82 77 82 89 88 81 82 86 91 92 92 91 88 91 94 93 95
81 88 89 90 90 86 88 78 88 87 93 87 89 94 92 90 92 94 93 97 95 96 93 86 88 84 90 94 93 92 76 80 89 88 89 83 78 78 80 79 84 84 88 94 95 94 94 94 95 92 89 92 92 95
93 88 90 85 89 85 82 86 89 89 90 94 96 90 93 92 93 99 93 97 98 97 97 96 92 87 85 80 86 84 80 68 70 81 80 79 86 90 90 92 93 95 90 93 96 94 92 93 95 95 98 95 98 95
94 94 84 70 81 82 92 89 84 92 96 98 96 92 92 96 100 98 96 94 97 96 87 85 74 76 78 79 76 77 77 76 79 77 77 78 80 84 93 99 100 98 94 94 94 98 99 98 97 98 99 98 98 98
86 84 96 93 88 82 90 92 94 96 96 89 91 97 99 100 100 98 98 96 94 80 80 80 80 82 85 91 94 96 96 94 91 90 85 88 93 95 94 97 98 98 97 99 97 96 98 99 99 97 98 99 99 99
94 87 87 92 89 93 96 96 97 90 82 93 97 98 98 95 97 97 96 96 95 92 93 94 96 94 91 91 93 94 96 97 95 95 100 100 100 99 98 98 97 99 99 97 94 99 94 97 96 96 100 98 99 98
93 90 90 91 94 98 99 97 97 96 91 93 87 83 91 98 97 97 96 97 96 97 98 97 96 97 98 98 100 100 98 99 100 100 98 100 100 100 100 100 100 99 98 97 99 98 98 98 99 98 94 96 97 96
92 92 88 91 98 97 96 96 94 91 95 94 91 94 97 99 96 96 97 97 96 97 96 98 98 98 97 99 99 100 100 100 96 97 98 100 100 100 98 100 98 98 98 96 97 97 93 96 98 97 96 95 97 99
95 92 92 97 99 96 97 97 97 97 98 97 98 96 98 98 100 99 96 97 98 99 98 97 96 100 100 100 100 99 98 99 99 100 100 100 100 100 100 99 98 98 95 95 99 97 94 95 97 99 100 99 98 97
93 89 93 95 99 99 94 97 91 92 95 97 98 98 98 98 100 100 95 97 98 97 96 98 99 99 99 96 98 100 100 100 100 100 100 100 100 100 100 100 99 98 100 100 99 99 99 98 99 98 97 99 100 100

GFSWCAN_sfc_rhum_072.txt.gz
RH
87 88 90 92 93 92 90 89 88 88 87 87 88 87 85 82 84 90 98 93 96 100 86 55 60 63 60 61 79 68 67 76 90 83 76 95 94 78 78 63 74 70 85 88 90 92 82 50 43 48 52 46 43 40
90 91 92 95 93 91 90 90 89 94 89 88 89 87 84 86 85 85 99 92 88 97 91 80 65 51 43 44 59 66 64 71 80 85 94 92 93 93 76 72 61 77 66 75 70 75 60 72 65 64 60 56 49 48
92 92 95 96 95 93 93 89 92 90 90 90 88 88 86 86 85 88 96 93 95 95 98 90 82 73 64 66 66 72 77 74 86 86 94 96 94 82 85 75 58 62 65 73 66 64 65 66 62 69 68 59 52 52
93 96 95 96 93 91 92 91 94 93 91 90 91 89 87 87 85 86 92 93 90 97 100 92 77 77 74 68 69 72 64 81 80 89 91 96 95 81 82 61 62 54 68 67 73 69 66 70 66 62 63 65 52 50
94 95 96 95 95 94 94 94 94 91 88 89 89 88 90 87 90 85 97 92 90 98 97 98 76 82 84 84 80 80 80 86 95 95 98 96 94 84 89 81 76 68 76 81 83 59 61 57 61 64 61 45 52 55
95 95 96 94 92 92 95 90 92 92 93 91 91 91 90 91 83 93 98 93 92 98 94 98 87 90 86 89 86 83 87 95 95 95 98 95 87 92 98 73 53 50 45 54 45 42 57 50 48 50 45 47 54 58
94 96 94 92 93 92 95 92 90 89 88 88 89 89 87 85 96 97 95 95 95 97 96 98 95 82 82 89 90 92 92 95 91 93 95 96 91 81 99 96 87 82 71 68 69 51 59 60 62 58 57 57 59 57
95 96 92 92 92 92 91 93 91 93 93 90 88 88 86 94 95 96 91 86 90 95 89 97 99 91 72 91 92 91 96 93 90 96 96 95 92 96 99 91 85 84 77 76 78 72 51 62 61 60 59 60 67 73
92 91 91 91 94 94 95 92 88 88 91 92 91 92 90 96 98 99 92 87 94 85 94 98 96 100 87 96 92 94 93 96 92 98 97 94 99 100 100 98 94 88 92 90 82 75 70 68 69 70 68 73 76 78
92 91 90 91 90 90 92 94 90 91 91 87 89 94 99 99 90 88 86 88 84 86 92 94 93 99 93 99 100 99 99 98 99 96 97 99 99 99 98 98 88 84 86 86 92 94 88 86 86 84 80 75 75 78
89 90 88 88 88 88 86 84 88 90 90 92 95 99 89 82 86 88 93 90 87 88 85 86 92 98 94 98 99 99 99 96 96 92 95 98 96 92 92 97 94 89 81 85 86 88 86 84 86 88 88 86 84 81
86 88 89 89 89 83 83 85 84 90 95 86 86 91 90 88 89 86 97 91 89 97 98 98 99 96 98 97 92 99 99 97 98 96 94 94 94 88 84 88 89 95 90 86 84 88 88 86 87 88 88 89 89 86
88 88 89 88 87 84 82 82 85 83 86 87 87 88 83 90 89 93 95 96 98 99 98 99 98 98 95 91 97 99 99 98 98 98 96 96 93 89 91 90 91 90 87 86 88 88 88 90 88 89 94 94 91 94
86 85 84 85 85 85 78 75 77 77 80 92 88 93 94 96 98 98 97 98 99 98 97 99 98 91 96 94 99 99 99 93 96 96 97 96 97 96 95 94 89 94 92 93 95 94 95 94 96 95 96 96 94 95
84 86 84 88 85 82 76 73 74 77 83 92 87 98 96 98 95 97 97 98 97 97 98 99 98 96 99 98 98 94 92 98 95 98 98 97 97 95 96 94 94 94 95 95 94 94 95 95 94 95 96 95 94 94
87 80 91 88 87 78 74 75 79 85 91 87 91 94 95 96 96 97 95 96 93 96 97 99 99 99 99 95 90 97 89 96 96 97 96 95 96 96 96 96 96 96 96 95 95 95 95 94 94 95 94 94 95 94
86 96 88 87 86 77 77 82 83 86 94 91 98 99 99 100 99 99 98 96 94 98 99 98 93 98 95 95 92 92 97 98 98 96 96 96 96 97 97 96 96 96 96 95 95 94 95 95 93 88 92 95 92 92
96 92 86 86 87 83 88 84 88 85 93 97 97 98 99 98 98 98 96 93 96 99 94 96 84 91 99 96 97 97 97 96 95 96 96 96 96 96 95 96 96 95 94 94 95 95 95 94 91 93 92 91 89 89
92 90 86 84 88 87 92 92 84 95 98 97 95 95 98 98 91 89 90 86 83 79 86 90 92 97 98 97 98 97 97 96 95 96 95 95 96 95 95 95 95 94 94 94 93 92 92 93 93 92 92 88 91 89
84 83 82 84 77 89 91 94 85 90 96 96 94 85 84 90 83 84 81 76 71 79 90 96 98 98 98 97 97 97 96 94 88 91 94 94 95 94 95 94 94 94 92 92 92 93 91 90 90 90 88 86 89 93
87 87 83 84 87 87 94 96 97 93 94 96 92 90 90 77 78 81 79 65 80 93 95 96 97 96 96 96 95 92 94 88 94 89 93 94 95 92 93 94 92 91 91 93 93 94 91 92 88 87 92 95 94 92
87 77 91 89 92 86 89 93 97 97 95 97 98 90 96 96 97 93 71 86 94 96 96 95 95 94 92 94 95 95 95 91 92 91 94 91 93 93 93 94 91 94 94 94 92 94 93 92 87 89 92 94 93 91
81 86 92 85 87 86 92 87 88 87 95 90 89 88 94 95 97 75 97 86 96 97 97 94 94 93 94 95 90 93 94 89 92 92 92 93 93 94 93 93 93 92 92 90 82 87 92 88 92 96 92 93 94 96
76 94 93 94 89 99 89 89 87 87 87 91 92 98 93 93 86 92 98 96 96 93 92 96 90 88 83 82 91 93 95 91 92 93 93 90 90 91 86 89 89 90 86 88 90 90 90 95 94 92 95 95 98 100
80 85 86 89 89 85 87 90 91 87 97 95 95 98 97 88 97 98 98 97 96 98 98 92 88 86 91 94 92 92 90 85 88 89 92 78 84 85 88 88 91 92 91 92 96 97 100 95 94 94 95 97 98 100
96 93 96 93 94 90 95 94 98 98 98 98 98 96 93 94 96 100 96 98 98 98 99 98 95 92 90 87 88 88 84 77 78 88 88 86 89 94 97 98 98 96 94 99 94 98 100 100 99 98 100 99 99 98
98 98 91 71 86 83 93 92 87 94 99 100 99 96 94 100 100 99 98 98 98 98 95 90 82 82 83 81 78 82 83 83 85 83 79 80 85 86 92 98 100 99 97 96 98 96 99 100 100 100 100 100 100 100
93 87 94 95 92 90 97 99 100 100 100 93 90 100 100 100 100 98 99 98 97 89 89 88 86 88 92 94 96 96 94 93 92 92 93 94 97 98 99 100 99 100 100 99 99 98 99 100 100 100 100 100 100 100
96 92 87 100 95 98 99 100 100 98 93 99 100 100 100 97 98 100 98 97 96 91 93 94 98 95 94 94 97 97 99 99 100 100 100 100 100 99 100 100 100 100 99 100 100 100 96 97 98 99 100 99 98 100
96 92 93 99 98 100 100 99 99 100 95 97 94 87 94 97 97 98 98 97 97 98 99 97 96 98 100 100 100 99 99 100 100 95 100 100 100 100 100 100 100 100 100 100 100 97 100 99 100 99 97 99 99 100
93 93 94 98 100 100 99 100 98 93 97 98 100 100 100 100 97 97 98 98 98 98 97 100 100 100 99 100 100 100 100 99 100 100 100 100 100 100 100 100 100 100 100 100 100 100 100 100 100 100 100 100 100 100
96 98 95 100 100 97 98 99 100 100 100 100 100 100 100 100 100 100 99 100 99 99 100 100 100 100 100 100 100 100 100 100 100 100 100 100 100 100 100 100 100 100 99 100 100 100 98 99 100 100 100 100 100 100
96 97 100 100 99 100 98 97 100 99 99 100 100 99 99 98 100 98 98 99 100 98 99 100 100 100 100 100 100 100 100 100 100 100 100 100 100 100 100 100 100 100 100 100 100 100 100 100 100 100 100 100 100 100

GFSWCAN_sfc_rhum_075.txt.gz
RH
86 86 89 88 90 90 92 91 92 92 88 89 90 87 87 89 84 91 93 94 97 99 94 72 61 71 68 66 81 71 73 80 90 87 90 90 95 81 72 70 81 80 90 95 95 95 88 55 58 55 58 54 52 53
89 90 91 94 95 95 94 93 92 89 88 88 89 89 90 88 85 86 96 94 91 97 97 96 66 50 46 48 54 63 64 76 81 85 92 91 94 95 81 84 63 83 72 77 71 79 56 66 62 65 62 58 55 63
91 92 94 94 95 94 90 88 90 90 89 86 88 87 91 88 86 86 97 94 96 98 94 94 88 61 42 47 51 75 79 72 82 84 95 93 83 86 89 85 61 58 70 78 77 60 67 64 68 71 68 60 56 55
93 93 94 96 94 94 94 96 94 92 90 91 92 90 88 90 86 89 96 91 91 96 99 92 81 82 70 58 58 61 65 79 77 88 91 96 93 82 88 66 73 57 66 71 71 66 65 63 65 56 65 64 55 52
94 96 94 94 95 94 94 94 94 96 95 90 90 91 88 87 90 92 93 90 91 91 94 96 84 84 92 85 79 77 75 85 93 92 98 94 92 86 92 87 90 78 79 82 60 52 63 54 52 59 64 62 50 59
97 93 94 94 93 92 94 92 92 93 92 90 91 88 87 89 87 91 99 95 89 95 98 98 91 90 90 89 88 91 92 96 93 93 97 95 88 84 97 89 83 78 77 82 86 74 61 59 55 63 59 50 58 60
94 95 95 95 96 94 91 93 92 90 92 90 88 88 91 86 88 95 94 94 85 94 99 99 99 89 90 91 95 93 91 97 93 95 94 94 94 91 99 99 85 82 80 81 79 84 59 70 63 66 64 68 69 65
90 90 92 96 93 94 94 91 94 92 89 90 93 92 88 83 87 95 96 91 91 96 98 99 100 95 80 96 96 96 96 94 92 95 98 92 95 96 99 93 87 84 83 80 86 83 86 73 73 74 73 72 71 73
90 90 91 93 93 91 91 90 90 90 90 89 89 89 95 97 99 99 91 90 96 95 92 96 97 99 90 96 96 96 94 96 94 99 95 92 98 98 97 95 94 93 94 93 87 85 84 88 86 82 77 75 77 80
89 90 90 92 92 89 93 89 87 91 89 92 93 96 100 100 96 98 99 93 87 85 88 98 94 100 95 98 100 99 98 98 99 96 95 94 100 94 90 87 90 95 95 94 95 96 94 94 92 89 85 80 77 78
89 89 89 89 88 86 88 89 86 86 85 93 97 100 96 93 92 89 93 90 86 84 93 97 96 98 95 97 100 98 99 96 98 95 94 98 93 91 88 86 89 91 96 98 93 88 89 90 91 90 88 84 82 80
86 86 86 86 82 84 87 87 86 91 92 84 88 91 90 84 86 85 97 94 96 98 98 99 99 97 98 96 96 99 95 98 98 95 97 94 92 92 84 87 88 93 92 93 94 87 88 86 86 86 86 87 88 87
85 85 85 85 82 78 77 80 84 83 86 82 81 79 80 88 89 89 98 94 97 98 97 98 99 100 95 92 98 99 99 99 99 97 95 96 96 90 90 89 86 90 89 88 92 90 87 89 86 87 93 94 92 94
86 86 85 84 84 74 76 73 74 72 78 89 87 92 93 95 98 98 98 99 99 98 97 99 99 92 94 91 100 98 99 93 96 96 95 95 94 93 94 94 89 95 94 93 95 94 94 93 95 94 95 95 93 95
88 84 82 87 81 81 69 73 70 76 82 93 86 99 96 97 97 97 98 98 97 98 98 99 99 96 97 94 97 92 88 98 95 97 97 97 97 95 95 92 93 93 95 95 95 94 95 95 94 95 95 95 94 94
86 82 91 88 80 78 72 69 77 83 90 87 89 94 95 95 96 97 96 96 94 96 97 98 98 95 99 96 90 98 89 97 98 96 96 96 96 96 95 95 96 96 96 96 95 95 95 94 94 95 94 94 95 94
82 95 88 87 85 70 72 80 82 87 93 90 97 98 99 98 98 98 98 96 92 98 100 96 93 96 93 95 92 92 98 97 97 96 95 96 96 96 96 96 96 96 96 96 95 94 95 94 93 88 92 95 93 93
94 94 86 86 86 80 88 86 86 84 94 98 97 97 98 98 97 96 96 88 95 95 82 93 76 89 98 95 97 98 97 96 95 96 96 95 95 96 95 95 95 95 95 95 95 95 95 94 92 93 93 93 91 91
92 90 83 84 82 87 89 92 80 92 97 98 98 96 99 98 91 90 88 87 85 81 85 89 92 97 98 97 98 98 98 98 96 96 95 95 94 94 95 95 95 95 94 95 94 93 93 94 94 92 92 89 91 89
84 82 84 82 79 88 88 96 86 87 94 94 93 84 88 92 87 89 83 75 72 81 91 95 99 98 98 98 98 98 98 97 90 92 94 95 95 94 95 94 94 95 93 94 93 93 91 90 89 87 85 85 91 94
84 84 82 83 90 88 94 97 96 93 92 95 83 83 94 79 79 84 83 71 88 96 96 96 98 97 96 96 96 93 95 90 96 90 94 95 95 92 92 94 93 92 92 93 93 94 93 94 90 87 93 96 96 96
88 82 89 85 88 84 90 95 95 96 93 93 96 86 95 96 97 94 77 87 96 98 98 98 97 94 92 94 95 94 95 92 92 91 92 89 94 93 93 95 92 94 94 95 92 95 94 89 90 92 94 95 91 93
78 83 91 83 85 85 92 88 90 88 93 97 89 90 94 98 94 68 96 86 96 95 96 94 97 94 94 95 91 93 94 91 92 93 93 93 93 94 93 93 93 93 93 90 86 92 96 93 94 94 93 91 90 95
71 89 92 94 88 97 89 90 86 84 89 93 94 99 95 96 85 93 98 97 96 93 92 96 90 90 86 84 91 93 95 91 91 92 93 90 91 92 87 90 90 92 88 84 88 94 95 98 97 96 98 98 100 100
82 90 85 88 89 84 91 94 92 89 98 97 95 98 99 87 97 99 100 98 97 99 97 92 87 86 91 96 94 94 91 86 89 91 92 84 90 88 90 89 92 93 90 92 98 97 100 98 98 99 100 100 100 100
96 96 94 98 96 93 96 99 99 100 98 98 99 97 94 95 97 100 97 99 99 99 99 99 97 93 90 86 89 90 91 86 80 89 90 90 87 94 96 97 99 98 95 99 95 100 100 100 99 99 100 100 100 100
98 99 90 70 86 84 95 94 88 95 100 100 100 98 96 100 100 98 97 97 99 98 96 94 84 83 86 85 84 88 87 85 87 86 84 84 86 86 92 98 100 99 95 97 98 96 98 100 100 100 100 100 100 100
94 85 92 97 95 90 99 100 100 100 100 93 89 100 100 100 100 98 99 98 98 93 92 93 91 90 92 94 94 95 97 95 94 92 91 93 97 100 100 100 100 100 100 100 100 100 100 100 100 100 100 100 100 100
97 94 87 100 96 97 99 100 100 99 95 98 100 100 100 96 98 100 98 99 98 93 95 95 98 97 97 96 98 98 99 100 100 100 100 100 100 100 100 100 100 100 100 100 100 100 98 99 100 100 100 99 100 100
99 93 95 99 98 100 100 99 100 100 97 99 94 91 94 97 98 99 99 98 97 98 98 97 98 96 98 98 100 100 100 100 100 98 100 100 98 99 100 100 100 100 100 100 100 97 100 100 100 99 99 100 100 100
93 94 96 97 100 100 99 100 100 98 99 100 100 100 100 99 98 97 97 98 98 97 97 99 100 100 99 100 100 100 100 100 100 100 100 100 100 100 100 100 100 100 100 100 100 100 100 100 100 100 100 100 100 100
96 98 95 100 99 98 98 100 100 100 100 100 100 100 100 100 100 100 99 99 99 100 100 100 100 100 100 100 100 100 100 100 100 100 100 100 100 100 100 100 100 100 100 100 100 100 100 100 100 100 100 100 100 100
98 98 100 100 99 100 99 97 100 100 100 100 100 100 100 99 100 97 98 100 100 99 99 98 100 100 100 100 100 100 100 100 100 100 100 100 100 100 100 100 100 100 100 100 100 100 100 100 100 100 100 100 100 100

GFSWCAN_sfc_rhum_081.txt.gz
RH
83 85 85 86 87 87 88 90 89 90 92 89 87 86 85 85 83 91 94 95 98 100 97 76 72 82 73 69 85 82 91 95 99 98 92 92 89 66 60 55 73 84 91 94 89 92 84 57 57 66 60 65 59 52
85 85 87 89 91 91 92 91 90 91 90 92 91 88 88 87 85 84 94 94 93 98 97 96 88 78 53 53 64 74 73 77 80 84 89 82 89 88 67 66 53 62 74 79 76 74 63 63 61 62 63 68 55 60
90 92 93 93 93 93 93 93 91 92 92 92 92 90 89 88 87 86 93 97 96 99 98 96 96 75 66 59 55 77 77 69 77 75 84 84 79 72 83 72 57 49 57 72 68 54 66 57 54 59 56 60 60 62
94 94 95 95 95 95 94 93 93 94 91 90 92 90 90 89 89 87 95 95 89 98 100 87 71 75 70 66 62 62 65 75 74 84 88 91 82 69 73 58 59 52 55 62 71 60 66 53 57 64 65 69 58 52
94 96 94 93 94 95 93 92 93 93 92 90 91 90 90 91 89 93 97 89 81 89 93 84 86 74 64 68 72 65 64 72 92 92 95 89 77 83 85 78 70 68 69 75 69 82 87 78 67 73 78 76 66 60
94 94 93 93 96 94 94 93 94 97 95 92 90 88 91 93 92 97 100 93 82 93 94 96 85 96 92 76 75 73 73 84 86 87 88 84 78 77 91 73 87 85 80 80 87 80 82 77 75 72 76 70 66 66
95 94 93 96 94 94 90 93 95 95 92 91 90 90 91 93 94 95 95 94 86 90 91 94 95 93 92 89 90 84 78 88 87 88 92 87 88 79 90 85 81 80 80 78 80 83 81 81 86 72 71 65 65 64
93 94 93 96 93 93 93 91 93 91 92 92 92 92 90 86 94 97 94 79 80 94 93 98 98 99 84 100 100 95 94 86 90 92 96 94 91 91 96 93 80 75 74 80 79 80 84 76 70 70 67 68 72 73
92 95 94 94 93 91 91 92 93 94 93 93 90 90 92 96 98 100 82 85 94 89 97 100 99 99 93 99 99 99 97 100 98 99 91 90 98 95 94 93 86 85 89 89 81 81 80 84 80 74 72 73 77 81
88 94 94 93 91 93 92 92 87 82 82 84 88 95 100 100 83 83 93 97 94 98 98 98 98 100 94 100 100 98 98 99 98 94 95 95 94 94 89 88 83 86 84 82 90 94 94 94 87 82 80 75 75 77
88 87 91 91 89 88 94 93 90 81 83 95 98 100 98 86 95 98 100 100 99 99 98 99 99 100 96 97 100 96 98 95 95 97 97 94 88 87 83 86 85 83 82 84 86 88 87 87 86 83 82 79 77 77
86 86 83 81 81 88 91 90 87 94 99 97 95 93 88 83 81 92 97 97 94 96 98 100 100 96 96 94 95 94 94 92 99 95 90 90 87 77 73 77 77 82 84 83 86 90 90 88 87 86 83 84 84 81
86 83 83 80 78 77 86 88 87 87 83 76 80 75 74 87 89 91 96 93 96 95 97 99 98 96 91 89 100 96 89 96 91 93 90 90 82 75 76 74 74 75 76 80 84 85 90 91 92 92 94 95 95 95
84 85 81 82 75 74 66 77 83 70 77 82 84 92 92 95 95 95 94 95 96 97 96 97 98 95 96 93 96 90 95 89 93 92 92 89 90 88 84 82 80 90 90 89 92 93 94 94 95 95 95 96 95 95
83 82 80 77 77 67 68 62 61 76 79 91 83 99 96 95 95 95 95 93 92 94 97 98 92 85 91 89 91 88 89 93 88 92 91 91 91 88 90 86 87 89 93 93 93 93 95 95 92 94 94 95 94 94
80 79 86 83 67 64 60 66 77 78 86 84 86 92 93 94 96 96 96 96 92 93 93 90 92 91 96 88 84 95 82 93 93 91 90 88 93 94 94 92 92 93 94 95 95 94 94 94 92 94 94 94 94 94
78 90 84 88 74 61 64 76 78 81 89 88 97 96 96 95 96 96 96 92 85 96 97 85 92 96 78 85 90 86 96 94 92 92 92 94 93 95 95 94 95 95 94 94 94 93 93 93 92 86 92 94 92 93
93 93 86 79 74 75 82 80 80 77 93 95 96 97 97 97 95 96 95 89 92 85 80 92 70 86 93 91 92 92 92 92 90 92 92 93 93 94 94 95 95 95 94 95 94 94 93 93 90 91 91 92 89 90
90 92 86 74 76 84 82 86 74 94 100 97 94 93 95 95 90 87 91 86 84 76 80 86 90 92 93 92 94 94 94 91 91 92 92 95 94 94 94 94 93 93 93 93 92 89 91 93 91 89 88 87 89 88
79 82 81 79 71 86 85 92 80 78 93 90 90 87 87 88 87 94 85 80 71 79 89 91 93 94 94 94 94 94 94 90 85 88 91 91 92 93 93 91 89 91 88 91 91 91 89 88 88 88 86 79 85 88
78 84 76 81 90 88 90 89 90 84 83 88 78 84 90 83 85 92 86 69 87 93 90 93 94 93 94 94 92 91 92 86 91 85 86 89 91 87 88 89 89 87 87 89 90 91 90 88 83 81 90 94 93 90
90 73 83 82 89 88 93 93 90 92 92 89 91 77 94 96 96 92 73 88 91 93 92 92 91 90 87 93 94 92 94 90 90 86 89 86 88 88 89 90 86 91 89 91 85 90 87 80 84 86 91 94 87 87
74 79 88 80 84 88 98 91 93 83 93 95 86 85 89 94 87 66 97 83 92 92 90 88 92 92 91 94 87 91 93 88 87 88 89 89 89 90 90 89 89 89 87 83 77 82 86 81 87 92 90 90 89 92
68 88 92 92 86 96 90 93 81 83 89 93 93 99 92 91 77 90 96 94 92 88 86 93 86 86 81 80 86 88 90 84 85 87 88 86 87 87 79 78 80 84 81 80 82 86 84 89 85 86 89 90 90 92
79 92 87 93 91 89 97 98 95 91 100 97 96 99 96 82 96 98 98 94 93 94 93 88 84 82 86 90 88 88 89 82 84 86 87 79 83 81 82 78 81 81 81 90 93 93 93 90 89 89 88 90 90 94
99 96 95 99 97 94 96 100 100 100 99 99 100 92 91 93 96 99 93 96 98 97 98 97 94 88 87 84 85 85 87 82 75 84 87 83 81 86 88 89 89 89 85 89 92 94 95 95 93 93 95 95 99 92
100 100 88 69 82 80 95 93 86 94 100 100 99 97 92 100 100 94 92 91 91 95 90 91 86 83 84 83 81 86 86 86 86 84 82 81 82 82 85 91 92 92 86 86 90 90 94 96 98 98 99 100 99 98
94 86 87 97 95 88 100 100 100 100 100 89 85 100 100 97 96 94 92 93 93 86 86 87 86 83 84 86 88 90 93 91 91 87 84 85 89 92 94 95 98 100 97 96 91 92 91 92 94 96 96 93 97 100
99 92 87 100 98 98 99 100 100 94 90 91 99 100 98 92 96 95 94 94 94 89 92 94 98 96 94 93 96 94 95 94 92 99 100 98 96 95 98 98 98 98 98 97 100 98 92 95 97 97 97 97 98 100
99 92 97 99 100 100 100 98 100 100 93 96 91 90 91 96 96 94 95 95 95 98 98 98 99 96 99 97 100 99 100 100 100 97 100 99 95 94 100 100 100 100 100 96 96 98 100 99 100 99 99 99 99 98
90 95 96 97 100 99 99 100 100 100 99 98 100 99 99 99 97 96 96 98 99 99 96 98 100 99 95 100 97 98 95 100 100 99 98 98 100 100 100 100 100 100 100 96 95 96 99 100 100 100 100 100 100 100
97 99 95 99 100 98 97 100 100 100 100 100 100 100 99 98 100 97 98 97 97 100 100 100 100 97 99 99 100 99 100 100 99 100 100 100 100 100 100 100 100 100 100 100 100 100 100 100 100 100 100 99 100 100
98 98 98 98 99 100 100 98 100 100 100 100 100 100 100 98 98 97 96 99 99 98 98 98 99 100 100 100 100 100 100 100 100 100 100 100 100 100 100 100 100 100 100 100 100 100 100 100 100 100 100 100 100 100

GFSWCAN_sfc_rhum_087.txt.gz
RH
88 89 88 89 91 91 92 86 85 84 84 84 84 84 84 84 82 88 86 86 98 99 53 47 38 45 45 57 83 90 97 98 100 100 79 60 59 40 38 32 66 63 72 79 64 58 69 38 42 72 76 74 73 86
90 87 86 90 93 92 93 93 91 88 87 88 86 86 86 84 83 84 94 75 93 99 83 62 46 44 38 34 63 83 55 85 65 77 60 57 65 61 43 55 34 67 58 66 44 46 64 39 57 51 54 58 52 55
88 87 91 93 93 93 93 92 92 94 92 91 89 88 89 91 84 84 92 88 97 100 86 92 71 52 47 48 43 62 65 56 64 49 75 68 67 44 71 48 57 31 49 92 78 65 67 45 53 48 45 54 48 44
88 90 92 94 94 94 94 94 94 94 92 91 91 90 88 89 91 84 94 86 70 86 93 66 44 57 45 45 46 51 49 55 66 66 84 75 72 38 51 43 47 35 42 34 34 59 49 62 51 53 49 48 49 46
91 92 95 96 95 92 92 93 94 93 94 92 92 90 90 90 91 89 94 77 51 59 91 57 55 46 48 50 50 54 67 79 88 88 87 76 50 55 50 47 45 49 63 55 77 62 62 51 51 53 52 51 51 51
90 94 96 96 93 89 92 94 93 94 92 92 92 90 90 90 91 97 100 93 51 64 86 79 45 54 52 54 56 58 79 86 90 96 87 61 48 57 75 64 78 59 56 60 72 58 55 60 49 52 55 51 51 51
93 95 93 93 92 93 95 95 95 96 95 93 89 88 92 92 96 96 82 76 66 74 92 85 75 53 53 58 66 72 72 88 79 96 89 72 66 61 76 83 69 61 58 60 58 56 57 64 71 58 56 50 52 48
93 96 94 94 92 95 94 92 96 96 94 90 86 92 94 93 89 89 70 77 67 86 85 88 81 77 58 76 78 70 92 94 96 96 76 70 66 82 95 66 60 59 57 63 58 53 69 64 59 58 57 57 55 56
93 95 95 93 92 94 92 93 92 90 88 90 96 94 93 95 98 94 80 73 68 70 75 94 85 91 62 87 83 88 86 100 94 99 74 81 95 96 87 77 69 67 70 66 58 56 57 63 62 61 61 62 67 67
88 88 88 93 91 91 91 90 90 89 86 84 88 93 100 98 84 84 93 97 92 74 70 81 52 92 90 100 100 100 91 96 100 92 86 100 92 81 68 64 64 67 64 62 70 68 65 66 67 68 69 70 70 71
85 83 89 89 92 91 88 86 87 87 90 73 95 100 98 89 86 89 100 92 83 97 79 64 64 91 97 88 98 85 98 95 91 92 84 84 84 72 59 62 63 64 64 66 67 68 66 67 69 69 68 70 70 72
80 82 81 78 81 88 86 82 82 71 76 76 89 90 84 68 76 92 91 92 70 78 92 87 89 78 96 98 87 97 100 98 97 98 98 87 76 55 54 55 54 62 67 67 70 78 82 76 76 68 67 70 72 73
84 81 74 70 71 79 85 75 73 77 59 48 55 68 65 77 96 99 97 87 95 86 94 100 100 97 98 96 100 100 100 97 82 100 87 84 65 62 61 59 59 60 64 67 71 73 78 84 86 83 88 89 89 90
81 79 71 70 79 78 70 63 66 54 48 61 79 88 87 88 84 85 88 90 94 94 93 97 100 100 100 100 100 98 94 92 95 90 90 85 84 78 68 67 66 78 81 82 86 85 86 87 90 89 91 90 90 92
79 70 68 65 67 64 62 62 59 45 53 78 70 89 86 89 88 91 94 96 93 93 96 100 97 84 92 94 87 92 96 88 79 89 89 83 79 73 76 74 76 78 85 87 85 85 88 88 88 92 92 92 91 92
80 75 58 64 60 60 59 53 44 45 59 69 76 88 87 97 94 95 95 96 84 88 87 75 90 94 91 81 83 87 72 82 88 84 85 75 79 79 80 80 85 88 85 87 86 83 84 87 89 91 90 91 92 92
82 63 66 68 61 58 59 44 47 57 68 74 88 85 91 88 93 93 92 87 74 92 95 73 87 94 65 76 79 74 89 90 90 86 75 79 81 83 85 89 90 85 86 88 87 86 89 90 91 86 89 92 90 91
59 65 75 61 56 51 44 45 54 59 82 84 84 92 89 89 90 88 84 76 76 71 67 79 58 76 84 81 82 83 82 80 78 82 84 87 86 89 88 84 85 85 84 85 83 86 88 90 87 86 89 90 88 89
71 63 78 79 60 47 54 54 48 74 84 81 84 79 82 85 76 73 76 70 61 54 62 66 76 80 85 87 88 89 89 85 86 87 83 86 85 84 84 86 88 86 85 85 82 79 82 88 84 80 81 79 80 77
77 79 75 70 63 48 57 61 47 59 75 77 70 73 71 76 75 79 74 61 53 59 73 78 84 90 88 88 85 82 80 75 73 78 82 81 78 80 86 85 80 83 77 81 80 79 74 73 70 71 69 66 69 71
63 60 68 50 48 50 55 56 59 56 57 70 55 56 75 68 74 77 70 50 71 73 80 84 88 84 84 83 81 73 78 78 79 78 74 79 81 77 80 82 80 77 78 80 80 82 81 79 69 66 78 83 81 77
49 65 56 52 58 56 62 55 60 58 61 61 58 54 76 82 81 75 52 70 77 82 78 81 79 75 74 82 82 81 81 76 75 71 74 77 81 81 82 82 77 84 82 85 79 84 75 62 66 71 79 82 70 71
61 57 64 62 88 78 84 66 73 55 76 68 58 65 72 75 62 44 73 60 78 73 72 71 78 78 79 82 76 77 77 74 73 75 76 77 76 79 78 79 80 84 81 70 63 69 73 67 71 77 75 75 75 78
60 86 92 87 75 91 75 74 51 58 63 66 66 75 71 69 56 66 77 76 76 63 65 77 65 66 62 64 67 73 72 60 66 70 68 66 70 68 62 63 66 68 61 56 61 69 70 78 70 69 73 73 73 74
67 89 84 85 71 74 76 79 74 67 77 70 74 75 77 61 75 73 75 76 75 80 75 64 60 61 67 72 68 68 63 58 63 63 60 56 60 55 53 51 56 56 59 74 76 76 78 76 74 72 69 71 68 70
86 83 78 78 76 73 71 80 78 77 74 78 79 70 77 74 75 81 67 80 83 79 86 84 78 68 62 58 60 63 63 56 50 57 59 56 57 66 67 67 67 71 63 72 74 74 72 71 72 69 76 74 72 61
83 84 65 50 54 59 77 73 63 74 78 80 76 72 68 74 81 75 68 66 71 77 68 70 62 60 57 52 53 56 57 61 66 59 56 55 57 59 71 76 71 71 62 68 71 70 70 71 71 70 71 73 72 71
67 66 78 81 75 62 78 75 76 78 74 58 60 77 74 73 76 74 70 72 74 65 64 60 54 51 54 58 62 67 70 71 74 66 63 61 61 68 72 77 78 85 78 82 74 72 70 70 71 70 68 71 74 74
78 66 65 84 75 77 80 77 76 67 61 64 76 75 77 68 77 77 77 72 68 68 72 75 80 76 73 70 73 72 75 76 67 60 52 73 76 80 71 73 73 73 74 76 79 74 70 71 72 71 59 72 73 75
81 68 74 78 81 85 89 77 86 81 63 66 62 64 72 81 82 75 76 79 81 86 85 82 82 80 79 77 79 76 80 81 82 82 79 78 82 79 77 76 77 77 75 73 73 72 76 77 82 79 78 77 76 75
67 72 72 73 82 86 88 87 83 78 78 80 78 80 80 84 84 78 76 78 80 83 82 83 83 80 79 77 76 76 82 85 83 82 75 77 77 78 79 79 79 78 76 74 74 74 74 76 74 72 71 71 70 78
78 72 76 79 86 86 84 80 79 80 79 79 84 81 84 81 82 84 84 83 82 82 92 81 81 86 82 82 83 87 79 80 79 78 70 76 78 77 76 75 79 77 76 76 76 75 72 74 76 74 75 72 72 74
76 75 74 78 86 82 87 76 67 80 78 78 83 82 84 80 81 85 82 85 90 85 82 85 84 83 80 76 78 83 74 82 87 84 81 85 87 85 79 77 77 77 72 76 74 74 72 70 75 73 74 75 76 76